<?xml version='1.0' encoding='UTF-8'?><gpx version="1.1" creator="JPX - https://github.com/jenetics/jpx" xmlns="http://www.topografix.com/GPX/1/1"><trk><trkseg><trkpt lat="43.860629321933594" lon="11.57970681188796"><ele>332.0</ele><time>2026-04-18T11:57:49.574Z</time></trkpt><trkpt lat="43.860563403980066" lon="11.579688637039947"><ele>332.0</ele><time>2026-04-18T11:58:47Z</time></trkpt><trkpt lat="43.86050534739572" lon="11.57965250814697"><ele>332.0</ele><time>2026-04-18T11:59:27Z</time></trkpt><trkpt lat="43.86045107829374" lon="11.579593331694229"><ele>332.0</ele><time>2026-04-18T11:59:33Z</time></trkpt><trkpt lat="43.86040325695343" lon="11.57952181212851"><ele>332.0</ele><time>2026-04-18T11:59:38Z</time></trkpt><trkpt lat="43.86032897892379" lon="11.579448112192528"><ele>332.0</ele><time>2026-04-18T11:59:41Z</time></trkpt><trkpt lat="43.86029573849585" lon="11.579351997554193"><ele>332.0</ele><time>2026-04-18T11:59:45Z</time></trkpt><trkpt lat="43.86034356265901" lon="11.579166184264773"><ele>329.1666666666667</ele><time>2026-04-18T12:00:14Z</time></trkpt><trkpt lat="43.86038975237517" lon="11.579093242777228"><ele>326.33333333333337</ele><time>2026-04-18T12:00:15Z</time></trkpt><trkpt lat="43.860458602697165" lon="11.578999488869938"><ele>323.5</ele><time>2026-04-18T12:00:17Z</time></trkpt><trkpt lat="43.86051686602152" lon="11.578918782519677"><ele>320.6666666666667</ele><time>2026-04-18T12:00:19Z</time></trkpt><trkpt lat="43.860575213835645" lon="11.578853215551902"><ele>317.8333333333333</ele><time>2026-04-18T12:00:21Z</time></trkpt><trkpt lat="43.860628351258775" lon="11.578796552800481"><ele>315.0</ele><time>2026-04-18T12:00:23Z</time></trkpt><trkpt lat="43.86068648132833" lon="11.578730408397202"><ele>316.4</ele><time>2026-04-18T12:00:25Z</time></trkpt><trkpt lat="43.86077416283339" lon="11.578622391615276"><ele>317.8</ele><time>2026-04-18T12:00:27Z</time></trkpt><trkpt lat="43.860848062515956" lon="11.57852649457715"><ele>319.20000000000005</ele><time>2026-04-18T12:00:29Z</time></trkpt><trkpt lat="43.860911160821814" lon="11.578550327277894"><ele>320.6</ele><time>2026-04-18T12:00:31Z</time></trkpt><trkpt lat="43.86100052268774" lon="11.578671205343603"><ele>322.0</ele><time>2026-04-18T12:00:33Z</time></trkpt><trkpt lat="43.86106375810794" lon="11.57876536733217"><ele>322.0</ele><time>2026-04-18T12:00:34Z</time></trkpt><trkpt lat="43.861117702414795" lon="11.578847271621276"><ele>322.0</ele><time>2026-04-18T12:00:35Z</time></trkpt><trkpt lat="43.86109600624176" lon="11.578994631185862"><ele>322.0</ele><time>2026-04-18T12:00:37Z</time></trkpt><trkpt lat="43.86103316060873" lon="11.579090549114374"><ele>322.0</ele><time>2026-04-18T12:00:38Z</time></trkpt><trkpt lat="43.8609963338394" lon="11.579213251989717"><ele>322.0</ele><time>2026-04-18T12:00:39Z</time></trkpt><trkpt lat="43.860957025149894" lon="11.579334397018888"><ele>322.0</ele><time>2026-04-18T12:00:40Z</time></trkpt><trkpt lat="43.86091203399899" lon="11.579429937793604"><ele>322.0</ele><time>2026-04-18T12:00:41Z</time></trkpt><trkpt lat="43.86089274669412" lon="11.57952180615394"><ele>322.0</ele><time>2026-04-18T12:00:43Z</time></trkpt><trkpt lat="43.860943220733475" lon="11.579602246832943"><ele>322.0</ele><time>2026-04-18T12:00:45Z</time></trkpt><trkpt lat="43.861011768972276" lon="11.579570499001175"><ele>322.0</ele><time>2026-04-18T12:00:46Z</time></trkpt><trkpt lat="43.861109344302164" lon="11.579509043698803"><ele>322.0</ele><time>2026-04-18T12:00:47Z</time></trkpt><trkpt lat="43.861241900632194" lon="11.579404917525762"><ele>322.0</ele><time>2026-04-18T12:00:48Z</time></trkpt><trkpt lat="43.86137696283414" lon="11.579322225823445"><ele>322.0</ele><time>2026-04-18T12:00:49Z</time></trkpt><trkpt lat="43.86149967438293" lon="11.57928329354541"><ele>322.0</ele><time>2026-04-18T12:00:50Z</time></trkpt><trkpt lat="43.861585073467054" lon="11.579201674597439"><ele>322.0</ele><time>2026-04-18T12:00:51Z</time></trkpt><trkpt lat="43.86165239431743" lon="11.579164948045685"><ele>322.0</ele><time>2026-04-18T12:00:52Z</time></trkpt><trkpt lat="43.86173581727706" lon="11.579171495672576"><ele>322.0</ele><time>2026-04-18T12:00:54Z</time></trkpt><trkpt lat="43.86175489142516" lon="11.579301621683715"><ele>322.0</ele><time>2026-04-18T12:00:56Z</time></trkpt><trkpt lat="43.86172720548645" lon="11.579398764616483"><ele>322.0</ele><time>2026-04-18T12:00:57Z</time></trkpt><trkpt lat="43.86167915388386" lon="11.579501229093728"><ele>322.0</ele><time>2026-04-18T12:00:58Z</time></trkpt><trkpt lat="43.86164831909972" lon="11.579639738214597"><ele>322.0</ele><time>2026-04-18T12:01:00Z</time></trkpt><trkpt lat="43.86161048671025" lon="11.579725607616826"><ele>325.3333333333333</ele><time>2026-04-18T12:01:01Z</time></trkpt><trkpt lat="43.86157157306729" lon="11.579815396254082"><ele>328.66666666666663</ele><time>2026-04-18T12:01:02Z</time></trkpt><trkpt lat="43.861503425978" lon="11.579924689772442"><ele>332.0</ele><time>2026-04-18T12:01:04Z</time></trkpt><trkpt lat="43.861441990655614" lon="11.580023286409023"><ele>335.3333333333333</ele><time>2026-04-18T12:01:06Z</time></trkpt><trkpt lat="43.86139989436718" lon="11.580091662358395"><ele>338.6666666666667</ele><time>2026-04-18T12:01:07Z</time></trkpt><trkpt lat="43.8613908339897" lon="11.580232158510082"><ele>342.0</ele><time>2026-04-18T12:01:09Z</time></trkpt><trkpt lat="43.861440882973795" lon="11.580302998212222"><ele>345.5</ele><time>2026-04-18T12:01:10Z</time></trkpt><trkpt lat="43.86148369938231" lon="11.580374536935636"><ele>349.0</ele><time>2026-04-18T12:01:11Z</time></trkpt><trkpt lat="43.86154868644199" lon="11.580503433840978"><ele>352.5</ele><time>2026-04-18T12:01:13Z</time></trkpt><trkpt lat="43.86163637394938" lon="11.580513085084402"><ele>356.0</ele><time>2026-04-18T12:01:15Z</time></trkpt><trkpt lat="43.86169672149936" lon="11.580541591347899"><ele>359.5</ele><time>2026-04-18T12:01:16Z</time></trkpt><trkpt lat="43.86176680092121" lon="11.580583002278289"><ele>363.0</ele><time>2026-04-18T12:01:20Z</time></trkpt><trkpt lat="43.86177455948291" lon="11.580673169244406"><ele>363.0</ele><time>2026-04-18T12:01:21Z</time></trkpt><trkpt lat="43.861764656090045" lon="11.580794546156046"><ele>363.0</ele><time>2026-04-18T12:01:22Z</time></trkpt><trkpt lat="43.861733851439595" lon="11.580886427668112"><ele>363.0</ele><time>2026-04-18T12:01:23Z</time></trkpt><trkpt lat="43.861671378949985" lon="11.580936320700806"><ele>363.0</ele><time>2026-04-18T12:01:24Z</time></trkpt><trkpt lat="43.861581454296704" lon="11.581004660706263"><ele>363.0</ele><time>2026-04-18T12:01:25Z</time></trkpt><trkpt lat="43.86149631039409" lon="11.581086039301717"><ele>363.0</ele><time>2026-04-18T12:01:26Z</time></trkpt><trkpt lat="43.86139810924781" lon="11.581182727427661"><ele>364.4</ele><time>2026-04-18T12:01:27Z</time></trkpt><trkpt lat="43.861297672577294" lon="11.58126093569911"><ele>365.79999999999995</ele><time>2026-04-18T12:01:28Z</time></trkpt><trkpt lat="43.86119657917371" lon="11.581329290833812"><ele>367.2</ele><time>2026-04-18T12:01:29Z</time></trkpt><trkpt lat="43.86111367693207" lon="11.581395870070638"><ele>368.6</ele><time>2026-04-18T12:01:30Z</time></trkpt><trkpt lat="43.861050698556966" lon="11.581441614247586"><ele>370.0</ele><time>2026-04-18T12:01:31Z</time></trkpt><trkpt lat="43.860933724932906" lon="11.58147399709662"><ele>370.0</ele><time>2026-04-18T12:01:33Z</time></trkpt><trkpt lat="43.86085818046815" lon="11.581500326290621"><ele>370.0</ele><time>2026-04-18T12:01:34Z</time></trkpt><trkpt lat="43.860767842629606" lon="11.5815517294895"><ele>370.0</ele><time>2026-04-18T12:01:35Z</time></trkpt><trkpt lat="43.860644527198914" lon="11.581593425725153"><ele>370.0</ele><time>2026-04-18T12:01:36Z</time></trkpt><trkpt lat="43.860529656931035" lon="11.581643756032102"><ele>370.0</ele><time>2026-04-18T12:01:37Z</time></trkpt><trkpt lat="43.86043452083512" lon="11.581686860636081"><ele>370.0</ele><time>2026-04-18T12:01:38Z</time></trkpt><trkpt lat="43.86033197469876" lon="11.581692974992553"><ele>370.0</ele><time>2026-04-18T12:01:39Z</time></trkpt><trkpt lat="43.86024790648314" lon="11.581706975158623"><ele>370.0</ele><time>2026-04-18T12:01:40Z</time></trkpt><trkpt lat="43.86017475725048" lon="11.5817315334225"><ele>370.0</ele><time>2026-04-18T12:01:41Z</time></trkpt><trkpt lat="43.8600737863389" lon="11.581771660024932"><ele>370.0</ele><time>2026-04-18T12:01:43Z</time></trkpt><trkpt lat="43.85996786008124" lon="11.581853951128382"><ele>368.0</ele><time>2026-04-18T12:01:45Z</time></trkpt><trkpt lat="43.85986352140985" lon="11.581874315714147"><ele>366.0</ele><time>2026-04-18T12:01:46Z</time></trkpt><trkpt lat="43.85970504105721" lon="11.581869352738888"><ele>364.0</ele><time>2026-04-18T12:01:47Z</time></trkpt><trkpt lat="43.85950531235904" lon="11.581856196723926"><ele>363.0</ele><time>2026-04-18T12:01:48Z</time></trkpt><trkpt lat="43.859277810362805" lon="11.581820972508332"><ele>362.0</ele><time>2026-04-18T12:01:49Z</time></trkpt><trkpt lat="43.85903262389618" lon="11.58180803599258"><ele>362.0</ele><time>2026-04-18T12:01:50Z</time></trkpt><trkpt lat="43.858777943962245" lon="11.581825611197713"><ele>362.0</ele><time>2026-04-18T12:01:51Z</time></trkpt><trkpt lat="43.85857580496265" lon="11.581834852459416"><ele>361.0</ele><time>2026-04-18T12:01:52Z</time></trkpt><trkpt lat="43.85842116811846" lon="11.581849806335352"><ele>360.0</ele><time>2026-04-18T12:01:53Z</time></trkpt><trkpt lat="43.858288131468086" lon="11.581880293393086"><ele>359.0</ele><time>2026-04-18T12:01:54Z</time></trkpt><trkpt lat="43.858179278178355" lon="11.581930809354546"><ele>358.0</ele><time>2026-04-18T12:01:55Z</time></trkpt><trkpt lat="43.85808058922987" lon="11.581995769051826"><ele>362.0</ele><time>2026-04-18T12:01:56Z</time></trkpt><trkpt lat="43.85797774582009" lon="11.582058891014192"><ele>366.0</ele><time>2026-04-18T12:01:57Z</time></trkpt><trkpt lat="43.85786504357392" lon="11.582121192262257"><ele>370.0</ele><time>2026-04-18T12:01:58Z</time></trkpt><trkpt lat="43.857761863258105" lon="11.582184752809152"><ele>374.0</ele><time>2026-04-18T12:01:59Z</time></trkpt><trkpt lat="43.857646963668834" lon="11.582295684015545"><ele>370.0</ele><time>2026-04-18T12:02:00Z</time></trkpt><trkpt lat="43.85754513350563" lon="11.582429365354688"><ele>366.0</ele><time>2026-04-18T12:02:01Z</time></trkpt><trkpt lat="43.85745795931294" lon="11.582518062518572"><ele>362.0</ele><time>2026-04-18T12:02:02Z</time></trkpt><trkpt lat="43.857347890412065" lon="11.58256966559531"><ele>358.0</ele><time>2026-04-18T12:02:03Z</time></trkpt><trkpt lat="43.85722094042856" lon="11.58258922186766"><ele>358.0</ele><time>2026-04-18T12:02:04Z</time></trkpt><trkpt lat="43.857086982821436" lon="11.58260380289867"><ele>358.0</ele><time>2026-04-18T12:02:05Z</time></trkpt><trkpt lat="43.8569572667567" lon="11.582614913999981"><ele>358.0</ele><time>2026-04-18T12:02:06Z</time></trkpt><trkpt lat="43.85685135877824" lon="11.58262710753756"><ele>358.0</ele><time>2026-04-18T12:02:07Z</time></trkpt><trkpt lat="43.856748688987516" lon="11.58267850808234"><ele>359.75</ele><time>2026-04-18T12:02:08Z</time></trkpt><trkpt lat="43.85665027187582" lon="11.582762035777131"><ele>361.5</ele><time>2026-04-18T12:02:09Z</time></trkpt><trkpt lat="43.85656744166303" lon="11.582860002445857"><ele>363.25</ele><time>2026-04-18T12:02:10Z</time></trkpt><trkpt lat="43.85648446381142" lon="11.582972560699895"><ele>365.0</ele><time>2026-04-18T12:02:11Z</time></trkpt><trkpt lat="43.85640184282448" lon="11.583074337339655"><ele>365.0</ele><time>2026-04-18T12:02:12Z</time></trkpt><trkpt lat="43.85632525913186" lon="11.583147070452453"><ele>365.0</ele><time>2026-04-18T12:02:13Z</time></trkpt><trkpt lat="43.85625836410568" lon="11.58318115580853"><ele>365.0</ele><time>2026-04-18T12:02:14Z</time></trkpt><trkpt lat="43.85616273108705" lon="11.583228410900862"><ele>365.0</ele><time>2026-04-18T12:02:16Z</time></trkpt><trkpt lat="43.856084612860755" lon="11.583255255842646"><ele>365.0</ele><time>2026-04-18T12:02:18Z</time></trkpt><trkpt lat="43.856008199089814" lon="11.58323946863623"><ele>365.0</ele><time>2026-04-18T12:02:20Z</time></trkpt><trkpt lat="43.85594742463475" lon="11.583264915468186"><ele>362.2</ele><time>2026-04-18T12:02:22Z</time></trkpt><trkpt lat="43.85586822749549" lon="11.58331659535673"><ele>359.4</ele><time>2026-04-18T12:02:25Z</time></trkpt><trkpt lat="43.855802486628335" lon="11.583308378116199"><ele>356.6</ele><time>2026-04-18T12:02:27Z</time></trkpt><trkpt lat="43.85569452808057" lon="11.583322126675109"><ele>353.8</ele><time>2026-04-18T12:02:29Z</time></trkpt><trkpt lat="43.85558837899547" lon="11.583367252941486"><ele>351.0</ele><time>2026-04-18T12:02:31Z</time></trkpt><trkpt lat="43.85549630394706" lon="11.583380386991116"><ele>351.0</ele><time>2026-04-18T12:02:32Z</time></trkpt><trkpt lat="43.85542596766071" lon="11.583386444977988"><ele>351.0</ele><time>2026-04-18T12:02:33Z</time></trkpt><trkpt lat="43.855356222995006" lon="11.583280974427813"><ele>351.0</ele><time>2026-04-18T12:02:35Z</time></trkpt><trkpt lat="43.85538492639491" lon="11.583179719413334"><ele>351.0</ele><time>2026-04-18T12:02:36Z</time></trkpt><trkpt lat="43.85543026543282" lon="11.583065347669185"><ele>351.0</ele><time>2026-04-18T12:02:37Z</time></trkpt><trkpt lat="43.855460014600524" lon="11.582958756512278"><ele>351.0</ele><time>2026-04-18T12:02:38Z</time></trkpt><trkpt lat="43.85547836829736" lon="11.582808769571608"><ele>348.20000000000005</ele><time>2026-04-18T12:02:39Z</time></trkpt><trkpt lat="43.8555103949144" lon="11.582639390651904"><ele>345.40000000000003</ele><time>2026-04-18T12:02:40Z</time></trkpt><trkpt lat="43.855507284452024" lon="11.582522422784928"><ele>342.6</ele><time>2026-04-18T12:02:41Z</time></trkpt><trkpt lat="43.85542022686806" lon="11.582398172330041"><ele>339.8</ele><time>2026-04-18T12:02:43Z</time></trkpt><trkpt lat="43.855327973193226" lon="11.582367692951365"><ele>337.0</ele><time>2026-04-18T12:02:44Z</time></trkpt><trkpt lat="43.85523622799906" lon="11.582337434810896"><ele>337.0</ele><time>2026-04-18T12:02:45Z</time></trkpt><trkpt lat="43.855160163269154" lon="11.582265306003057"><ele>337.0</ele><time>2026-04-18T12:02:46Z</time></trkpt><trkpt lat="43.855067094097954" lon="11.582185452918235"><ele>337.0</ele><time>2026-04-18T12:02:47Z</time></trkpt><trkpt lat="43.854998546967245" lon="11.582089360817818"><ele>337.0</ele><time>2026-04-18T12:02:48Z</time></trkpt><trkpt lat="43.85482313719328" lon="11.582036864116562"><ele>337.66666666666663</ele><time>2026-04-18T12:02:50Z</time></trkpt><trkpt lat="43.85474913402266" lon="11.582032125243796"><ele>338.3333333333333</ele><time>2026-04-18T12:02:51Z</time></trkpt><trkpt lat="43.854671421506275" lon="11.582022911860866"><ele>339.0</ele><time>2026-04-18T12:02:52Z</time></trkpt><trkpt lat="43.85459105445679" lon="11.581981356568006"><ele>339.6666666666667</ele><time>2026-04-18T12:02:53Z</time></trkpt><trkpt lat="43.854478957291015" lon="11.581967546532539"><ele>340.33333333333337</ele><time>2026-04-18T12:02:55Z</time></trkpt><trkpt lat="43.854397604146946" lon="11.581957013992112"><ele>341.0</ele><time>2026-04-18T12:02:56Z</time></trkpt><trkpt lat="43.85431216161654" lon="11.581935474857712"><ele>345.0</ele><time>2026-04-18T12:02:57Z</time></trkpt><trkpt lat="43.854253951316636" lon="11.581888891795488"><ele>349.0</ele><time>2026-04-18T12:02:58Z</time></trkpt><trkpt lat="43.854168099704005" lon="11.581780327029612"><ele>353.0</ele><time>2026-04-18T12:03:00Z</time></trkpt><trkpt lat="43.85410509452952" lon="11.581675765358781"><ele>357.0</ele><time>2026-04-18T12:03:01Z</time></trkpt><trkpt lat="43.854044841364924" lon="11.581579760014808"><ele>361.0</ele><time>2026-04-18T12:03:02Z</time></trkpt><trkpt lat="43.853989795624805" lon="11.581415990711497"><ele>361.0</ele><time>2026-04-18T12:03:04Z</time></trkpt><trkpt lat="43.853955467064544" lon="11.581330334795036"><ele>361.0</ele><time>2026-04-18T12:03:05Z</time></trkpt><trkpt lat="43.85388428882937" lon="11.58124695149651"><ele>361.0</ele><time>2026-04-18T12:03:06Z</time></trkpt><trkpt lat="43.853831525893845" lon="11.581196183466014"><ele>361.0</ele><time>2026-04-18T12:03:07Z</time></trkpt><trkpt lat="43.853763429055824" lon="11.581148454980118"><ele>361.0</ele><time>2026-04-18T12:03:08Z</time></trkpt><trkpt lat="43.85370901082847" lon="11.5810691763723"><ele>361.0</ele><time>2026-04-18T12:03:09Z</time></trkpt><trkpt lat="43.85359858172524" lon="11.580993662574775"><ele>360.8333333333333</ele><time>2026-04-18T12:03:11Z</time></trkpt><trkpt lat="43.85354238622091" lon="11.580895733051092"><ele>360.66666666666663</ele><time>2026-04-18T12:03:13Z</time></trkpt><trkpt lat="43.85352783279941" lon="11.580806316009658"><ele>360.5</ele><time>2026-04-18T12:03:14Z</time></trkpt><trkpt lat="43.85351036626533" lon="11.580660715913005"><ele>360.3333333333333</ele><time>2026-04-18T12:03:16Z</time></trkpt><trkpt lat="43.85342048037847" lon="11.580575505884543"><ele>360.1666666666667</ele><time>2026-04-18T12:03:18Z</time></trkpt><trkpt lat="43.85335827417475" lon="11.580525407340968"><ele>360.0</ele><time>2026-04-18T12:03:19Z</time></trkpt><trkpt lat="43.85329125663865" lon="11.580445856220814"><ele>363.0</ele><time>2026-04-18T12:03:20Z</time></trkpt><trkpt lat="43.85324318525553" lon="11.580320607368835"><ele>366.0</ele><time>2026-04-18T12:03:21Z</time></trkpt><trkpt lat="43.8532044222658" lon="11.580187238504582"><ele>369.0</ele><time>2026-04-18T12:03:22Z</time></trkpt><trkpt lat="43.85316078321995" lon="11.580085056522304"><ele>372.0</ele><time>2026-04-18T12:03:23Z</time></trkpt><trkpt lat="43.85310886290538" lon="11.58000450923432"><ele>375.0</ele><time>2026-04-18T12:03:24Z</time></trkpt><trkpt lat="43.85304782504939" lon="11.579911247642713"><ele>375.0</ele><time>2026-04-18T12:03:25Z</time></trkpt><trkpt lat="43.852989606829055" lon="11.579791449816122"><ele>375.0</ele><time>2026-04-18T12:03:26Z</time></trkpt><trkpt lat="43.85291610096386" lon="11.579691653946414"><ele>375.0</ele><time>2026-04-18T12:03:27Z</time></trkpt><trkpt lat="43.85283192090629" lon="11.579597564952595"><ele>375.0</ele><time>2026-04-18T12:03:28Z</time></trkpt><trkpt lat="43.85281205857601" lon="11.579504885222004"><ele>375.0</ele><time>2026-04-18T12:03:29Z</time></trkpt><trkpt lat="43.852802669643374" lon="11.579385248397585"><ele>377.8</ele><time>2026-04-18T12:03:31Z</time></trkpt><trkpt lat="43.852896462561716" lon="11.579327611749296"><ele>380.6</ele><time>2026-04-18T12:03:33Z</time></trkpt><trkpt lat="43.852972324325926" lon="11.579349883053425"><ele>383.4</ele><time>2026-04-18T12:03:34Z</time></trkpt><trkpt lat="43.85305707317609" lon="11.57939664209571"><ele>386.2</ele><time>2026-04-18T12:03:35Z</time></trkpt><trkpt lat="43.85315937173204" lon="11.579437948990105"><ele>389.0</ele><time>2026-04-18T12:03:36Z</time></trkpt><trkpt lat="43.85324456400855" lon="11.579447822965133"><ele>389.0</ele><time>2026-04-18T12:03:37Z</time></trkpt><trkpt lat="43.85334385525405" lon="11.579489415824312"><ele>389.0</ele><time>2026-04-18T12:03:38Z</time></trkpt><trkpt lat="43.85342352716251" lon="11.579536549747349"><ele>389.0</ele><time>2026-04-18T12:03:39Z</time></trkpt><trkpt lat="43.85352946356226" lon="11.579595841847171"><ele>389.0</ele><time>2026-04-18T12:03:40Z</time></trkpt><trkpt lat="43.8536022565363" lon="11.5796747931726"><ele>389.0</ele><time>2026-04-18T12:03:41Z</time></trkpt><trkpt lat="43.853711333350134" lon="11.579716311693318"><ele>386.8333333333333</ele><time>2026-04-18T12:03:42Z</time></trkpt><trkpt lat="43.85380784851651" lon="11.579769416592514"><ele>384.66666666666663</ele><time>2026-04-18T12:03:43Z</time></trkpt><trkpt lat="43.85388338908309" lon="11.579827783464584"><ele>382.5</ele><time>2026-04-18T12:03:44Z</time></trkpt><trkpt lat="43.85395709957595" lon="11.57987989059368"><ele>380.3333333333333</ele><time>2026-04-18T12:03:45Z</time></trkpt><trkpt lat="43.8540147653194" lon="11.579930684021255"><ele>378.16666666666663</ele><time>2026-04-18T12:03:46Z</time></trkpt><trkpt lat="43.85407296649818" lon="11.579973583561076"><ele>376.0</ele><time>2026-04-18T12:03:47Z</time></trkpt><trkpt lat="43.85414107469844" lon="11.58001363802664"><ele>376.0</ele><time>2026-04-18T12:03:48Z</time></trkpt><trkpt lat="43.85420450583631" lon="11.580027459422197"><ele>376.0</ele><time>2026-04-18T12:03:49Z</time></trkpt><trkpt lat="43.85432116807092" lon="11.57999485220833"><ele>376.0</ele><time>2026-04-18T12:03:51Z</time></trkpt><trkpt lat="43.854376983276474" lon="11.579909008765368"><ele>376.0</ele><time>2026-04-18T12:03:52Z</time></trkpt><trkpt lat="43.85437799357005" lon="11.579777409069642"><ele>376.0</ele><time>2026-04-18T12:03:53Z</time></trkpt><trkpt lat="43.85441931945939" lon="11.579680124609665"><ele>376.0</ele><time>2026-04-18T12:03:54Z</time></trkpt><trkpt lat="43.85450176579513" lon="11.579598965443013"><ele>373.75</ele><time>2026-04-18T12:03:55Z</time></trkpt><trkpt lat="43.85459831976462" lon="11.579535780795988"><ele>371.5</ele><time>2026-04-18T12:03:56Z</time></trkpt><trkpt lat="43.85471554986765" lon="11.579470383232259"><ele>369.25</ele><time>2026-04-18T12:03:57Z</time></trkpt><trkpt lat="43.85480752331255" lon="11.57940668631042"><ele>367.0</ele><time>2026-04-18T12:03:58Z</time></trkpt><trkpt lat="43.85491168417589" lon="11.579301046899444"><ele>367.6</ele><time>2026-04-18T12:04:00Z</time></trkpt><trkpt lat="43.85497183105556" lon="11.579178735311885"><ele>368.20000000000005</ele><time>2026-04-18T12:04:01Z</time></trkpt><trkpt lat="43.855027601819174" lon="11.579033371322264"><ele>368.8</ele><time>2026-04-18T12:04:02Z</time></trkpt><trkpt lat="43.85507480779853" lon="11.578886073343076"><ele>369.4</ele><time>2026-04-18T12:04:03Z</time></trkpt><trkpt lat="43.85510577562125" lon="11.578773941862325"><ele>370.0</ele><time>2026-04-18T12:04:04Z</time></trkpt><trkpt lat="43.85514782991018" lon="11.578657647038629"><ele>370.0</ele><time>2026-04-18T12:04:05Z</time></trkpt><trkpt lat="43.85517493013326" lon="11.578524064737634"><ele>370.0</ele><time>2026-04-18T12:04:06Z</time></trkpt><trkpt lat="43.85516578085049" lon="11.578371417691429"><ele>370.0</ele><time>2026-04-18T12:04:07Z</time></trkpt><trkpt lat="43.855160948750715" lon="11.578202893611902"><ele>370.0</ele><time>2026-04-18T12:04:08Z</time></trkpt><trkpt lat="43.855149638723454" lon="11.578058465655491"><ele>370.0</ele><time>2026-04-18T12:04:09Z</time></trkpt><trkpt lat="43.855170434935665" lon="11.57796397649775"><ele>373.25</ele><time>2026-04-18T12:04:10Z</time></trkpt><trkpt lat="43.85521043270883" lon="11.577805238128294"><ele>376.5</ele><time>2026-04-18T12:04:12Z</time></trkpt><trkpt lat="43.85525762654221" lon="11.577663203008123"><ele>379.75</ele><time>2026-04-18T12:04:14Z</time></trkpt><trkpt lat="43.85525974061862" lon="11.577509190050245"><ele>383.0</ele><time>2026-04-18T12:04:16Z</time></trkpt><trkpt lat="43.855295995364585" lon="11.577369218509531"><ele>383.0</ele><time>2026-04-18T12:04:18Z</time></trkpt><trkpt lat="43.85536992879394" lon="11.577276896883943"><ele>383.0</ele><time>2026-04-18T12:04:19Z</time></trkpt><trkpt lat="43.85541243402433" lon="11.577203510918912"><ele>383.0</ele><time>2026-04-18T12:04:20Z</time></trkpt><trkpt lat="43.855492144045755" lon="11.577112673523175"><ele>383.0</ele><time>2026-04-18T12:04:21Z</time></trkpt><trkpt lat="43.855533233649105" lon="11.577030738026782"><ele>383.0</ele><time>2026-04-18T12:04:22Z</time></trkpt><trkpt lat="43.85556270916082" lon="11.576947216469613"><ele>383.0</ele><time>2026-04-18T12:04:23Z</time></trkpt><trkpt lat="43.85562431477583" lon="11.57680842755169"><ele>385.1666666666667</ele><time>2026-04-18T12:04:25Z</time></trkpt><trkpt lat="43.85565470575918" lon="11.576728093174832"><ele>387.33333333333337</ele><time>2026-04-18T12:04:29Z</time></trkpt><trkpt lat="43.85568329396621" lon="11.576624523854623"><ele>389.5</ele><time>2026-04-18T12:04:32Z</time></trkpt><trkpt lat="43.85569158795761" lon="11.576517077546924"><ele>391.6666666666667</ele><time>2026-04-18T12:04:34Z</time></trkpt><trkpt lat="43.85571011229668" lon="11.576386922073285"><ele>393.8333333333333</ele><time>2026-04-18T12:04:36Z</time></trkpt><trkpt lat="43.8556981170211" lon="11.576253952574"><ele>396.0</ele><time>2026-04-18T12:04:37Z</time></trkpt><trkpt lat="43.855712721186514" lon="11.576095920002162"><ele>399.25</ele><time>2026-04-18T12:04:38Z</time></trkpt><trkpt lat="43.85575685535148" lon="11.575955225928274"><ele>402.5</ele><time>2026-04-18T12:04:39Z</time></trkpt><trkpt lat="43.855850976581436" lon="11.575793616360711"><ele>405.75</ele><time>2026-04-18T12:04:40Z</time></trkpt><trkpt lat="43.85596342637576" lon="11.575607795469281"><ele>409.0</ele><time>2026-04-18T12:04:41Z</time></trkpt><trkpt lat="43.85606889595943" lon="11.575453833720596"><ele>402.6666666666667</ele><time>2026-04-18T12:04:42Z</time></trkpt><trkpt lat="43.85619306106804" lon="11.575304126306067"><ele>396.33333333333337</ele><time>2026-04-18T12:04:43Z</time></trkpt><trkpt lat="43.856340013658325" lon="11.5751428509309"><ele>390.0</ele><time>2026-04-18T12:04:44Z</time></trkpt><trkpt lat="43.85645438794712" lon="11.574979902253508"><ele>390.0</ele><time>2026-04-18T12:04:45Z</time></trkpt><trkpt lat="43.8565251103869" lon="11.5749090035732"><ele>390.0</ele><time>2026-04-18T12:04:46Z</time></trkpt><trkpt lat="43.85661436529696" lon="11.57476131227907"><ele>390.0</ele><time>2026-04-18T12:04:48Z</time></trkpt><trkpt lat="43.85663729725435" lon="11.57465983607946"><ele>390.0</ele><time>2026-04-18T12:04:49Z</time></trkpt><trkpt lat="43.8566728872453" lon="11.57458013327931"><ele>390.0</ele><time>2026-04-18T12:04:50Z</time></trkpt><trkpt lat="43.85671315929419" lon="11.574495379199142"><ele>390.0</ele><time>2026-04-18T12:04:51Z</time></trkpt><trkpt lat="43.8567533135796" lon="11.574359910473206"><ele>392.6</ele><time>2026-04-18T12:04:53Z</time></trkpt><trkpt lat="43.85676920309294" lon="11.574198237333897"><ele>395.2</ele><time>2026-04-18T12:04:55Z</time></trkpt><trkpt lat="43.85678327379493" lon="11.574025975599445"><ele>397.79999999999995</ele><time>2026-04-18T12:04:57Z</time></trkpt><trkpt lat="43.85680743913529" lon="11.573891834871889"><ele>400.4</ele><time>2026-04-18T12:04:59Z</time></trkpt><trkpt lat="43.85684515397005" lon="11.573821096804332"><ele>403.0</ele><time>2026-04-18T12:05:00Z</time></trkpt><trkpt lat="43.856911672606316" lon="11.57370821897486"><ele>398.2</ele><time>2026-04-18T12:05:01Z</time></trkpt><trkpt lat="43.85699631441813" lon="11.573600567595374"><ele>393.4</ele><time>2026-04-18T12:05:02Z</time></trkpt><trkpt lat="43.85710101512028" lon="11.573479112080193"><ele>388.59999999999997</ele><time>2026-04-18T12:05:03Z</time></trkpt><trkpt lat="43.857173915065005" lon="11.57336976312821"><ele>383.79999999999995</ele><time>2026-04-18T12:05:04Z</time></trkpt><trkpt lat="43.85722205125309" lon="11.573293682162134"><ele>379.0</ele><time>2026-04-18T12:05:05Z</time></trkpt><trkpt lat="43.857268581956696" lon="11.573195629967886"><ele>379.0</ele><time>2026-04-18T12:05:06Z</time></trkpt><trkpt lat="43.85727554359302" lon="11.573081319996716"><ele>379.0</ele><time>2026-04-18T12:05:07Z</time></trkpt><trkpt lat="43.85727948822829" lon="11.572985949649919"><ele>379.0</ele><time>2026-04-18T12:05:08Z</time></trkpt><trkpt lat="43.85728533967469" lon="11.572867588525552"><ele>379.0</ele><time>2026-04-18T12:05:10Z</time></trkpt><trkpt lat="43.857196363900876" lon="11.57285337057322"><ele>379.0</ele><time>2026-04-18T12:05:12Z</time></trkpt><trkpt lat="43.85716661736769" lon="11.573031252850376"><ele>379.0</ele><time>2026-04-18T12:05:15Z</time></trkpt><trkpt lat="43.85714309440023" lon="11.573143955291286"><ele>379.0</ele><time>2026-04-18T12:05:16Z</time></trkpt><trkpt lat="43.857084483572706" lon="11.573237436906817"><ele>379.0</ele><time>2026-04-18T12:05:18Z</time></trkpt><trkpt lat="43.85700849785776" lon="11.573265262465192"><ele>379.0</ele><time>2026-04-18T12:05:30Z</time></trkpt><trkpt lat="43.85694279267837" lon="11.57331072647643"><ele>379.0</ele><time>2026-04-18T12:05:31Z</time></trkpt><trkpt lat="43.85686985089339" lon="11.573374273345237"><ele>379.0</ele><time>2026-04-18T12:05:32Z</time></trkpt><trkpt lat="43.85679660879308" lon="11.573460705954071"><ele>384.2</ele><time>2026-04-18T12:05:33Z</time></trkpt><trkpt lat="43.85672488903598" lon="11.573550364853567"><ele>389.4</ele><time>2026-04-18T12:05:34Z</time></trkpt><trkpt lat="43.85664578730895" lon="11.573622039106404"><ele>394.6</ele><time>2026-04-18T12:05:35Z</time></trkpt><trkpt lat="43.85652067984199" lon="11.573615476634668"><ele>399.8</ele><time>2026-04-18T12:05:37Z</time></trkpt><trkpt lat="43.85643840408465" lon="11.573563375296503"><ele>405.0</ele><time>2026-04-18T12:05:38Z</time></trkpt><trkpt lat="43.856333205159395" lon="11.573536727430964"><ele>405.0</ele><time>2026-04-18T12:05:39Z</time></trkpt><trkpt lat="43.8562357841325" lon="11.573536738594543"><ele>405.0</ele><time>2026-04-18T12:05:40Z</time></trkpt><trkpt lat="43.856105707588235" lon="11.573477865263891"><ele>405.0</ele><time>2026-04-18T12:05:41Z</time></trkpt><trkpt lat="43.85597104200099" lon="11.573460854202162"><ele>405.0</ele><time>2026-04-18T12:05:42Z</time></trkpt><trkpt lat="43.855890470179276" lon="11.573455714306082"><ele>408.4</ele><time>2026-04-18T12:05:43Z</time></trkpt><trkpt lat="43.85581417065371" lon="11.573496309058733"><ele>411.8</ele><time>2026-04-18T12:05:44Z</time></trkpt><trkpt lat="43.855707248439515" lon="11.573540737789013"><ele>415.20000000000005</ele><time>2026-04-18T12:05:45Z</time></trkpt><trkpt lat="43.85560034583493" lon="11.573600500239047"><ele>418.6</ele><time>2026-04-18T12:05:46Z</time></trkpt><trkpt lat="43.855514449153695" lon="11.573620003600897"><ele>422.0</ele><time>2026-04-18T12:05:47Z</time></trkpt><trkpt lat="43.85542519611154" lon="11.573668463285363"><ele>425.20000000000005</ele><time>2026-04-18T12:05:48Z</time></trkpt><trkpt lat="43.85534448104544" lon="11.573750527076596"><ele>428.4</ele><time>2026-04-18T12:05:49Z</time></trkpt><trkpt lat="43.85529372527542" lon="11.57383706103749"><ele>431.59999999999997</ele><time>2026-04-18T12:05:50Z</time></trkpt><trkpt lat="43.855297442220795" lon="11.573934205448195"><ele>434.79999999999995</ele><time>2026-04-18T12:06:00Z</time></trkpt><trkpt lat="43.855336923009304" lon="11.574036550202091"><ele>438.0</ele><time>2026-04-18T12:06:04Z</time></trkpt><trkpt lat="43.85527514957345" lon="11.574241102145935"><ele>438.0</ele><time>2026-04-18T12:06:06Z</time></trkpt><trkpt lat="43.85527331413637" lon="11.574392780024136"><ele>438.0</ele><time>2026-04-18T12:06:07Z</time></trkpt><trkpt lat="43.85532568297336" lon="11.574449291407507"><ele>438.0</ele><time>2026-04-18T12:06:08Z</time></trkpt><trkpt lat="43.85534703816721" lon="11.574581957350597"><ele>438.0</ele><time>2026-04-18T12:06:09Z</time></trkpt><trkpt lat="43.855355017515244" lon="11.574696584232253"><ele>438.0</ele><time>2026-04-18T12:06:10Z</time></trkpt><trkpt lat="43.85531871205648" lon="11.574797382765603"><ele>438.0</ele><time>2026-04-18T12:06:11Z</time></trkpt><trkpt lat="43.855249790946566" lon="11.574900795426366"><ele>436.2</ele><time>2026-04-18T12:06:12Z</time></trkpt><trkpt lat="43.855159974119104" lon="11.574972296919015"><ele>434.4</ele><time>2026-04-18T12:06:13Z</time></trkpt><trkpt lat="43.85506418973752" lon="11.57505593954008"><ele>432.59999999999997</ele><time>2026-04-18T12:06:14Z</time></trkpt><trkpt lat="43.85498833810732" lon="11.575080385812173"><ele>430.79999999999995</ele><time>2026-04-18T12:06:16Z</time></trkpt><trkpt lat="43.85508417099502" lon="11.575020669955567"><ele>429.0</ele><time>2026-04-18T12:06:25Z</time></trkpt><trkpt lat="43.85512988144221" lon="11.574933394090936"><ele>429.0</ele><time>2026-04-18T12:06:26Z</time></trkpt><trkpt lat="43.8551940488797" lon="11.574839644371037"><ele>429.0</ele><time>2026-04-18T12:06:27Z</time></trkpt><trkpt lat="43.85528085691202" lon="11.574742801835274"><ele>429.0</ele><time>2026-04-18T12:06:28Z</time></trkpt><trkpt lat="43.8553259346265" lon="11.574673821785924"><ele>429.0</ele><time>2026-04-18T12:06:29Z</time></trkpt><trkpt lat="43.855364287318054" lon="11.574544004741409"><ele>429.0</ele><time>2026-04-18T12:06:31Z</time></trkpt><trkpt lat="43.85532863093985" lon="11.574406692252115"><ele>430.5</ele><time>2026-04-18T12:06:33Z</time></trkpt><trkpt lat="43.855284443356034" lon="11.57430919820757"><ele>432.0</ele><time>2026-04-18T12:06:34Z</time></trkpt><trkpt lat="43.8552833197652" lon="11.574156319088228"><ele>433.5</ele><time>2026-04-18T12:06:36Z</time></trkpt><trkpt lat="43.855317067016436" lon="11.574075695394033"><ele>435.0</ele><time>2026-04-18T12:06:37Z</time></trkpt><trkpt lat="43.85534965427246" lon="11.57398731583218"><ele>436.5</ele><time>2026-04-18T12:06:38Z</time></trkpt><trkpt lat="43.855348394960416" lon="11.573864415684934"><ele>438.0</ele><time>2026-04-18T12:06:40Z</time></trkpt><trkpt lat="43.85530092265897" lon="11.573955619831883"><ele>438.0</ele><time>2026-04-18T12:06:51Z</time></trkpt><trkpt lat="43.85529254153385" lon="11.574061067180436"><ele>437.99999999999994</ele><time>2026-04-18T12:06:52Z</time></trkpt><trkpt lat="43.85526231474906" lon="11.574151640970944"><ele>437.99999999999994</ele><time>2026-04-18T12:06:53Z</time></trkpt><trkpt lat="43.85523470116514" lon="11.574286866350107"><ele>438.0</ele><time>2026-04-18T12:06:54Z</time></trkpt><trkpt lat="43.855289286731434" lon="11.574455883379702"><ele>438.0</ele><time>2026-04-18T12:06:56Z</time></trkpt><trkpt lat="43.85531795049049" lon="11.57457607438907"><ele>436.2</ele><time>2026-04-18T12:06:57Z</time></trkpt><trkpt lat="43.855348878394" lon="11.574661318701276"><ele>434.4</ele><time>2026-04-18T12:06:58Z</time></trkpt><trkpt lat="43.85525653790457" lon="11.57480570244358"><ele>432.59999999999997</ele><time>2026-04-18T12:07:00Z</time></trkpt><trkpt lat="43.85520118459826" lon="11.574864831822913"><ele>430.79999999999995</ele><time>2026-04-18T12:07:01Z</time></trkpt><trkpt lat="43.85507530734982" lon="11.574934217700932"><ele>429.0</ele><time>2026-04-18T12:07:03Z</time></trkpt><trkpt lat="43.855004566040144" lon="11.574970941534117"><ele>432.1666666666667</ele><time>2026-04-18T12:07:04Z</time></trkpt><trkpt lat="43.85496973589293" lon="11.575075728919037"><ele>435.33333333333337</ele><time>2026-04-18T12:07:36Z</time></trkpt><trkpt lat="43.854960047526006" lon="11.574964648993014"><ele>438.5</ele><time>2026-04-18T12:09:36Z</time></trkpt><trkpt lat="43.85501692381833" lon="11.57505132144269"><ele>441.6666666666667</ele><time>2026-04-18T12:09:39Z</time></trkpt><trkpt lat="43.85500159440928" lon="11.575163736023358"><ele>444.83333333333337</ele><time>2026-04-18T12:09:41Z</time></trkpt><trkpt lat="43.85495603174309" lon="11.575232069786042"><ele>448.0</ele><time>2026-04-18T12:09:43Z</time></trkpt><trkpt lat="43.85487700017484" lon="11.575316712253851"><ele>448.57142857142856</ele><time>2026-04-18T12:09:45Z</time></trkpt><trkpt lat="43.854830757023265" lon="11.57538822591982"><ele>449.1428571428571</ele><time>2026-04-18T12:09:46Z</time></trkpt><trkpt lat="43.854782032515566" lon="11.575479503326603"><ele>449.7142857142857</ele><time>2026-04-18T12:09:47Z</time></trkpt><trkpt lat="43.85474721406653" lon="11.575563300148717"><ele>450.2857142857143</ele><time>2026-04-18T12:09:48Z</time></trkpt><trkpt lat="43.85469436808927" lon="11.575640118226211"><ele>450.85714285714283</ele><time>2026-04-18T12:09:49Z</time></trkpt><trkpt lat="43.85463843949181" lon="11.575704348648227"><ele>451.42857142857144</ele><time>2026-04-18T12:09:50Z</time></trkpt><trkpt lat="43.85457810110285" lon="11.575753361709534"><ele>452.0</ele><time>2026-04-18T12:09:51Z</time></trkpt><trkpt lat="43.85452215712865" lon="11.575804562641126"><ele>452.0</ele><time>2026-04-18T12:09:52Z</time></trkpt><trkpt lat="43.85437399918568" lon="11.575842074017139"><ele>452.00000000000006</ele><time>2026-04-18T12:09:54Z</time></trkpt><trkpt lat="43.85428579218821" lon="11.575817846169826"><ele>452.00000000000006</ele><time>2026-04-18T12:09:55Z</time></trkpt><trkpt lat="43.854208289609645" lon="11.575800391592287"><ele>452.0</ele><time>2026-04-18T12:09:56Z</time></trkpt><trkpt lat="43.85413415106146" lon="11.575827735040514"><ele>452.0</ele><time>2026-04-18T12:09:57Z</time></trkpt><trkpt lat="43.85406134582836" lon="11.575880975199135"><ele>454.3333333333333</ele><time>2026-04-18T12:09:58Z</time></trkpt><trkpt lat="43.853985679272355" lon="11.575937886576817"><ele>456.66666666666663</ele><time>2026-04-18T12:09:59Z</time></trkpt><trkpt lat="43.85391655743967" lon="11.575989945860261"><ele>459.0</ele><time>2026-04-18T12:10:00Z</time></trkpt><trkpt lat="43.8538463113425" lon="11.57603940578435"><ele>461.33333333333337</ele><time>2026-04-18T12:10:01Z</time></trkpt><trkpt lat="43.853770854720636" lon="11.576087951030324"><ele>463.6666666666667</ele><time>2026-04-18T12:10:02Z</time></trkpt><trkpt lat="43.85368730941451" lon="11.576118431174658"><ele>466.0</ele><time>2026-04-18T12:10:03Z</time></trkpt><trkpt lat="43.85360706215641" lon="11.57614702181469"><ele>466.00000000000006</ele><time>2026-04-18T12:10:04Z</time></trkpt><trkpt lat="43.8535297918957" lon="11.576172164026843"><ele>466.0</ele><time>2026-04-18T12:10:05Z</time></trkpt><trkpt lat="43.85345462707431" lon="11.57618900054655"><ele>466.0</ele><time>2026-04-18T12:10:06Z</time></trkpt><trkpt lat="43.85336276286015" lon="11.576205002676268"><ele>466.0</ele><time>2026-04-18T12:10:07Z</time></trkpt><trkpt lat="43.85326863030993" lon="11.57621954735789"><ele>466.00000000000006</ele><time>2026-04-18T12:10:08Z</time></trkpt><trkpt lat="43.853163459307964" lon="11.576206464168044"><ele>466.0</ele><time>2026-04-18T12:10:09Z</time></trkpt><trkpt lat="43.85305852035923" lon="11.576203278677337"><ele>465.6666666666667</ele><time>2026-04-18T12:10:10Z</time></trkpt><trkpt lat="43.8529603559403" lon="11.576202864060424"><ele>465.33333333333337</ele><time>2026-04-18T12:10:11Z</time></trkpt><trkpt lat="43.85286835099505" lon="11.57618646098943"><ele>465.0</ele><time>2026-04-18T12:10:12Z</time></trkpt><trkpt lat="43.85279215527044" lon="11.576184982092313"><ele>464.66666666666663</ele><time>2026-04-18T12:10:13Z</time></trkpt><trkpt lat="43.85271752774948" lon="11.576220073627953"><ele>464.3333333333333</ele><time>2026-04-18T12:10:14Z</time></trkpt><trkpt lat="43.85262004551022" lon="11.57625468482435"><ele>464.0</ele><time>2026-04-18T12:10:15Z</time></trkpt><trkpt lat="43.852521799841796" lon="11.57626998736905"><ele>463.99999999999994</ele><time>2026-04-18T12:10:16Z</time></trkpt><trkpt lat="43.85241999652779" lon="11.576262811807727"><ele>464.0</ele><time>2026-04-18T12:10:17Z</time></trkpt><trkpt lat="43.85232385219375" lon="11.576233969359821"><ele>464.0</ele><time>2026-04-18T12:10:18Z</time></trkpt><trkpt lat="43.85224951012032" lon="11.576185232223658"><ele>464.0</ele><time>2026-04-18T12:10:19Z</time></trkpt><trkpt lat="43.85217846709045" lon="11.576156163487882"><ele>463.99999999999994</ele><time>2026-04-18T12:10:20Z</time></trkpt><trkpt lat="43.852091873690625" lon="11.576144284085194"><ele>464.0</ele><time>2026-04-18T12:10:21Z</time></trkpt><trkpt lat="43.85199572378858" lon="11.576143419067103"><ele>466.0</ele><time>2026-04-18T12:10:22Z</time></trkpt><trkpt lat="43.85188146238054" lon="11.576154839736214"><ele>468.0</ele><time>2026-04-18T12:10:23Z</time></trkpt><trkpt lat="43.85178212962611" lon="11.576164852241968"><ele>470.0</ele><time>2026-04-18T12:10:24Z</time></trkpt><trkpt lat="43.8516912580643" lon="11.576176177432131"><ele>472.0</ele><time>2026-04-18T12:10:25Z</time></trkpt><trkpt lat="43.85159003131041" lon="11.576178481379534"><ele>474.0</ele><time>2026-04-18T12:10:26Z</time></trkpt><trkpt lat="43.85148521053646" lon="11.576146599386703"><ele>474.2</ele><time>2026-04-18T12:10:27Z</time></trkpt><trkpt lat="43.85137882632087" lon="11.576076413066197"><ele>474.4</ele><time>2026-04-18T12:10:28Z</time></trkpt><trkpt lat="43.85127682071435" lon="11.57600794500614"><ele>474.6</ele><time>2026-04-18T12:10:29Z</time></trkpt><trkpt lat="43.85118404532909" lon="11.57593775565689"><ele>474.8</ele><time>2026-04-18T12:10:30Z</time></trkpt><trkpt lat="43.8511128396846" lon="11.575851967423409"><ele>475.0</ele><time>2026-04-18T12:10:31Z</time></trkpt><trkpt lat="43.85104551777077" lon="11.57575214550228"><ele>475.0</ele><time>2026-04-18T12:10:32Z</time></trkpt><trkpt lat="43.85098536570969" lon="11.575648617192474"><ele>475.0</ele><time>2026-04-18T12:10:33Z</time></trkpt><trkpt lat="43.85092821342251" lon="11.575523355104108"><ele>475.0</ele><time>2026-04-18T12:10:34Z</time></trkpt><trkpt lat="43.85087286762732" lon="11.57540475042272"><ele>475.0</ele><time>2026-04-18T12:10:35Z</time></trkpt><trkpt lat="43.85081419696602" lon="11.57529903087556"><ele>475.0</ele><time>2026-04-18T12:10:36Z</time></trkpt><trkpt lat="43.850777843545956" lon="11.575186174047642"><ele>478.4</ele><time>2026-04-18T12:10:37Z</time></trkpt><trkpt lat="43.85072856024038" lon="11.57509133682746"><ele>481.8</ele><time>2026-04-18T12:10:38Z</time></trkpt><trkpt lat="43.85067311293038" lon="11.575032786263646"><ele>485.20000000000005</ele><time>2026-04-18T12:10:39Z</time></trkpt><trkpt lat="43.850525158045365" lon="11.57497643245477"><ele>488.6</ele><time>2026-04-18T12:10:41Z</time></trkpt><trkpt lat="43.85042330037838" lon="11.574958209848297"><ele>492.0</ele><time>2026-04-18T12:10:42Z</time></trkpt><trkpt lat="43.850326160247455" lon="11.574925481121657"><ele>492.0</ele><time>2026-04-18T12:10:43Z</time></trkpt><trkpt lat="43.850246935945755" lon="11.574878260920835"><ele>492.0</ele><time>2026-04-18T12:10:44Z</time></trkpt><trkpt lat="43.85018150292929" lon="11.574784024108089"><ele>492.0</ele><time>2026-04-18T12:10:45Z</time></trkpt><trkpt lat="43.85014617126774" lon="11.574690220830968"><ele>492.0</ele><time>2026-04-18T12:10:46Z</time></trkpt><trkpt lat="43.8500759383251" lon="11.574606598156654"><ele>492.0</ele><time>2026-04-18T12:10:47Z</time></trkpt><trkpt lat="43.84999829644987" lon="11.574534969814733"><ele>492.0</ele><time>2026-04-18T12:10:48Z</time></trkpt><trkpt lat="43.84989410236698" lon="11.574485270409545"><ele>495.40000000000003</ele><time>2026-04-18T12:10:49Z</time></trkpt><trkpt lat="43.849824066019075" lon="11.574420684473564"><ele>498.80000000000007</ele><time>2026-04-18T12:10:50Z</time></trkpt><trkpt lat="43.84976961880012" lon="11.574318134344754"><ele>502.2</ele><time>2026-04-18T12:10:51Z</time></trkpt><trkpt lat="43.84970181083343" lon="11.5742180206005"><ele>505.6</ele><time>2026-04-18T12:10:52Z</time></trkpt><trkpt lat="43.849644205936464" lon="11.574104352258269"><ele>509.0</ele><time>2026-04-18T12:10:53Z</time></trkpt><trkpt lat="43.84956684898939" lon="11.574029286529322"><ele>508.99999999999994</ele><time>2026-04-18T12:10:54Z</time></trkpt><trkpt lat="43.84950595883706" lon="11.573954806708278"><ele>509.0</ele><time>2026-04-18T12:10:55Z</time></trkpt><trkpt lat="43.84943504010309" lon="11.573878038985516"><ele>509.0</ele><time>2026-04-18T12:10:56Z</time></trkpt><trkpt lat="43.849385038575235" lon="11.573818426212457"><ele>509.0</ele><time>2026-04-18T12:10:57Z</time></trkpt><trkpt lat="43.849269373199775" lon="11.573834551042696"><ele>508.99999999999994</ele><time>2026-04-18T12:10:59Z</time></trkpt><trkpt lat="43.849209246710544" lon="11.573884361918957"><ele>509.0</ele><time>2026-04-18T12:11:00Z</time></trkpt><trkpt lat="43.84914618258983" lon="11.573946825893362"><ele>514.6</ele><time>2026-04-18T12:11:01Z</time></trkpt><trkpt lat="43.84907635941745" lon="11.57403459782712"><ele>520.2</ele><time>2026-04-18T12:11:02Z</time></trkpt><trkpt lat="43.8489895538823" lon="11.574118700891582"><ele>525.8000000000001</ele><time>2026-04-18T12:11:03Z</time></trkpt><trkpt lat="43.84889965533363" lon="11.574182895342993"><ele>531.4</ele><time>2026-04-18T12:11:04Z</time></trkpt><trkpt lat="43.84881065686789" lon="11.574266271325255"><ele>537.0</ele><time>2026-04-18T12:11:05Z</time></trkpt><trkpt lat="43.848718295609686" lon="11.57431766819917"><ele>537.0</ele><time>2026-04-18T12:11:06Z</time></trkpt><trkpt lat="43.84862494883378" lon="11.574345956031353"><ele>537.0</ele><time>2026-04-18T12:11:07Z</time></trkpt><trkpt lat="43.848532916868976" lon="11.57440114040393"><ele>537.0</ele><time>2026-04-18T12:11:08Z</time></trkpt><trkpt lat="43.84845867733065" lon="11.574434848139425"><ele>537.0</ele><time>2026-04-18T12:11:09Z</time></trkpt><trkpt lat="43.848367882271276" lon="11.574415336442604"><ele>537.0</ele><time>2026-04-18T12:11:11Z</time></trkpt><trkpt lat="43.84829610170084" lon="11.574374982812781"><ele>537.0</ele><time>2026-04-18T12:11:12Z</time></trkpt><trkpt lat="43.84818601892722" lon="11.574361331743033"><ele>537.1666666666666</ele><time>2026-04-18T12:11:14Z</time></trkpt><trkpt lat="43.84811313097768" lon="11.57442068953954"><ele>537.3333333333334</ele><time>2026-04-18T12:11:15Z</time></trkpt><trkpt lat="43.84803421531237" lon="11.57444508045176"><ele>537.5</ele><time>2026-04-18T12:11:16Z</time></trkpt><trkpt lat="43.84795452075193" lon="11.574455039589594"><ele>537.6666666666667</ele><time>2026-04-18T12:11:17Z</time></trkpt><trkpt lat="43.847870737115656" lon="11.574451895326648"><ele>537.8333333333334</ele><time>2026-04-18T12:11:18Z</time></trkpt><trkpt lat="43.84779518699378" lon="11.574466643546648"><ele>538.0</ele><time>2026-04-18T12:11:19Z</time></trkpt><trkpt lat="43.84772741216031" lon="11.574530376417822"><ele>537.6</ele><time>2026-04-18T12:11:20Z</time></trkpt><trkpt lat="43.84764152640514" lon="11.574591469927247"><ele>537.1999999999999</ele><time>2026-04-18T12:11:21Z</time></trkpt><trkpt lat="43.8475484508089" lon="11.574615736063215"><ele>536.8</ele><time>2026-04-18T12:11:22Z</time></trkpt><trkpt lat="43.847466011809736" lon="11.57461587827637"><ele>536.4</ele><time>2026-04-18T12:11:23Z</time></trkpt><trkpt lat="43.84737263721809" lon="11.574581665353806"><ele>536.0</ele><time>2026-04-18T12:11:24Z</time></trkpt><trkpt lat="43.84727544356098" lon="11.574488381466498"><ele>536.0</ele><time>2026-04-18T12:11:25Z</time></trkpt><trkpt lat="43.84720639966173" lon="11.574380955822809"><ele>536.0</ele><time>2026-04-18T12:11:26Z</time></trkpt><trkpt lat="43.8471368733577" lon="11.574268222947627"><ele>536.0</ele><time>2026-04-18T12:11:27Z</time></trkpt><trkpt lat="43.847091450679635" lon="11.574173031188321"><ele>536.0</ele><time>2026-04-18T12:11:28Z</time></trkpt><trkpt lat="43.84705632593628" lon="11.574088149662222"><ele>536.0</ele><time>2026-04-18T12:11:29Z</time></trkpt><trkpt lat="43.84698546541357" lon="11.573959991065546"><ele>536.0</ele><time>2026-04-18T12:11:30Z</time></trkpt><trkpt lat="43.8469515542497" lon="11.573862764959209"><ele>536.0</ele><time>2026-04-18T12:11:31Z</time></trkpt><trkpt lat="43.84691698038297" lon="11.573786959684593"><ele>536.0</ele><time>2026-04-18T12:11:32Z</time></trkpt><trkpt lat="43.84685226991246" lon="11.573722514325103"><ele>536.0</ele><time>2026-04-18T12:11:33Z</time></trkpt><trkpt lat="43.846785095844346" lon="11.573639700654429"><ele>536.0</ele><time>2026-04-18T12:11:34Z</time></trkpt><trkpt lat="43.846736779491614" lon="11.573568038170166"><ele>536.0</ele><time>2026-04-18T12:11:35Z</time></trkpt><trkpt lat="43.84666402612027" lon="11.57352742233338"><ele>534.8</ele><time>2026-04-18T12:11:36Z</time></trkpt><trkpt lat="43.84659359223344" lon="11.573524517739635"><ele>533.6</ele><time>2026-04-18T12:11:37Z</time></trkpt><trkpt lat="43.84652099731675" lon="11.573613682847583"><ele>532.4</ele><time>2026-04-18T12:11:38Z</time></trkpt><trkpt lat="43.84646913447082" lon="11.573732606063867"><ele>531.2</ele><time>2026-04-18T12:11:39Z</time></trkpt><trkpt lat="43.846415534336124" lon="11.57386191433381"><ele>530.0</ele><time>2026-04-18T12:11:40Z</time></trkpt><trkpt lat="43.84634306022717" lon="11.573995599799776"><ele>531.2</ele><time>2026-04-18T12:11:41Z</time></trkpt><trkpt lat="43.84625458976026" lon="11.57415583335226"><ele>532.4</ele><time>2026-04-18T12:11:42Z</time></trkpt><trkpt lat="43.846201569440495" lon="11.574268409684633"><ele>533.6</ele><time>2026-04-18T12:11:43Z</time></trkpt><trkpt lat="43.84611914027314" lon="11.574320716671568"><ele>534.8</ele><time>2026-04-18T12:11:44Z</time></trkpt><trkpt lat="43.84601540066982" lon="11.574336911786814"><ele>536.0</ele><time>2026-04-18T12:11:45Z</time></trkpt><trkpt lat="43.845922909108154" lon="11.574356154506471"><ele>536.0</ele><time>2026-04-18T12:11:46Z</time></trkpt><trkpt lat="43.84583697676863" lon="11.574403187114932"><ele>536.0</ele><time>2026-04-18T12:11:47Z</time></trkpt><trkpt lat="43.84575264711559" lon="11.574482488332126"><ele>536.0</ele><time>2026-04-18T12:11:48Z</time></trkpt><trkpt lat="43.84568216051111" lon="11.574587420213822"><ele>536.0</ele><time>2026-04-18T12:11:49Z</time></trkpt><trkpt lat="43.845619228362615" lon="11.574659962007145"><ele>536.0</ele><time>2026-04-18T12:11:50Z</time></trkpt><trkpt lat="43.84554675047699" lon="11.574764581658012"><ele>538.2</ele><time>2026-04-18T12:11:51Z</time></trkpt><trkpt lat="43.845475670331915" lon="11.5748723504212"><ele>540.4000000000001</ele><time>2026-04-18T12:11:52Z</time></trkpt><trkpt lat="43.84540220015074" lon="11.574924195145934"><ele>542.6</ele><time>2026-04-18T12:11:53Z</time></trkpt><trkpt lat="43.84530418176867" lon="11.57493396607743"><ele>544.8000000000001</ele><time>2026-04-18T12:11:54Z</time></trkpt><trkpt lat="43.84519159544189" lon="11.574962879062403"><ele>547.0</ele><time>2026-04-18T12:11:55Z</time></trkpt><trkpt lat="43.84507878865764" lon="11.575004342396351"><ele>547.0</ele><time>2026-04-18T12:11:56Z</time></trkpt><trkpt lat="43.84496563034083" lon="11.574999550529045"><ele>547.0</ele><time>2026-04-18T12:11:57Z</time></trkpt><trkpt lat="43.844884038825484" lon="11.57501026188717"><ele>547.0</ele><time>2026-04-18T12:11:58Z</time></trkpt><trkpt lat="43.8449358074837" lon="11.575104597842218"><ele>547.0</ele><time>2026-04-18T12:12:07Z</time></trkpt><trkpt lat="43.845082065917445" lon="11.575184593813967"><ele>547.0</ele><time>2026-04-18T12:12:09Z</time></trkpt><trkpt lat="43.84516380465298" lon="11.57523466960473"><ele>550.0</ele><time>2026-04-18T12:12:10Z</time></trkpt><trkpt lat="43.845232806977215" lon="11.575266535718656"><ele>553.0</ele><time>2026-04-18T12:12:11Z</time></trkpt><trkpt lat="43.845344434364954" lon="11.575281806595694"><ele>556.0</ele><time>2026-04-18T12:12:13Z</time></trkpt><trkpt lat="43.84546652094967" lon="11.575285051107283"><ele>559.0</ele><time>2026-04-18T12:12:15Z</time></trkpt><trkpt lat="43.8455551571911" lon="11.575268819887318"><ele>562.0</ele><time>2026-04-18T12:12:16Z</time></trkpt><trkpt lat="43.84564580734652" lon="11.575240130530814"><ele>562.0</ele><time>2026-04-18T12:12:17Z</time></trkpt><trkpt lat="43.84570587352494" lon="11.575173251248184"><ele>562.0</ele><time>2026-04-18T12:12:18Z</time></trkpt><trkpt lat="43.845757515735194" lon="11.57511886096033"><ele>562.0</ele><time>2026-04-18T12:12:19Z</time></trkpt><trkpt lat="43.845836088571325" lon="11.57515367233211"><ele>562.0</ele><time>2026-04-18T12:12:21Z</time></trkpt><trkpt lat="43.84585852123189" lon="11.575291230115226"><ele>562.0</ele><time>2026-04-18T12:12:23Z</time></trkpt><trkpt lat="43.845795213643385" lon="11.575357278715684"><ele>562.0</ele><time>2026-04-18T12:12:24Z</time></trkpt><trkpt lat="43.84574171953939" lon="11.575423526881616"><ele>564.4</ele><time>2026-04-18T12:12:25Z</time></trkpt><trkpt lat="43.84568244562739" lon="11.575514733707827"><ele>566.8000000000001</ele><time>2026-04-18T12:12:26Z</time></trkpt><trkpt lat="43.8456539444242" lon="11.57564196351923"><ele>569.2</ele><time>2026-04-18T12:12:27Z</time></trkpt><trkpt lat="43.845621195186034" lon="11.575742954075299"><ele>571.6</ele><time>2026-04-18T12:12:28Z</time></trkpt><trkpt lat="43.84558941279255" lon="11.57589122497443"><ele>574.0</ele><time>2026-04-18T12:12:29Z</time></trkpt><trkpt lat="43.84556644983247" lon="11.576032881450683"><ele>574.0</ele><time>2026-04-18T12:12:30Z</time></trkpt><trkpt lat="43.845532162512654" lon="11.576147875659911"><ele>574.0</ele><time>2026-04-18T12:12:31Z</time></trkpt><trkpt lat="43.845513841047115" lon="11.576240718641055"><ele>574.0</ele><time>2026-04-18T12:12:32Z</time></trkpt><trkpt lat="43.84540646173689" lon="11.576321390745122"><ele>574.0</ele><time>2026-04-18T12:12:34Z</time></trkpt><trkpt lat="43.84532263673055" lon="11.576305323522938"><ele>574.0</ele><time>2026-04-18T12:12:35Z</time></trkpt><trkpt lat="43.84521180449739" lon="11.576284898904566"><ele>572.4</ele><time>2026-04-18T12:12:36Z</time></trkpt><trkpt lat="43.84511007622856" lon="11.576260070767619"><ele>570.8</ele><time>2026-04-18T12:12:37Z</time></trkpt><trkpt lat="43.84500768480114" lon="11.576224597378356"><ele>569.2</ele><time>2026-04-18T12:12:38Z</time></trkpt><trkpt lat="43.84491387841842" lon="11.576168794616942"><ele>567.6</ele><time>2026-04-18T12:12:39Z</time></trkpt><trkpt lat="43.84483787013951" lon="11.576125992787677"><ele>566.0</ele><time>2026-04-18T12:12:40Z</time></trkpt><trkpt lat="43.84475536480316" lon="11.576108818303668"><ele>566.0</ele><time>2026-04-18T12:12:41Z</time></trkpt><trkpt lat="43.844685924792145" lon="11.576119205920447"><ele>566.0</ele><time>2026-04-18T12:12:42Z</time></trkpt><trkpt lat="43.84464998577394" lon="11.576251492633407"><ele>566.0</ele><time>2026-04-18T12:12:44Z</time></trkpt><trkpt lat="43.84467659963279" lon="11.576333132622164"><ele>566.0</ele><time>2026-04-18T12:12:45Z</time></trkpt><trkpt lat="43.844807367952434" lon="11.576403156114841"><ele>566.0</ele><time>2026-04-18T12:12:47Z</time></trkpt><trkpt lat="43.844883427497685" lon="11.576453059877723"><ele>567.0</ele><time>2026-04-18T12:12:48Z</time></trkpt><trkpt lat="43.84495781336469" lon="11.57650498916502"><ele>568.0</ele><time>2026-04-18T12:12:49Z</time></trkpt><trkpt lat="43.84506012772001" lon="11.576575528316221"><ele>569.0</ele><time>2026-04-18T12:12:50Z</time></trkpt><trkpt lat="43.84516539673389" lon="11.576614714635324"><ele>570.0</ele><time>2026-04-18T12:12:51Z</time></trkpt><trkpt lat="43.84525750956647" lon="11.576643644404518"><ele>571.0</ele><time>2026-04-18T12:12:52Z</time></trkpt><trkpt lat="43.84534133178568" lon="11.576742935425564"><ele>571.0</ele><time>2026-04-18T12:12:54Z</time></trkpt><trkpt lat="43.84532278133579" lon="11.576862205478408"><ele>571.0</ele><time>2026-04-18T12:12:56Z</time></trkpt><trkpt lat="43.845311954233075" lon="11.576971448368072"><ele>571.0</ele><time>2026-04-18T12:13:11Z</time></trkpt><trkpt lat="43.84527337548048" lon="11.57711751334655"><ele>571.0</ele><time>2026-04-18T12:13:13Z</time></trkpt><trkpt lat="43.84524466466739" lon="11.577215770708921"><ele>571.0</ele><time>2026-04-18T12:13:15Z</time></trkpt><trkpt lat="43.84521330879956" lon="11.577330790068045"><ele>571.0</ele><time>2026-04-18T12:13:17Z</time></trkpt><trkpt lat="43.8451631428918" lon="11.577432681124982"><ele>573.1666666666667</ele><time>2026-04-18T12:13:19Z</time></trkpt><trkpt lat="43.84509511938468" lon="11.577512923486115"><ele>575.3333333333334</ele><time>2026-04-18T12:13:21Z</time></trkpt><trkpt lat="43.84505109891499" lon="11.577599154797015"><ele>577.5</ele><time>2026-04-18T12:13:23Z</time></trkpt><trkpt lat="43.845014479637435" lon="11.57773381305314"><ele>579.6666666666666</ele><time>2026-04-18T12:13:25Z</time></trkpt><trkpt lat="43.844966097498144" lon="11.577811290158131"><ele>581.8333333333333</ele><time>2026-04-18T12:13:26Z</time></trkpt><trkpt lat="43.844895126105364" lon="11.577884776607965"><ele>584.0</ele><time>2026-04-18T12:13:27Z</time></trkpt><trkpt lat="43.84482047650282" lon="11.577962835021458"><ele>584.0</ele><time>2026-04-18T12:13:28Z</time></trkpt><trkpt lat="43.84475562960814" lon="11.578031206049873"><ele>584.0</ele><time>2026-04-18T12:13:29Z</time></trkpt><trkpt lat="43.84468980551371" lon="11.578105090194379"><ele>584.0</ele><time>2026-04-18T12:13:30Z</time></trkpt><trkpt lat="43.844637222380584" lon="11.578168359251034"><ele>584.0</ele><time>2026-04-18T12:13:31Z</time></trkpt><trkpt lat="43.8445950673194" lon="11.578237030133096"><ele>584.0</ele><time>2026-04-18T12:13:32Z</time></trkpt><trkpt lat="43.84455716598234" lon="11.578336960914045"><ele>584.0</ele><time>2026-04-18T12:13:33Z</time></trkpt><trkpt lat="43.84451747534369" lon="11.578437738400357"><ele>584.0</ele><time>2026-04-18T12:13:34Z</time></trkpt><trkpt lat="43.844468121349905" lon="11.578527701784397"><ele>584.0</ele><time>2026-04-18T12:13:35Z</time></trkpt><trkpt lat="43.84440614726177" lon="11.578629354027461"><ele>584.0</ele><time>2026-04-18T12:13:36Z</time></trkpt><trkpt lat="43.844354687791764" lon="11.578749560960919"><ele>584.0</ele><time>2026-04-18T12:13:37Z</time></trkpt><trkpt lat="43.84431644934701" lon="11.578856023930458"><ele>584.0</ele><time>2026-04-18T12:13:38Z</time></trkpt><trkpt lat="43.84428327730523" lon="11.578967504057006"><ele>587.0</ele><time>2026-04-18T12:13:39Z</time></trkpt><trkpt lat="43.84423867645452" lon="11.579063268170328"><ele>590.0</ele><time>2026-04-18T12:13:40Z</time></trkpt><trkpt lat="43.84419937333575" lon="11.579151362787602"><ele>593.0</ele><time>2026-04-18T12:13:41Z</time></trkpt><trkpt lat="43.84416244103653" lon="11.579233870293752"><ele>596.0</ele><time>2026-04-18T12:13:42Z</time></trkpt><trkpt lat="43.844091557248476" lon="11.579287571103915"><ele>599.0</ele><time>2026-04-18T12:13:44Z</time></trkpt><trkpt lat="43.84403228852916" lon="11.579242085589907"><ele>602.0</ele><time>2026-04-18T12:13:46Z</time></trkpt><trkpt lat="43.84397238697043" lon="11.579209025515718"><ele>605.0</ele><time>2026-04-18T12:13:48Z</time></trkpt><trkpt lat="43.84390556196817" lon="11.579263473509432"><ele>605.0</ele><time>2026-04-18T12:13:51Z</time></trkpt><trkpt lat="43.8438835798249" lon="11.579347798265895"><ele>605.0</ele><time>2026-04-18T12:13:52Z</time></trkpt><trkpt lat="43.84385393516717" lon="11.579448381225575"><ele>605.0</ele><time>2026-04-18T12:13:53Z</time></trkpt><trkpt lat="43.84382951932711" lon="11.579542400076917"><ele>605.0</ele><time>2026-04-18T12:13:54Z</time></trkpt><trkpt lat="43.84378402233426" lon="11.57968593385445"><ele>605.0</ele><time>2026-04-18T12:13:56Z</time></trkpt><trkpt lat="43.843745107341164" lon="11.579842712610253"><ele>605.0</ele><time>2026-04-18T12:13:58Z</time></trkpt><trkpt lat="43.84372695381835" lon="11.579931660299849"><ele>605.3333333333333</ele><time>2026-04-18T12:13:59Z</time></trkpt><trkpt lat="43.84368824202568" lon="11.580017909622756"><ele>605.6666666666666</ele><time>2026-04-18T12:14:00Z</time></trkpt><trkpt lat="43.84367297944717" lon="11.58015054053087"><ele>606.0</ele><time>2026-04-18T12:14:01Z</time></trkpt><trkpt lat="43.84367089888281" lon="11.580277884609869"><ele>606.3333333333334</ele><time>2026-04-18T12:14:02Z</time></trkpt><trkpt lat="43.84365621291338" lon="11.58038710044134"><ele>606.6666666666667</ele><time>2026-04-18T12:14:03Z</time></trkpt><trkpt lat="43.84362381992659" lon="11.580486724885645"><ele>607.0</ele><time>2026-04-18T12:14:04Z</time></trkpt><trkpt lat="43.84357933810493" lon="11.580661005564428"><ele>607.3333333333334</ele><time>2026-04-18T12:14:06Z</time></trkpt><trkpt lat="43.84357663050503" lon="11.58076969604895"><ele>607.6666666666667</ele><time>2026-04-18T12:14:07Z</time></trkpt><trkpt lat="43.84358077188131" lon="11.580949047535372"><ele>608.0</ele><time>2026-04-18T12:14:09Z</time></trkpt><trkpt lat="43.8435794254891" lon="11.581054897553033"><ele>608.3333333333334</ele><time>2026-04-18T12:14:10Z</time></trkpt><trkpt lat="43.84356980147113" lon="11.581165496083326"><ele>608.6666666666666</ele><time>2026-04-18T12:14:11Z</time></trkpt><trkpt lat="43.84357709118336" lon="11.581261292106518"><ele>609.0</ele><time>2026-04-18T12:14:12Z</time></trkpt><trkpt lat="43.84357814376282" lon="11.581355971120209"><ele>609.1666666666666</ele><time>2026-04-18T12:14:13Z</time></trkpt><trkpt lat="43.843572529120564" lon="11.581470275133679"><ele>609.3333333333334</ele><time>2026-04-18T12:14:14Z</time></trkpt><trkpt lat="43.843569703169756" lon="11.58159594279781"><ele>609.5</ele><time>2026-04-18T12:14:15Z</time></trkpt><trkpt lat="43.84357620107635" lon="11.581719801944482"><ele>609.6666666666667</ele><time>2026-04-18T12:14:17Z</time></trkpt><trkpt lat="43.8435867058799" lon="11.581829658055748"><ele>609.8333333333334</ele><time>2026-04-18T12:14:47Z</time></trkpt><trkpt lat="43.84364623551881" lon="11.581888094258677"><ele>610.0</ele><time>2026-04-18T12:14:50Z</time></trkpt><trkpt lat="43.8437409670602" lon="11.582034458500827"><ele>609.4</ele><time>2026-04-18T12:14:53Z</time></trkpt><trkpt lat="43.84377103806476" lon="11.58218488573608"><ele>608.8</ele><time>2026-04-18T12:14:54Z</time></trkpt><trkpt lat="43.84379442403191" lon="11.582316167672275"><ele>608.2</ele><time>2026-04-18T12:14:55Z</time></trkpt><trkpt lat="43.84379562229824" lon="11.582451888087816"><ele>607.6</ele><time>2026-04-18T12:14:56Z</time></trkpt><trkpt lat="43.84375852962038" lon="11.582603077199495"><ele>607.0</ele><time>2026-04-18T12:14:58Z</time></trkpt><trkpt lat="43.84372452512635" lon="11.582691127807262"><ele>606.9999999999999</ele><time>2026-04-18T12:15:00Z</time></trkpt><trkpt lat="43.84369983682521" lon="11.58277693574204"><ele>607.0</ele><time>2026-04-18T12:15:27Z</time></trkpt><trkpt lat="43.84365992979127" lon="11.582856035065378"><ele>607.0</ele><time>2026-04-18T12:15:35Z</time></trkpt><trkpt lat="43.84362118687579" lon="11.582933998763007"><ele>607.0</ele><time>2026-04-18T12:15:42Z</time></trkpt><trkpt lat="43.84362541460665" lon="11.583025560825007"><ele>607.0</ele><time>2026-04-18T12:15:47Z</time></trkpt><trkpt lat="43.84360207948637" lon="11.58311214152373"><ele>606.9999999999999</ele><time>2026-04-18T12:15:52Z</time></trkpt><trkpt lat="43.84360506112428" lon="11.583211357118973"><ele>607.0</ele><time>2026-04-18T12:15:57Z</time></trkpt><trkpt lat="43.84360754735104" lon="11.583312872199597"><ele>606.3333333333334</ele><time>2026-04-18T12:16:02Z</time></trkpt><trkpt lat="43.843620477187535" lon="11.583409045070082"><ele>605.6666666666667</ele><time>2026-04-18T12:16:18Z</time></trkpt><trkpt lat="43.843631435316546" lon="11.58328957705011"><ele>605.0</ele><time>2026-04-18T12:17:47Z</time></trkpt><trkpt lat="43.843612447643316" lon="11.583200904152955"><ele>604.3333333333334</ele><time>2026-04-18T12:17:54Z</time></trkpt><trkpt lat="43.843595526599906" lon="11.583078392295876"><ele>603.6666666666666</ele><time>2026-04-18T12:18:14Z</time></trkpt><trkpt lat="43.84359966183443" lon="11.582980573140903"><ele>603.0</ele><time>2026-04-18T12:18:21Z</time></trkpt><trkpt lat="43.843633225685494" lon="11.582898485997596"><ele>603.0</ele><time>2026-04-18T12:18:26Z</time></trkpt><trkpt lat="43.843670892242066" lon="11.582813157942836"><ele>603.0</ele><time>2026-04-18T12:18:31Z</time></trkpt><trkpt lat="43.843704199206364" lon="11.582737914679822"><ele>603.0</ele><time>2026-04-18T12:18:36Z</time></trkpt><trkpt lat="43.84364532034293" lon="11.582841056821948"><ele>603.0</ele><time>2026-04-18T12:19:08Z</time></trkpt><trkpt lat="43.84362538585686" lon="11.58297428692524"><ele>603.0</ele><time>2026-04-18T12:19:09Z</time></trkpt><trkpt lat="43.84361088585883" lon="11.583077435256124"><ele>603.0</ele><time>2026-04-18T12:19:10Z</time></trkpt><trkpt lat="43.84360310413677" lon="11.583170871565978"><ele>603.0</ele><time>2026-04-18T12:19:11Z</time></trkpt><trkpt lat="43.843610610438816" lon="11.583324638253185"><ele>603.0</ele><time>2026-04-18T12:19:12Z</time></trkpt><trkpt lat="43.84362585399382" lon="11.58341189233024"><ele>603.0</ele><time>2026-04-18T12:19:13Z</time></trkpt><trkpt lat="43.8436357036144" lon="11.583502435913044"><ele>603.0</ele><time>2026-04-18T12:19:17Z</time></trkpt><trkpt lat="43.84364794584509" lon="11.583630724034661"><ele>603.0</ele><time>2026-04-18T12:20:34Z</time></trkpt><trkpt lat="43.84366623287901" lon="11.583753368797558"><ele>603.0</ele><time>2026-04-18T12:20:36Z</time></trkpt><trkpt lat="43.84367176057107" lon="11.583861213412328"><ele>603.1999999999999</ele><time>2026-04-18T12:20:48Z</time></trkpt><trkpt lat="43.84367382600619" lon="11.58397569473552"><ele>603.4</ele><time>2026-04-18T12:20:49Z</time></trkpt><trkpt lat="43.84368989303115" lon="11.584158557676624"><ele>603.5999999999999</ele><time>2026-04-18T12:20:49.999Z</time></trkpt><trkpt lat="43.84370424860616" lon="11.584287360992915"><ele>603.8</ele><time>2026-04-18T12:20:50.999Z</time></trkpt><trkpt lat="43.843694169676205" lon="11.584445432572315"><ele>604.0</ele><time>2026-04-18T12:20:51.999Z</time></trkpt><trkpt lat="43.84369402939949" lon="11.584593788195741"><ele>604.0</ele><time>2026-04-18T12:20:52.999Z</time></trkpt><trkpt lat="43.84369303946202" lon="11.584727251495137"><ele>604.0</ele><time>2026-04-18T12:20:54Z</time></trkpt><trkpt lat="43.8436750663247" lon="11.58483579367766"><ele>604.0</ele><time>2026-04-18T12:20:55Z</time></trkpt><trkpt lat="43.84366273425892" lon="11.584954418307715"><ele>604.0</ele><time>2026-04-18T12:20:56Z</time></trkpt><trkpt lat="43.84362701732371" lon="11.585119907390494"><ele>604.0</ele><time>2026-04-18T12:20:57Z</time></trkpt><trkpt lat="43.84360358927054" lon="11.585268298116832"><ele>606.3333333333334</ele><time>2026-04-18T12:20:58Z</time></trkpt><trkpt lat="43.84358816363372" lon="11.585397963056137"><ele>608.6666666666667</ele><time>2026-04-18T12:20:59Z</time></trkpt><trkpt lat="43.843549592103216" lon="11.585524978520382"><ele>611.0</ele><time>2026-04-18T12:21:00Z</time></trkpt><trkpt lat="43.84349981425096" lon="11.585641997679707"><ele>613.3333333333334</ele><time>2026-04-18T12:21:01Z</time></trkpt><trkpt lat="43.843474064271874" lon="11.585753723984352"><ele>615.6666666666666</ele><time>2026-04-18T12:21:02Z</time></trkpt><trkpt lat="43.84347259063697" lon="11.585843062431454"><ele>618.0</ele><time>2026-04-18T12:21:03Z</time></trkpt><trkpt lat="43.8435079474385" lon="11.585925551540239"><ele>618.0</ele><time>2026-04-18T12:21:04Z</time></trkpt><trkpt lat="43.84358037056205" lon="11.585999545082046"><ele>618.0</ele><time>2026-04-18T12:21:05Z</time></trkpt><trkpt lat="43.84364224431834" lon="11.586023285754202"><ele>618.0</ele><time>2026-04-18T12:21:06Z</time></trkpt><trkpt lat="43.843719686171625" lon="11.58600988327773"><ele>618.0</ele><time>2026-04-18T12:21:07Z</time></trkpt><trkpt lat="43.84378705198638" lon="11.585982539298357"><ele>618.0</ele><time>2026-04-18T12:21:08Z</time></trkpt><trkpt lat="43.84386762508466" lon="11.585985499143206"><ele>618.0</ele><time>2026-04-18T12:21:09Z</time></trkpt><trkpt lat="43.843953384535936" lon="11.58602036929634"><ele>618.0</ele><time>2026-04-18T12:21:10Z</time></trkpt><trkpt lat="43.84405666581953" lon="11.58605417305864"><ele>618.0</ele><time>2026-04-18T12:21:11Z</time></trkpt><trkpt lat="43.8441751002762" lon="11.586049569975042"><ele>618.0</ele><time>2026-04-18T12:21:12Z</time></trkpt><trkpt lat="43.844273750032606" lon="11.586019706234797"><ele>618.0</ele><time>2026-04-18T12:21:13Z</time></trkpt><trkpt lat="43.844390698878705" lon="11.585938477970958"><ele>623.3333333333334</ele><time>2026-04-18T12:21:14Z</time></trkpt><trkpt lat="43.84453205071245" lon="11.585865105321975"><ele>628.6666666666667</ele><time>2026-04-18T12:21:15Z</time></trkpt><trkpt lat="43.84469778622781" lon="11.585818239299254"><ele>634.0</ele><time>2026-04-18T12:21:16Z</time></trkpt><trkpt lat="43.8448369678325" lon="11.58578704904977"><ele>634.0</ele><time>2026-04-18T12:21:17Z</time></trkpt><trkpt lat="43.84491876371984" lon="11.585720922544306"><ele>634.0</ele><time>2026-04-18T12:21:18Z</time></trkpt><trkpt lat="43.844976647938395" lon="11.585613223324668"><ele>634.0</ele><time>2026-04-18T12:21:19Z</time></trkpt><trkpt lat="43.84504425624802" lon="11.585506554809784"><ele>634.0</ele><time>2026-04-18T12:21:20Z</time></trkpt><trkpt lat="43.845113172671205" lon="11.585420868945052"><ele>634.0</ele><time>2026-04-18T12:21:21Z</time></trkpt><trkpt lat="43.84517434042209" lon="11.585349033765809"><ele>634.5</ele><time>2026-04-18T12:21:22Z</time></trkpt><trkpt lat="43.845248554808016" lon="11.585358765004202"><ele>635.0</ele><time>2026-04-18T12:21:36Z</time></trkpt><trkpt lat="43.8453177777948" lon="11.585364818685717"><ele>635.5</ele><time>2026-04-18T12:21:40Z</time></trkpt><trkpt lat="43.84540122799146" lon="11.585385610337086"><ele>636.0</ele><time>2026-04-18T12:21:43Z</time></trkpt><trkpt lat="43.8454649030145" lon="11.585403564598353"><ele>636.5</ele><time>2026-04-18T12:21:47Z</time></trkpt><trkpt lat="43.845518591193894" lon="11.585511377939044"><ele>637.0</ele><time>2026-04-18T12:21:50Z</time></trkpt><trkpt lat="43.84553544087583" lon="11.585609493360742"><ele>637.0</ele><time>2026-04-18T12:22:09Z</time></trkpt><trkpt lat="43.845475498000546" lon="11.585640297504657"><ele>637.0</ele><time>2026-04-18T12:22:19Z</time></trkpt><trkpt lat="43.845495079023685" lon="11.585739206890922"><ele>637.0</ele><time>2026-04-18T12:22:29Z</time></trkpt><trkpt lat="43.84555729830671" lon="11.585763256216444"><ele>637.0</ele><time>2026-04-18T12:22:42Z</time></trkpt><trkpt lat="43.84558158230131" lon="11.585850852183004"><ele>637.0</ele><time>2026-04-18T12:22:47Z</time></trkpt><trkpt lat="43.84557372490741" lon="11.585942726922518"><ele>637.0</ele><time>2026-04-18T12:22:49Z</time></trkpt><trkpt lat="43.84556984551481" lon="11.58603685072515"><ele>637.0</ele><time>2026-04-18T12:22:50.999Z</time></trkpt><trkpt lat="43.84555883374693" lon="11.586151760570822"><ele>639.8571428571429</ele><time>2026-04-18T12:22:52.999Z</time></trkpt><trkpt lat="43.845564339018225" lon="11.586268403296424"><ele>642.7142857142858</ele><time>2026-04-18T12:22:54.999Z</time></trkpt><trkpt lat="43.84558883908638" lon="11.586357589761873"><ele>645.5714285714286</ele><time>2026-04-18T12:22:56.999Z</time></trkpt><trkpt lat="43.84564202778183" lon="11.586417051994049"><ele>648.4285714285714</ele><time>2026-04-18T12:23:00Z</time></trkpt><trkpt lat="43.84569824804871" lon="11.58646494188194"><ele>651.2857142857143</ele><time>2026-04-18T12:23:14Z</time></trkpt><trkpt lat="43.84575479814525" lon="11.586514947735544"><ele>654.1428571428571</ele><time>2026-04-18T12:23:18Z</time></trkpt><trkpt lat="43.84568143802887" lon="11.586499834814958"><ele>657.0</ele><time>2026-04-18T12:23:29Z</time></trkpt><trkpt lat="43.845624897884925" lon="11.58645398197208"><ele>657.0</ele><time>2026-04-18T12:23:33Z</time></trkpt><trkpt lat="43.84558756951798" lon="11.586370127763605"><ele>657.0</ele><time>2026-04-18T12:23:37Z</time></trkpt><trkpt lat="43.845556725983" lon="11.586281577850238"><ele>657.0</ele><time>2026-04-18T12:23:41Z</time></trkpt><trkpt lat="43.84554386152908" lon="11.586192820698777"><ele>657.0</ele><time>2026-04-18T12:23:45Z</time></trkpt><trkpt lat="43.845560350327474" lon="11.586100192729864"><ele>657.0</ele><time>2026-04-18T12:23:50Z</time></trkpt><trkpt lat="43.84556766719093" lon="11.585995314628377"><ele>657.0</ele><time>2026-04-18T12:23:55Z</time></trkpt><trkpt lat="43.84556825362945" lon="11.585881555259753"><ele>657.0</ele><time>2026-04-18T12:24:00Z</time></trkpt><trkpt lat="43.845589635457515" lon="11.585792861779417"><ele>654.1428571428571</ele><time>2026-04-18T12:24:04Z</time></trkpt><trkpt lat="43.84556858386599" lon="11.58569808921315"><ele>651.2857142857143</ele><time>2026-04-18T12:24:08Z</time></trkpt><trkpt lat="43.84557840264792" lon="11.585609101243401"><ele>648.4285714285714</ele><time>2026-04-18T12:24:15Z</time></trkpt><trkpt lat="43.8455584441993" lon="11.585509615766915"><ele>645.5714285714286</ele><time>2026-04-18T12:24:25Z</time></trkpt><trkpt lat="43.845558488932156" lon="11.58559960511806"><ele>642.7142857142858</ele><time>2026-04-18T12:25:37Z</time></trkpt><trkpt lat="43.845588221230706" lon="11.585695923027364"><ele>639.8571428571429</ele><time>2026-04-18T12:25:50Z</time></trkpt><trkpt lat="43.84557607699581" lon="11.585798655881538"><ele>637.0</ele><time>2026-04-18T12:25:54Z</time></trkpt><trkpt lat="43.84557834141182" lon="11.585887970551068"><ele>637.0</ele><time>2026-04-18T12:25:58Z</time></trkpt><trkpt lat="43.845566683315674" lon="11.58597707528734"><ele>637.0</ele><time>2026-04-18T12:26:04Z</time></trkpt><trkpt lat="43.84557753383166" lon="11.586065460597032"><ele>637.0</ele><time>2026-04-18T12:26:31Z</time></trkpt><trkpt lat="43.84560683815775" lon="11.58616296507769"><ele>637.0</ele><time>2026-04-18T12:26:53.999Z</time></trkpt><trkpt lat="43.84558679270096" lon="11.586246797761484"><ele>637.0</ele><time>2026-04-18T12:27:15Z</time></trkpt><trkpt lat="43.845616251926046" lon="11.586326091771047"><ele>637.0</ele><time>2026-04-18T12:27:22Z</time></trkpt><trkpt lat="43.84565039371081" lon="11.586404082338886"><ele>637.0</ele><time>2026-04-18T12:27:27Z</time></trkpt><trkpt lat="43.845705580508486" lon="11.586466239232275"><ele>640.3333333333334</ele><time>2026-04-18T12:27:33Z</time></trkpt><trkpt lat="43.84578518790744" lon="11.586470539634785"><ele>643.6666666666667</ele><time>2026-04-18T12:29:07.999Z</time></trkpt><trkpt lat="43.8458384070356" lon="11.586519733650341"><ele>647.0</ele><time>2026-04-18T12:29:09.999Z</time></trkpt><trkpt lat="43.84592252815406" lon="11.586565541985113"><ele>650.3333333333334</ele><time>2026-04-18T12:29:12.999Z</time></trkpt><trkpt lat="43.845994311109564" lon="11.586539274185528"><ele>653.6666666666666</ele><time>2026-04-18T12:29:15.999Z</time></trkpt><trkpt lat="43.8460694548155" lon="11.586547642973589"><ele>657.0</ele><time>2026-04-18T12:29:18Z</time></trkpt><trkpt lat="43.84615545948778" lon="11.586548289764401"><ele>657.4000000000001</ele><time>2026-04-18T12:29:20Z</time></trkpt><trkpt lat="43.846242929188506" lon="11.586552357184333"><ele>657.8000000000001</ele><time>2026-04-18T12:29:22Z</time></trkpt><trkpt lat="43.846336045756644" lon="11.586535920798408"><ele>658.2</ele><time>2026-04-18T12:29:25Z</time></trkpt><trkpt lat="43.84642391584416" lon="11.586551933449662"><ele>658.6</ele><time>2026-04-18T12:29:27Z</time></trkpt><trkpt lat="43.846509622636376" lon="11.58660357465655"><ele>659.0</ele><time>2026-04-18T12:29:30Z</time></trkpt><trkpt lat="43.846602307897136" lon="11.58663876015256"><ele>659.0</ele><time>2026-04-18T12:29:32Z</time></trkpt><trkpt lat="43.84667515614726" lon="11.586663256591407"><ele>659.0</ele><time>2026-04-18T12:29:34Z</time></trkpt><trkpt lat="43.846741719004996" lon="11.586670287088754"><ele>659.0</ele><time>2026-04-18T12:29:36Z</time></trkpt><trkpt lat="43.84681890694147" lon="11.586681551438327"><ele>659.0</ele><time>2026-04-18T12:29:38Z</time></trkpt><trkpt lat="43.84690597191584" lon="11.586590309481053"><ele>659.0</ele><time>2026-04-18T12:29:41Z</time></trkpt><trkpt lat="43.84695522229864" lon="11.586494357320014"><ele>659.0</ele><time>2026-04-18T12:29:43Z</time></trkpt><trkpt lat="43.847032254921864" lon="11.586490508484706"><ele>657.8333333333333</ele><time>2026-04-18T12:29:45Z</time></trkpt><trkpt lat="43.84709692232695" lon="11.58653842028718"><ele>656.6666666666666</ele><time>2026-04-18T12:29:47Z</time></trkpt><trkpt lat="43.847102713709845" lon="11.586649910319094"><ele>655.5</ele><time>2026-04-18T12:29:50Z</time></trkpt><trkpt lat="43.847134740626636" lon="11.586784059983136"><ele>654.3333333333334</ele><time>2026-04-18T12:29:58Z</time></trkpt><trkpt lat="43.84712851579265" lon="11.586900151260853"><ele>653.1666666666667</ele><time>2026-04-18T12:30:00Z</time></trkpt><trkpt lat="43.847093608543204" lon="11.58700287139011"><ele>652.0</ele><time>2026-04-18T12:30:02Z</time></trkpt><trkpt lat="43.84705364436239" lon="11.58709264085389"><ele>651.8571428571429</ele><time>2026-04-18T12:30:03Z</time></trkpt><trkpt lat="43.847047980083445" lon="11.58718937825057"><ele>651.7142857142857</ele><time>2026-04-18T12:30:19.999Z</time></trkpt><trkpt lat="43.84706047448316" lon="11.587277004374032"><ele>651.5714285714286</ele><time>2026-04-18T12:30:23.999Z</time></trkpt><trkpt lat="43.846988834630665" lon="11.587277409328005"><ele>651.4285714285714</ele><time>2026-04-18T12:30:32.999Z</time></trkpt><trkpt lat="43.84689906253985" lon="11.587323497924395"><ele>651.2857142857142</ele><time>2026-04-18T12:30:35.999Z</time></trkpt><trkpt lat="43.846841351264324" lon="11.58736607696662"><ele>651.1428571428571</ele><time>2026-04-18T12:30:37.999Z</time></trkpt><trkpt lat="43.846808172874375" lon="11.587461124911762"><ele>651.0</ele><time>2026-04-18T12:30:40.999Z</time></trkpt><trkpt lat="43.84678569454366" lon="11.587576427853236"><ele>654.8333333333334</ele><time>2026-04-18T12:30:42.999Z</time></trkpt><trkpt lat="43.84674075827988" lon="11.58763943659526"><ele>658.6666666666666</ele><time>2026-04-18T12:30:46.999Z</time></trkpt><trkpt lat="43.84669252965582" lon="11.587748321376912"><ele>662.5</ele><time>2026-04-18T12:31:02.999Z</time></trkpt><trkpt lat="43.84664537890406" lon="11.587832550026592"><ele>666.3333333333333</ele><time>2026-04-18T12:31:04.999Z</time></trkpt><trkpt lat="43.84659266178503" lon="11.5879478994158"><ele>670.1666666666666</ele><time>2026-04-18T12:31:07.999Z</time></trkpt><trkpt lat="43.84661546828208" lon="11.588039383379805"><ele>674.0</ele><time>2026-04-18T12:31:10.999Z</time></trkpt><trkpt lat="43.846698743659765" lon="11.588090846837725"><ele>676.6</ele><time>2026-04-18T12:31:12.999Z</time></trkpt><trkpt lat="43.846751068508716" lon="11.588188223197232"><ele>679.2</ele><time>2026-04-18T12:31:14.999Z</time></trkpt><trkpt lat="43.846796671520245" lon="11.588290729485141"><ele>681.8000000000001</ele><time>2026-04-18T12:31:16.999Z</time></trkpt><trkpt lat="43.846850222218656" lon="11.588384633294686"><ele>684.4000000000001</ele><time>2026-04-18T12:31:49Z</time></trkpt><trkpt lat="43.84693270069967" lon="11.588456897182642"><ele>687.0</ele><time>2026-04-18T12:31:51Z</time></trkpt><trkpt lat="43.846983771429215" lon="11.588595332137865"><ele>683.3333333333334</ele><time>2026-04-18T12:31:53Z</time></trkpt><trkpt lat="43.84701596801946" lon="11.588699366931065"><ele>679.6666666666666</ele><time>2026-04-18T12:31:54Z</time></trkpt><trkpt lat="43.847047526487984" lon="11.58879469381772"><ele>676.0</ele><time>2026-04-18T12:31:55Z</time></trkpt><trkpt lat="43.847011800502074" lon="11.588866625242016"><ele>672.3333333333333</ele><time>2026-04-18T12:31:58Z</time></trkpt><trkpt lat="43.846949959729386" lon="11.588894698729034"><ele>668.6666666666666</ele><time>2026-04-18T12:31:59Z</time></trkpt><trkpt lat="43.84686429938301" lon="11.588941363268372"><ele>665.0</ele><time>2026-04-18T12:32:01Z</time></trkpt><trkpt lat="43.84681122974896" lon="11.589026831999027"><ele>670.3333333333333</ele><time>2026-04-18T12:32:09Z</time></trkpt><trkpt lat="43.846776444624425" lon="11.589123202798906"><ele>675.6666666666666</ele><time>2026-04-18T12:32:22.999Z</time></trkpt><trkpt lat="43.84671051095143" lon="11.589136155289355"><ele>681.0</ele><time>2026-04-18T12:33:08.999Z</time></trkpt><trkpt lat="43.84666805512366" lon="11.589225026020122"><ele>686.3333333333334</ele><time>2026-04-18T12:33:12.999Z</time></trkpt><trkpt lat="43.8466016427329" lon="11.589261682774085"><ele>691.6666666666667</ele><time>2026-04-18T12:33:14.999Z</time></trkpt><trkpt lat="43.846675742427976" lon="11.58918664930124"><ele>697.0</ele><time>2026-04-18T12:33:44Z</time></trkpt><trkpt lat="43.846722514711885" lon="11.589099117117264"><ele>697.0</ele><time>2026-04-18T12:33:48Z</time></trkpt><trkpt lat="43.846805637679836" lon="11.589089687359095"><ele>697.0</ele><time>2026-04-18T12:34:19Z</time></trkpt><trkpt lat="43.84673454358746" lon="11.589123996208944"><ele>697.0</ele><time>2026-04-18T12:34:43.999Z</time></trkpt><trkpt lat="43.84669543685826" lon="11.589202515025553"><ele>697.0</ele><time>2026-04-18T12:34:45.999Z</time></trkpt><trkpt lat="43.84662826965216" lon="11.589289146355885"><ele>697.0</ele><time>2026-04-18T12:34:47.999Z</time></trkpt><trkpt lat="43.84667146500887" lon="11.589215856962642"><ele>697.0</ele><time>2026-04-18T12:35:09.999Z</time></trkpt><trkpt lat="43.846734398751614" lon="11.589164919794442"><ele>697.0</ele><time>2026-04-18T12:35:11.999Z</time></trkpt><trkpt lat="43.84676994562747" lon="11.589082235918646"><ele>697.0</ele><time>2026-04-18T12:35:26.999Z</time></trkpt><trkpt lat="43.846666791734506" lon="11.589250830844389"><ele>697.0</ele><time>2026-04-18T12:37:04.999Z</time></trkpt><trkpt lat="43.84660894803615" lon="11.589287647724726"><ele>697.0</ele><time>2026-04-18T12:37:23.999Z</time></trkpt><trkpt lat="43.84653533232229" lon="11.589361164895207"><ele>697.0</ele><time>2026-04-18T12:37:32.999Z</time></trkpt><trkpt lat="43.846454812274764" lon="11.589437714463596"><ele>697.0</ele><time>2026-04-18T12:37:34.999Z</time></trkpt><trkpt lat="43.84633555784721" lon="11.589410958795291"><ele>697.0</ele><time>2026-04-18T12:37:37.999Z</time></trkpt><trkpt lat="43.846275325254005" lon="11.589377541470329"><ele>697.0</ele><time>2026-04-18T12:37:38.999Z</time></trkpt><trkpt lat="43.84618382121018" lon="11.589335099380431"><ele>697.0</ele><time>2026-04-18T12:37:41Z</time></trkpt><trkpt lat="43.846121768891514" lon="11.589256876655687"><ele>697.0</ele><time>2026-04-18T12:37:43Z</time></trkpt><trkpt lat="43.84604574956222" lon="11.589251971231302"><ele>697.0</ele><time>2026-04-18T12:37:45Z</time></trkpt><trkpt lat="43.84598248458983" lon="11.58930698905971"><ele>699.3333333333334</ele><time>2026-04-18T12:37:46.999Z</time></trkpt><trkpt lat="43.84591925549759" lon="11.589371071924479"><ele>701.6666666666667</ele><time>2026-04-18T12:37:48.999Z</time></trkpt><trkpt lat="43.84582823423878" lon="11.589421086368283"><ele>704.0</ele><time>2026-04-18T12:37:50.999Z</time></trkpt><trkpt lat="43.84576645487565" lon="11.589443645864847"><ele>706.3333333333334</ele><time>2026-04-18T12:37:51.999Z</time></trkpt><trkpt lat="43.845689260403844" lon="11.589476878260884"><ele>708.6666666666666</ele><time>2026-04-18T12:37:52.999Z</time></trkpt><trkpt lat="43.84560295226416" lon="11.589530440911094"><ele>711.0</ele><time>2026-04-18T12:37:54.999Z</time></trkpt><trkpt lat="43.84556472722172" lon="11.589609950688379"><ele>712.0</ele><time>2026-04-18T12:37:56.999Z</time></trkpt><trkpt lat="43.84551043219429" lon="11.589682809834699"><ele>713.0</ele><time>2026-04-18T12:37:58.999Z</time></trkpt><trkpt lat="43.845442935689114" lon="11.58980281010737"><ele>714.0</ele><time>2026-04-18T12:39:11.999Z</time></trkpt><trkpt lat="43.845349189037" lon="11.58985043530456"><ele>715.0</ele><time>2026-04-18T12:39:13.999Z</time></trkpt><trkpt lat="43.845281101986" lon="11.589891761527067"><ele>716.0</ele><time>2026-04-18T12:39:14.999Z</time></trkpt><trkpt lat="43.84517695411688" lon="11.58997943663549"><ele>717.0</ele><time>2026-04-18T12:39:15.999Z</time></trkpt><trkpt lat="43.845083067079685" lon="11.590104753912613"><ele>718.0</ele><time>2026-04-18T12:39:16.999Z</time></trkpt><trkpt lat="43.845030946877664" lon="11.590239801484746"><ele>719.0</ele><time>2026-04-18T12:39:17.999Z</time></trkpt><trkpt lat="43.84500599399171" lon="11.59042673038531"><ele>720.0</ele><time>2026-04-18T12:39:18.999Z</time></trkpt><trkpt lat="43.84498365508226" lon="11.590642075580954"><ele>723.0</ele><time>2026-04-18T12:39:19.999Z</time></trkpt><trkpt lat="43.844975004693325" lon="11.590880283368858"><ele>726.0</ele><time>2026-04-18T12:39:20.999Z</time></trkpt><trkpt lat="43.84497506387798" lon="11.591121002693619"><ele>729.0</ele><time>2026-04-18T12:39:21.999Z</time></trkpt><trkpt lat="43.84497075217188" lon="11.591293995513952"><ele>730.0</ele><time>2026-04-18T12:39:22.999Z</time></trkpt><trkpt lat="43.84499613804519" lon="11.591396747444637"><ele>731.0</ele><time>2026-04-18T12:39:23.999Z</time></trkpt><trkpt lat="43.84507182002062" lon="11.591500607457581"><ele>732.0</ele><time>2026-04-18T12:39:25.999Z</time></trkpt><trkpt lat="43.84507397267502" lon="11.59162196870821"><ele>733.0</ele><time>2026-04-18T12:39:27.999Z</time></trkpt><trkpt lat="43.84505046548029" lon="11.591703512955661"><ele>734.0</ele><time>2026-04-18T12:40:00.999Z</time></trkpt><trkpt lat="43.84497581867057" lon="11.591728479729353"><ele>735.0</ele><time>2026-04-18T12:40:01.999Z</time></trkpt><trkpt lat="43.84488055803327" lon="11.591728074268882"><ele>735.0</ele><time>2026-04-18T12:40:02.999Z</time></trkpt><trkpt lat="43.844782137057614" lon="11.591717842883533"><ele>735.0</ele><time>2026-04-18T12:40:03.999Z</time></trkpt><trkpt lat="43.84467362464045" lon="11.591710457971647"><ele>735.0</ele><time>2026-04-18T12:40:04.999Z</time></trkpt><trkpt lat="43.84455392481918" lon="11.59171657279652"><ele>735.0</ele><time>2026-04-18T12:40:05.999Z</time></trkpt><trkpt lat="43.84442226299382" lon="11.591705586912765"><ele>735.0</ele><time>2026-04-18T12:40:06.999Z</time></trkpt><trkpt lat="43.84436058009677" lon="11.591678573696093"><ele>735.0</ele><time>2026-04-18T12:40:07.999Z</time></trkpt><trkpt lat="43.844314680598195" lon="11.591524364643318"><ele>735.0</ele><time>2026-04-18T12:40:09.999Z</time></trkpt><trkpt lat="43.84429045025648" lon="11.591433540031263"><ele>735.0</ele><time>2026-04-18T12:40:10.999Z</time></trkpt><trkpt lat="43.84424400201122" lon="11.591354563357644"><ele>735.0</ele><time>2026-04-18T12:40:11.999Z</time></trkpt><trkpt lat="43.8441553523321" lon="11.591299628899149"><ele>735.0</ele><time>2026-04-18T12:40:12.999Z</time></trkpt><trkpt lat="43.84404053516461" lon="11.59128447413688"><ele>735.2</ele><time>2026-04-18T12:40:14Z</time></trkpt><trkpt lat="43.84392654916873" lon="11.591257243222692"><ele>735.4</ele><time>2026-04-18T12:40:15Z</time></trkpt><trkpt lat="43.84381679424776" lon="11.591169143649863"><ele>735.5999999999999</ele><time>2026-04-18T12:40:16Z</time></trkpt><trkpt lat="43.84373847807391" lon="11.591146268157196"><ele>735.8</ele><time>2026-04-18T12:40:17Z</time></trkpt><trkpt lat="43.84364768100755" lon="11.591117306323033"><ele>736.0</ele><time>2026-04-18T12:40:19Z</time></trkpt><trkpt lat="43.84357582087468" lon="11.591058830365748"><ele>736.0</ele><time>2026-04-18T12:40:21Z</time></trkpt><trkpt lat="43.84348369562501" lon="11.59110253688336"><ele>736.0</ele><time>2026-04-18T12:40:23Z</time></trkpt><trkpt lat="43.843470635646256" lon="11.591190212791313"><ele>736.0</ele><time>2026-04-18T12:40:24Z</time></trkpt><trkpt lat="43.84349801495837" lon="11.591275235516747"><ele>736.0</ele><time>2026-04-18T12:40:25Z</time></trkpt><trkpt lat="43.843542321037866" lon="11.591383226491017"><ele>736.0</ele><time>2026-04-18T12:40:26Z</time></trkpt><trkpt lat="43.843557078623974" lon="11.591511576903587"><ele>736.0</ele><time>2026-04-18T12:40:27Z</time></trkpt><trkpt lat="43.8435161388866" lon="11.591691342200715"><ele>739.0</ele><time>2026-04-18T12:40:29Z</time></trkpt><trkpt lat="43.84347955711436" lon="11.591791638071093"><ele>742.0</ele><time>2026-04-18T12:40:30Z</time></trkpt><trkpt lat="43.84338649595324" lon="11.591897124396729"><ele>745.0</ele><time>2026-04-18T12:40:32Z</time></trkpt><trkpt lat="43.84333349194483" lon="11.59197264247542"><ele>748.0</ele><time>2026-04-18T12:40:33Z</time></trkpt><trkpt lat="43.84324635800956" lon="11.592043288309616"><ele>751.0</ele><time>2026-04-18T12:40:34Z</time></trkpt><trkpt lat="43.84316027556011" lon="11.592130357119796"><ele>752.4</ele><time>2026-04-18T12:40:35Z</time></trkpt><trkpt lat="43.84309702076104" lon="11.592228876212294"><ele>753.8</ele><time>2026-04-18T12:40:36Z</time></trkpt><trkpt lat="43.84304498866883" lon="11.592344021486369"><ele>755.1999999999999</ele><time>2026-04-18T12:40:37Z</time></trkpt><trkpt lat="43.84299828882513" lon="11.592485081719161"><ele>756.5999999999999</ele><time>2026-04-18T12:40:38Z</time></trkpt><trkpt lat="43.84294230309414" lon="11.592604543358151"><ele>758.0</ele><time>2026-04-18T12:40:39Z</time></trkpt><trkpt lat="43.84287618908042" lon="11.592724974881488"><ele>759.5999999999999</ele><time>2026-04-18T12:40:40Z</time></trkpt><trkpt lat="43.84280627278262" lon="11.592852491981379"><ele>761.1999999999999</ele><time>2026-04-18T12:40:41Z</time></trkpt><trkpt lat="43.84273651413022" lon="11.592980717684306"><ele>762.8</ele><time>2026-04-18T12:40:42Z</time></trkpt><trkpt lat="43.8426762817713" lon="11.593067753521364"><ele>764.4</ele><time>2026-04-18T12:40:43Z</time></trkpt><trkpt lat="43.84264045480117" lon="11.593143132985835"><ele>766.0</ele><time>2026-04-18T12:40:44Z</time></trkpt><trkpt lat="43.84261655888475" lon="11.593267831529637"><ele>766.1999999999999</ele><time>2026-04-18T12:40:45Z</time></trkpt><trkpt lat="43.842599256276934" lon="11.593406579658136"><ele>766.4</ele><time>2026-04-18T12:40:46Z</time></trkpt><trkpt lat="43.84257561773519" lon="11.593544566463356"><ele>766.6</ele><time>2026-04-18T12:40:47Z</time></trkpt><trkpt lat="43.84256086482408" lon="11.59369641524457"><ele>766.8</ele><time>2026-04-18T12:40:48Z</time></trkpt><trkpt lat="43.84254785688087" lon="11.593854370078954"><ele>767.0</ele><time>2026-04-18T12:40:49Z</time></trkpt><trkpt lat="43.84252286375255" lon="11.59402647401101"><ele>769.8</ele><time>2026-04-18T12:40:50Z</time></trkpt><trkpt lat="43.84248707428795" lon="11.59418972963235"><ele>772.6</ele><time>2026-04-18T12:40:51Z</time></trkpt><trkpt lat="43.842455212711286" lon="11.594340233432085"><ele>775.4</ele><time>2026-04-18T12:40:52Z</time></trkpt><trkpt lat="43.84243599938683" lon="11.594479846654345"><ele>778.1999999999999</ele><time>2026-04-18T12:40:53Z</time></trkpt><trkpt lat="43.842438104233366" lon="11.594611464180277"><ele>781.0</ele><time>2026-04-18T12:40:54Z</time></trkpt><trkpt lat="43.84245216573191" lon="11.594749524166321"><ele>783.1999999999999</ele><time>2026-04-18T12:40:55Z</time></trkpt><trkpt lat="43.842436403742326" lon="11.594873829342598"><ele>785.4</ele><time>2026-04-18T12:40:56Z</time></trkpt><trkpt lat="43.84240598750797" lon="11.595006900057832"><ele>787.6</ele><time>2026-04-18T12:40:57Z</time></trkpt><trkpt lat="43.84236329609469" lon="11.5951242866646"><ele>789.8</ele><time>2026-04-18T12:40:58Z</time></trkpt><trkpt lat="43.842303107325975" lon="11.595221223059648"><ele>792.0</ele><time>2026-04-18T12:40:59Z</time></trkpt><trkpt lat="43.84222197890722" lon="11.595297187595886"><ele>793.4000000000001</ele><time>2026-04-18T12:41:00Z</time></trkpt><trkpt lat="43.84215159153215" lon="11.595386312065314"><ele>794.8000000000001</ele><time>2026-04-18T12:41:01Z</time></trkpt><trkpt lat="43.842165757359055" lon="11.595546158995576"><ele>796.2</ele><time>2026-04-18T12:41:03Z</time></trkpt><trkpt lat="43.84222911075259" lon="11.59562816444146"><ele>797.6</ele><time>2026-04-18T12:41:05Z</time></trkpt><trkpt lat="43.84233029506089" lon="11.595676479485203"><ele>799.0</ele><time>2026-04-18T12:41:27Z</time></trkpt><trkpt lat="43.84241492985762" lon="11.595755324261392"><ele>799.0</ele><time>2026-04-18T12:41:29Z</time></trkpt><trkpt lat="43.842448476997276" lon="11.595951937151266"><ele>799.0</ele><time>2026-04-18T12:41:31Z</time></trkpt><trkpt lat="43.842467826176915" lon="11.59606841127345"><ele>799.0</ele><time>2026-04-18T12:41:32Z</time></trkpt><trkpt lat="43.842500417219895" lon="11.596175885397539"><ele>799.0</ele><time>2026-04-18T12:41:33Z</time></trkpt><trkpt lat="43.84254061893988" lon="11.596271667809829"><ele>799.0</ele><time>2026-04-18T12:41:34Z</time></trkpt><trkpt lat="43.842589085048196" lon="11.596367341341912"><ele>796.0</ele><time>2026-04-18T12:41:35Z</time></trkpt><trkpt lat="43.84263512214328" lon="11.596460687594227"><ele>793.0</ele><time>2026-04-18T12:41:36Z</time></trkpt><trkpt lat="43.842670107125386" lon="11.59655317977272"><ele>790.0</ele><time>2026-04-18T12:41:37Z</time></trkpt><trkpt lat="43.84270217685044" lon="11.596662437744286"><ele>787.0</ele><time>2026-04-18T12:41:38Z</time></trkpt><trkpt lat="43.84274174739013" lon="11.596810923341254"><ele>784.0</ele><time>2026-04-18T12:41:39Z</time></trkpt><trkpt lat="43.84278137105632" lon="11.596938165118374"><ele>784.4000000000001</ele><time>2026-04-18T12:41:40Z</time></trkpt><trkpt lat="43.842801946373754" lon="11.597124816362292"><ele>784.8</ele><time>2026-04-18T12:41:42Z</time></trkpt><trkpt lat="43.842787524792236" lon="11.59724302050202"><ele>785.2</ele><time>2026-04-18T12:41:43Z</time></trkpt><trkpt lat="43.8427610889499" lon="11.59736991747353"><ele>785.5999999999999</ele><time>2026-04-18T12:41:44Z</time></trkpt><trkpt lat="43.84273248912871" lon="11.597486712474788"><ele>786.0</ele><time>2026-04-18T12:41:45Z</time></trkpt><trkpt lat="43.842687727654734" lon="11.597607339534028"><ele>786.0</ele><time>2026-04-18T12:41:46Z</time></trkpt><trkpt lat="43.842634401867265" lon="11.59773874264259"><ele>786.0</ele><time>2026-04-18T12:41:47Z</time></trkpt><trkpt lat="43.842573260315596" lon="11.597861515633392"><ele>786.0</ele><time>2026-04-18T12:41:48Z</time></trkpt><trkpt lat="43.84251151895372" lon="11.597964877823697"><ele>786.0</ele><time>2026-04-18T12:41:49Z</time></trkpt><trkpt lat="43.84245305504548" lon="11.598067610707083"><ele>786.0</ele><time>2026-04-18T12:41:50Z</time></trkpt><trkpt lat="43.842407781362404" lon="11.598185289024823"><ele>792.1999999999999</ele><time>2026-04-18T12:41:51Z</time></trkpt><trkpt lat="43.842369550305406" lon="11.598299296448047"><ele>798.4</ele><time>2026-04-18T12:41:52Z</time></trkpt><trkpt lat="43.84232682528199" lon="11.598381363028556"><ele>804.6</ele><time>2026-04-18T12:41:53Z</time></trkpt><trkpt lat="43.84223094775333" lon="11.598394471762349"><ele>810.8</ele><time>2026-04-18T12:41:56Z</time></trkpt><trkpt lat="43.84215327901412" lon="11.598283380915046"><ele>817.0</ele><time>2026-04-18T12:41:58Z</time></trkpt><trkpt lat="43.84207080219723" lon="11.598216731760814"><ele>816.9999999999999</ele><time>2026-04-18T12:42:00Z</time></trkpt><trkpt lat="43.84200752298953" lon="11.598220758116629"><ele>817.0</ele><time>2026-04-18T12:42:02Z</time></trkpt><trkpt lat="43.84196233364622" lon="11.598389781337916"><ele>817.0</ele><time>2026-04-18T12:42:04Z</time></trkpt><trkpt lat="43.841930362916166" lon="11.598484594804878"><ele>817.0</ele><time>2026-04-18T12:42:05Z</time></trkpt><trkpt lat="43.84189494654147" lon="11.598590248801209"><ele>816.9999999999999</ele><time>2026-04-18T12:42:06Z</time></trkpt><trkpt lat="43.84186029918631" lon="11.598688108957235"><ele>817.0</ele><time>2026-04-18T12:42:07Z</time></trkpt><trkpt lat="43.84182799035668" lon="11.598787312157526"><ele>821.3333333333333</ele><time>2026-04-18T12:42:08Z</time></trkpt><trkpt lat="43.84179417615766" lon="11.598880212321347"><ele>825.6666666666666</ele><time>2026-04-18T12:42:09Z</time></trkpt><trkpt lat="43.84174933368107" lon="11.59897159139218"><ele>830.0</ele><time>2026-04-18T12:42:10Z</time></trkpt><trkpt lat="43.84170457370691" lon="11.599050575022101"><ele>834.3333333333333</ele><time>2026-04-18T12:42:11Z</time></trkpt><trkpt lat="43.84165354172465" lon="11.599146127085188"><ele>838.6666666666666</ele><time>2026-04-18T12:42:12Z</time></trkpt><trkpt lat="43.84163050542053" lon="11.599233061225346"><ele>843.0</ele><time>2026-04-18T12:42:13Z</time></trkpt><trkpt lat="43.84161708644566" lon="11.599328394268413"><ele>843.0</ele><time>2026-04-18T12:42:14Z</time></trkpt><trkpt lat="43.841612138156094" lon="11.599435615857786"><ele>843.0</ele><time>2026-04-18T12:42:15Z</time></trkpt><trkpt lat="43.84161741870875" lon="11.599563322232079"><ele>843.0</ele><time>2026-04-18T12:42:16Z</time></trkpt><trkpt lat="43.84161022396746" lon="11.59966351003106"><ele>843.0</ele><time>2026-04-18T12:42:17Z</time></trkpt><trkpt lat="43.841597367089015" lon="11.599761593581743"><ele>843.0</ele><time>2026-04-18T12:42:18Z</time></trkpt><trkpt lat="43.84157028052694" lon="11.599847022337476"><ele>843.0</ele><time>2026-04-18T12:42:19Z</time></trkpt><trkpt lat="43.84152366024284" lon="11.599935858296016"><ele>844.7142857142857</ele><time>2026-04-18T12:42:20Z</time></trkpt><trkpt lat="43.841457916291866" lon="11.60000293997338"><ele>846.4285714285713</ele><time>2026-04-18T12:42:22Z</time></trkpt><trkpt lat="43.84142655975241" lon="11.60009041935602"><ele>848.1428571428571</ele><time>2026-04-18T12:42:49Z</time></trkpt><trkpt lat="43.84138960925569" lon="11.600164776735106"><ele>849.8571428571429</ele><time>2026-04-18T12:42:50Z</time></trkpt><trkpt lat="43.84135679468967" lon="11.600260343684774"><ele>851.5714285714286</ele><time>2026-04-18T12:42:51Z</time></trkpt><trkpt lat="43.8413040847894" lon="11.600347837477962"><ele>853.2857142857143</ele><time>2026-04-18T12:42:52Z</time></trkpt><trkpt lat="43.84124896889383" lon="11.600409190623374"><ele>855.0</ele><time>2026-04-18T12:42:53Z</time></trkpt><trkpt lat="43.841188270528555" lon="11.600457666765188"><ele>856.5</ele><time>2026-04-18T12:42:54Z</time></trkpt><trkpt lat="43.84112490216144" lon="11.600485736638813"><ele>858.0</ele><time>2026-04-18T12:42:55Z</time></trkpt><trkpt lat="43.84105788175034" lon="11.60048285061312"><ele>859.5</ele><time>2026-04-18T12:42:56Z</time></trkpt><trkpt lat="43.84098239801556" lon="11.60045826474892"><ele>861.0</ele><time>2026-04-18T12:42:57Z</time></trkpt><trkpt lat="43.84089947548353" lon="11.600413645730347"><ele>862.5</ele><time>2026-04-18T12:42:58Z</time></trkpt><trkpt lat="43.84080960387081" lon="11.600372531323512"><ele>864.0</ele><time>2026-04-18T12:42:59Z</time></trkpt><trkpt lat="43.84072412566543" lon="11.600358283950143"><ele>868.0</ele><time>2026-04-18T12:43:00Z</time></trkpt><trkpt lat="43.840646020975946" lon="11.600370511784877"><ele>872.0000000000001</ele><time>2026-04-18T12:43:01Z</time></trkpt><trkpt lat="43.84055554348488" lon="11.600393777671018"><ele>876.0000000000001</ele><time>2026-04-18T12:43:02Z</time></trkpt><trkpt lat="43.84045835568749" lon="11.600417526761817"><ele>880.0</ele><time>2026-04-18T12:43:03Z</time></trkpt><trkpt lat="43.84035677607849" lon="11.600421610245311"><ele>884.0</ele><time>2026-04-18T12:43:04Z</time></trkpt><trkpt lat="43.8402748933746" lon="11.600391638668148"><ele>884.0</ele><time>2026-04-18T12:43:05Z</time></trkpt><trkpt lat="43.840189588397486" lon="11.600369783321101"><ele>884.0000000000001</ele><time>2026-04-18T12:43:06Z</time></trkpt><trkpt lat="43.84009697836622" lon="11.600395420923142"><ele>884.0000000000001</ele><time>2026-04-18T12:43:07Z</time></trkpt><trkpt lat="43.84000265223726" lon="11.600421543659749"><ele>884.0</ele><time>2026-04-18T12:43:08Z</time></trkpt><trkpt lat="43.83990663897288" lon="11.60046083884008"><ele>884.0</ele><time>2026-04-18T12:43:09Z</time></trkpt><trkpt lat="43.839830036455474" lon="11.600494773914585"><ele>886.1666666666667</ele><time>2026-04-18T12:43:10Z</time></trkpt><trkpt lat="43.83976934642669" lon="11.60053732017426"><ele>888.3333333333334</ele><time>2026-04-18T12:43:11Z</time></trkpt><trkpt lat="43.839706665254056" lon="11.600672252994077"><ele>890.5</ele><time>2026-04-18T12:43:13Z</time></trkpt><trkpt lat="43.83969704027151" lon="11.600776852801815"><ele>892.6666666666667</ele><time>2026-04-18T12:43:14Z</time></trkpt><trkpt lat="43.83970307195183" lon="11.60087712448391"><ele>894.8333333333334</ele><time>2026-04-18T12:43:15Z</time></trkpt><trkpt lat="43.83971222446331" lon="11.601004655635613"><ele>897.0</ele><time>2026-04-18T12:43:17Z</time></trkpt><trkpt lat="43.83983267215205" lon="11.60109593613821"><ele>897.0</ele><time>2026-04-18T12:43:19Z</time></trkpt><trkpt lat="43.83991339107258" lon="11.601141664828454"><ele>897.0</ele><time>2026-04-18T12:43:20Z</time></trkpt><trkpt lat="43.839984596620134" lon="11.60120070722058"><ele>897.0</ele><time>2026-04-18T12:43:21Z</time></trkpt><trkpt lat="43.84004689675209" lon="11.601262197921116"><ele>897.0</ele><time>2026-04-18T12:43:22Z</time></trkpt><trkpt lat="43.840118963961295" lon="11.601342854773938"><ele>897.0</ele><time>2026-04-18T12:43:23Z</time></trkpt><trkpt lat="43.8401737580092" lon="11.601417195174193"><ele>897.0</ele><time>2026-04-18T12:43:24Z</time></trkpt><trkpt lat="43.840216997503106" lon="11.601519806416642"><ele>897.0</ele><time>2026-04-18T12:43:25Z</time></trkpt><trkpt lat="43.84024096474233" lon="11.601639931724602"><ele>897.0</ele><time>2026-04-18T12:43:26Z</time></trkpt><trkpt lat="43.840263127655" lon="11.601752660324575"><ele>897.0</ele><time>2026-04-18T12:43:27Z</time></trkpt><trkpt lat="43.840238967605444" lon="11.601856815378229"><ele>897.0</ele><time>2026-04-18T12:43:28Z</time></trkpt><trkpt lat="43.840213622108664" lon="11.601962055263305"><ele>897.0</ele><time>2026-04-18T12:43:29Z</time></trkpt><trkpt lat="43.84018579627139" lon="11.602083681164853"><ele>897.0</ele><time>2026-04-18T12:43:30Z</time></trkpt><trkpt lat="43.84016312926894" lon="11.602211755353828"><ele>898.8333333333334</ele><time>2026-04-18T12:43:31Z</time></trkpt><trkpt lat="43.84015341084109" lon="11.602332610396692"><ele>900.6666666666667</ele><time>2026-04-18T12:43:32Z</time></trkpt><trkpt lat="43.84014050648317" lon="11.602421920270496"><ele>902.5</ele><time>2026-04-18T12:43:33Z</time></trkpt><trkpt lat="43.84015025546416" lon="11.602511366681348"><ele>904.3333333333334</ele><time>2026-04-18T12:43:34Z</time></trkpt><trkpt lat="43.84015210653051" lon="11.602638281639079"><ele>906.1666666666667</ele><time>2026-04-18T12:43:36Z</time></trkpt><trkpt lat="43.840184574914545" lon="11.602731604174078"><ele>908.0</ele><time>2026-04-18T12:43:38Z</time></trkpt><trkpt lat="43.84020280440136" lon="11.60282033170013"><ele>909.75</ele><time>2026-04-18T12:43:45Z</time></trkpt><trkpt lat="43.840189300451925" lon="11.602915627582739"><ele>911.5</ele><time>2026-04-18T12:43:46Z</time></trkpt><trkpt lat="43.840179708133896" lon="11.603082512109339"><ele>913.25</ele><time>2026-04-18T12:43:48Z</time></trkpt><trkpt lat="43.84015370853311" lon="11.603304724136484"><ele>915.0</ele><time>2026-04-18T12:43:49Z</time></trkpt><trkpt lat="43.84011283934421" lon="11.603502469406166"><ele>924.0</ele><time>2026-04-18T12:43:50Z</time></trkpt><trkpt lat="43.84008984764332" lon="11.60371050652275"><ele>933.0</ele><time>2026-04-18T12:43:51Z</time></trkpt><trkpt lat="43.84008404779986" lon="11.60390464333098"><ele>942.0</ele><time>2026-04-18T12:43:52Z</time></trkpt><trkpt lat="43.84007304773515" lon="11.604086157197903"><ele>951.0</ele><time>2026-04-18T12:43:53Z</time></trkpt><trkpt lat="43.84007956897633" lon="11.604224720095464"><ele>951.0</ele><time>2026-04-18T12:43:54Z</time></trkpt><trkpt lat="43.8400682923131" lon="11.604364318260531"><ele>950.9999999999999</ele><time>2026-04-18T12:43:55Z</time></trkpt><trkpt lat="43.84005466753317" lon="11.604463035380677"><ele>950.9999999999999</ele><time>2026-04-18T12:43:56Z</time></trkpt><trkpt lat="43.84003829959267" lon="11.604564729084162"><ele>951.0</ele><time>2026-04-18T12:43:57Z</time></trkpt><trkpt lat="43.840038718217556" lon="11.604698307178104"><ele>951.0</ele><time>2026-04-18T12:43:58Z</time></trkpt><trkpt lat="43.84001182192091" lon="11.604856962204789"><ele>951.3333333333334</ele><time>2026-04-18T12:44:00Z</time></trkpt><trkpt lat="43.83997358410963" lon="11.605030014223306"><ele>951.6666666666667</ele><time>2026-04-18T12:44:03Z</time></trkpt><trkpt lat="43.83995911376437" lon="11.605119255951125"><ele>952.0</ele><time>2026-04-18T12:44:08Z</time></trkpt><trkpt lat="43.83989782350922" lon="11.60514851178581"><ele>952.3333333333334</ele><time>2026-04-18T12:44:10Z</time></trkpt><trkpt lat="43.8398153269655" lon="11.605063730859625"><ele>952.6666666666667</ele><time>2026-04-18T12:44:23Z</time></trkpt><trkpt lat="43.83977863815207" lon="11.604970343143961"><ele>953.0</ele><time>2026-04-18T12:44:26Z</time></trkpt><trkpt lat="43.83972964703816" lon="11.604912481653994"><ele>953.0000000000001</ele><time>2026-04-18T12:44:29Z</time></trkpt><trkpt lat="43.839658174131344" lon="11.604868439815226"><ele>953.0</ele><time>2026-04-18T12:44:36Z</time></trkpt><trkpt lat="43.83960331757261" lon="11.604820431101494"><ele>953.0</ele><time>2026-04-18T12:44:39Z</time></trkpt><trkpt lat="43.83955340500644" lon="11.604742892756597"><ele>953.0</ele><time>2026-04-18T12:44:56Z</time></trkpt><trkpt lat="43.83949724025561" lon="11.604668178486062"><ele>953.0000000000001</ele><time>2026-04-18T12:45:16Z</time></trkpt><trkpt lat="43.83942406318859" lon="11.604570535325959"><ele>953.0</ele><time>2026-04-18T12:45:17Z</time></trkpt><trkpt lat="43.83934512007209" lon="11.604463717153477"><ele>953.8333333333334</ele><time>2026-04-18T12:45:18Z</time></trkpt><trkpt lat="43.839281283310456" lon="11.60440191678739"><ele>954.6666666666667</ele><time>2026-04-18T12:45:19Z</time></trkpt><trkpt lat="43.839223754886106" lon="11.604357402322428"><ele>955.5</ele><time>2026-04-18T12:45:20Z</time></trkpt><trkpt lat="43.83916381579099" lon="11.604308581281561"><ele>956.3333333333333</ele><time>2026-04-18T12:45:21Z</time></trkpt><trkpt lat="43.83909543951859" lon="11.60426018705479"><ele>957.1666666666666</ele><time>2026-04-18T12:45:22Z</time></trkpt><trkpt lat="43.83902225033193" lon="11.60421380510308"><ele>958.0</ele><time>2026-04-18T12:45:23Z</time></trkpt><trkpt lat="43.83895393229291" lon="11.604144907068942"><ele>958.0</ele><time>2026-04-18T12:45:24Z</time></trkpt><trkpt lat="43.83890089915784" lon="11.604064953921773"><ele>958.0</ele><time>2026-04-18T12:45:25Z</time></trkpt><trkpt lat="43.83884845214351" lon="11.60398835485204"><ele>958.0</ele><time>2026-04-18T12:45:26Z</time></trkpt><trkpt lat="43.83880025910239" lon="11.6039024428381"><ele>958.0</ele><time>2026-04-18T12:45:27Z</time></trkpt><trkpt lat="43.83874432136873" lon="11.603830881811358"><ele>958.0</ele><time>2026-04-18T12:45:28Z</time></trkpt><trkpt lat="43.838685368739284" lon="11.603776571067097"><ele>958.0</ele><time>2026-04-18T12:45:29Z</time></trkpt><trkpt lat="43.83862358430607" lon="11.603754733588842"><ele>958.0</ele><time>2026-04-18T12:45:30Z</time></trkpt><trkpt lat="43.83855979514684" lon="11.603760742947328"><ele>957.9999999999999</ele><time>2026-04-18T12:45:31Z</time></trkpt><trkpt lat="43.83849700009311" lon="11.603775385675874"><ele>958.0</ele><time>2026-04-18T12:45:32Z</time></trkpt><trkpt lat="43.838385663935554" lon="11.603815518800117"><ele>958.0</ele><time>2026-04-18T12:45:34Z</time></trkpt><trkpt lat="43.83829956076707" lon="11.60385871550991"><ele>958.0</ele><time>2026-04-18T12:45:36Z</time></trkpt><trkpt lat="43.83823672342064" lon="11.603905002272011"><ele>957.9999999999999</ele><time>2026-04-18T12:45:38Z</time></trkpt><trkpt lat="43.83815880681729" lon="11.603975671396045"><ele>958.0</ele><time>2026-04-18T12:45:40Z</time></trkpt><trkpt lat="43.83809598955867" lon="11.604035499332477"><ele>959.4</ele><time>2026-04-18T12:45:44Z</time></trkpt><trkpt lat="43.838028376066546" lon="11.604097173253212"><ele>960.8</ele><time>2026-04-18T12:45:46Z</time></trkpt><trkpt lat="43.83795371561903" lon="11.604202377715614"><ele>962.2</ele><time>2026-04-18T12:45:48Z</time></trkpt><trkpt lat="43.83785089449631" lon="11.604282363526323"><ele>963.6</ele><time>2026-04-18T12:45:50Z</time></trkpt><trkpt lat="43.83778276151602" lon="11.60432875780095"><ele>965.0</ele><time>2026-04-18T12:45:51Z</time></trkpt><trkpt lat="43.83768703820615" lon="11.604387722709227"><ele>965.6666666666667</ele><time>2026-04-18T12:45:53Z</time></trkpt><trkpt lat="43.83759924698797" lon="11.60445496361883"><ele>966.3333333333334</ele><time>2026-04-18T12:45:55Z</time></trkpt><trkpt lat="43.83754739619027" lon="11.604512055485852"><ele>967.0</ele><time>2026-04-18T12:45:56Z</time></trkpt><trkpt lat="43.837493120567245" lon="11.60456695097826"><ele>967.6666666666667</ele><time>2026-04-18T12:45:57Z</time></trkpt><trkpt lat="43.83741129048767" lon="11.60465789144408"><ele>968.3333333333334</ele><time>2026-04-18T12:45:59Z</time></trkpt><trkpt lat="43.83732355410519" lon="11.604698018863695"><ele>969.0</ele><time>2026-04-18T12:46:01Z</time></trkpt><trkpt lat="43.83725777219153" lon="11.60471722267513"><ele>971.3333333333334</ele><time>2026-04-18T12:46:02Z</time></trkpt><trkpt lat="43.83717253542452" lon="11.604722905340704"><ele>973.6666666666667</ele><time>2026-04-18T12:46:05Z</time></trkpt><trkpt lat="43.837065245151706" lon="11.604730850130434"><ele>976.0</ele><time>2026-04-18T12:46:07Z</time></trkpt><trkpt lat="43.8370018265339" lon="11.604750163898865"><ele>978.3333333333334</ele><time>2026-04-18T12:46:09Z</time></trkpt><trkpt lat="43.83692838018376" lon="11.604762964746385"><ele>980.6666666666667</ele><time>2026-04-18T12:46:11Z</time></trkpt><trkpt lat="43.83683107586821" lon="11.604802234681367"><ele>983.0</ele><time>2026-04-18T12:46:13Z</time></trkpt><trkpt lat="43.836763132715944" lon="11.604847508184555"><ele>985.0</ele><time>2026-04-18T12:46:14Z</time></trkpt><trkpt lat="43.83670743361216" lon="11.604910190892593"><ele>987.0</ele><time>2026-04-18T12:46:15Z</time></trkpt><trkpt lat="43.83659565169601" lon="11.604974919216563"><ele>989.0</ele><time>2026-04-18T12:46:17Z</time></trkpt><trkpt lat="43.83648628182092" lon="11.604989084424504"><ele>991.0</ele><time>2026-04-18T12:46:19Z</time></trkpt><trkpt lat="43.836372709931176" lon="11.604996719872602"><ele>993.0</ele><time>2026-04-18T12:46:21Z</time></trkpt><trkpt lat="43.836298892752176" lon="11.604999885531853"><ele>993.0</ele><time>2026-04-18T12:46:22Z</time></trkpt><trkpt lat="43.83622133326165" lon="11.604994615052426"><ele>993.0</ele><time>2026-04-18T12:46:23Z</time></trkpt><trkpt lat="43.8361520503046" lon="11.604960008835997"><ele>993.0</ele><time>2026-04-18T12:46:27Z</time></trkpt><trkpt lat="43.83606896181163" lon="11.604942333134531"><ele>993.0</ele><time>2026-04-18T12:46:30Z</time></trkpt><trkpt lat="43.835980408517614" lon="11.604901896383943"><ele>993.0</ele><time>2026-04-18T12:46:34Z</time></trkpt><trkpt lat="43.83590890253355" lon="11.604782026085239"><ele>993.0</ele><time>2026-04-18T12:46:36Z</time></trkpt><trkpt lat="43.83585859776306" lon="11.604701605149662"><ele>992.8333333333334</ele><time>2026-04-18T12:46:37Z</time></trkpt><trkpt lat="43.835801410543056" lon="11.604651859132744"><ele>992.6666666666667</ele><time>2026-04-18T12:46:38Z</time></trkpt><trkpt lat="43.83571967005529" lon="11.604579293531714"><ele>992.5</ele><time>2026-04-18T12:46:40Z</time></trkpt><trkpt lat="43.835632379827665" lon="11.604539705875405"><ele>992.3333333333334</ele><time>2026-04-18T12:46:42Z</time></trkpt><trkpt lat="43.8355595631739" lon="11.60451335551306"><ele>992.1666666666667</ele><time>2026-04-18T12:46:43Z</time></trkpt><trkpt lat="43.835460817837486" lon="11.60442645144595"><ele>992.0</ele><time>2026-04-18T12:46:44Z</time></trkpt><trkpt lat="43.83537326423408" lon="11.604330656182713"><ele>992.0</ele><time>2026-04-18T12:46:45Z</time></trkpt><trkpt lat="43.83529595159695" lon="11.604290074495726"><ele>992.0</ele><time>2026-04-18T12:46:46Z</time></trkpt><trkpt lat="43.835235343714935" lon="11.604253541979325"><ele>992.0</ele><time>2026-04-18T12:46:47Z</time></trkpt><trkpt lat="43.83512180441929" lon="11.604202621598247"><ele>992.0</ele><time>2026-04-18T12:46:49Z</time></trkpt><trkpt lat="43.835012438864396" lon="11.604151981165804"><ele>992.0</ele><time>2026-04-18T12:46:51Z</time></trkpt><trkpt lat="43.83489703701724" lon="11.604132101008476"><ele>994.4285714285714</ele><time>2026-04-18T12:46:53Z</time></trkpt><trkpt lat="43.83482903113266" lon="11.604117954208967"><ele>996.8571428571429</ele><time>2026-04-18T12:46:54Z</time></trkpt><trkpt lat="43.83475820486487" lon="11.604114082468408"><ele>999.2857142857143</ele><time>2026-04-18T12:46:55Z</time></trkpt><trkpt lat="43.83468995076581" lon="11.604111455531243"><ele>1001.7142857142858</ele><time>2026-04-18T12:46:56Z</time></trkpt><trkpt lat="43.83461742123332" lon="11.604096319696088"><ele>1004.1428571428571</ele><time>2026-04-18T12:46:58Z</time></trkpt><trkpt lat="43.83454792931041" lon="11.604130336859438"><ele>1006.5714285714287</ele><time>2026-04-18T12:47:01Z</time></trkpt><trkpt lat="43.834474120714475" lon="11.604102255802704"><ele>1009.0</ele><time>2026-04-18T12:47:04Z</time></trkpt><trkpt lat="43.83444249097096" lon="11.603953296646965"><ele>1009.0</ele><time>2026-04-18T12:47:07Z</time></trkpt><trkpt lat="43.83441703505878" lon="11.6038478665576"><ele>1009.0000000000001</ele><time>2026-04-18T12:47:08Z</time></trkpt><trkpt lat="43.8343991373788" lon="11.603695148596485"><ele>1009.0000000000001</ele><time>2026-04-18T12:47:09Z</time></trkpt><trkpt lat="43.8343677500235" lon="11.603574439091684"><ele>1009.0</ele><time>2026-04-18T12:47:12Z</time></trkpt><trkpt lat="43.83428960222452" lon="11.603457640840354"><ele>1009.0</ele><time>2026-04-18T12:47:14Z</time></trkpt><trkpt lat="43.8342326105298" lon="11.603327336427366"><ele>1007.8000000000001</ele><time>2026-04-18T12:47:16Z</time></trkpt><trkpt lat="43.83419528134893" lon="11.603256201117132"><ele>1006.6000000000001</ele><time>2026-04-18T12:47:17Z</time></trkpt><trkpt lat="43.83412394372797" lon="11.60314729106039"><ele>1005.4</ele><time>2026-04-18T12:47:19Z</time></trkpt><trkpt lat="43.83406455417164" lon="11.603102560261126"><ele>1004.2</ele><time>2026-04-18T12:47:22Z</time></trkpt><trkpt lat="43.833947445461526" lon="11.603113694725"><ele>1003.0</ele><time>2026-04-18T12:47:25Z</time></trkpt><trkpt lat="43.83357300780699" lon="11.6030430017413"><ele>1003.0</ele><time>2026-04-18T12:47:29Z</time></trkpt><trkpt lat="43.83352446576871" lon="11.603128950057446"><ele>1003.0</ele><time>2026-04-18T12:47:31Z</time></trkpt><trkpt lat="43.83347851007077" lon="11.603206983208105"><ele>1003.0</ele><time>2026-04-18T12:47:33Z</time></trkpt><trkpt lat="43.83340237269006" lon="11.603314009261501"><ele>1003.0</ele><time>2026-04-18T12:47:35Z</time></trkpt><trkpt lat="43.833352479579425" lon="11.60342370395841"><ele>1003.0</ele><time>2026-04-18T12:47:37Z</time></trkpt><trkpt lat="43.83326306549224" lon="11.603504747253117"><ele>1002.4999999999999</ele><time>2026-04-18T12:47:39Z</time></trkpt><trkpt lat="43.83317139612387" lon="11.60350105856572"><ele>1002.0</ele><time>2026-04-18T12:47:41Z</time></trkpt><trkpt lat="43.833095707360044" lon="11.60342182284995"><ele>1001.5</ele><time>2026-04-18T12:47:44Z</time></trkpt><trkpt lat="43.832980601829064" lon="11.603393343366339"><ele>1001.0</ele><time>2026-04-18T12:47:46Z</time></trkpt><trkpt lat="43.832916776543286" lon="11.603386479731702"><ele>1000.4999999999999</ele><time>2026-04-18T12:47:47Z</time></trkpt><trkpt lat="43.832848467866604" lon="11.603369200942838"><ele>1000.0</ele><time>2026-04-18T12:47:48Z</time></trkpt><trkpt lat="43.832767798451606" lon="11.60335736899721"><ele>999.9999999999999</ele><time>2026-04-18T12:47:49Z</time></trkpt><trkpt lat="43.832692291183484" lon="11.603350050117113"><ele>1000.0</ele><time>2026-04-18T12:47:50Z</time></trkpt><trkpt lat="43.832635681815546" lon="11.603291190934401"><ele>1000.0</ele><time>2026-04-18T12:47:52Z</time></trkpt><trkpt lat="43.83253703365198" lon="11.60327815594803"><ele>1000.0</ele><time>2026-04-18T12:47:53Z</time></trkpt><trkpt lat="43.83244604146551" lon="11.603289097165995"><ele>999.9999999999999</ele><time>2026-04-18T12:47:54Z</time></trkpt><trkpt lat="43.83235547917725" lon="11.603289690565985"><ele>1000.0</ele><time>2026-04-18T12:47:56Z</time></trkpt><trkpt lat="43.83229015658618" lon="11.60329750845924"><ele>999.4</ele><time>2026-04-18T12:47:59Z</time></trkpt><trkpt lat="43.83222160474895" lon="11.603345990677168"><ele>998.8</ele><time>2026-04-18T12:48:01Z</time></trkpt><trkpt lat="43.83210942779525" lon="11.60335465239325"><ele>998.2</ele><time>2026-04-18T12:48:04Z</time></trkpt><trkpt lat="43.83204642566428" lon="11.603381868275658"><ele>997.6</ele><time>2026-04-18T12:48:06Z</time></trkpt><trkpt lat="43.831987910638375" lon="11.603422782022221"><ele>997.0</ele><time>2026-04-18T12:48:08Z</time></trkpt><trkpt lat="43.831787245807305" lon="11.603454350346219"><ele>996.0</ele><time>2026-04-18T12:48:10Z</time></trkpt><trkpt lat="43.831686358388076" lon="11.603458643973571"><ele>995.0</ele><time>2026-04-18T12:48:11Z</time></trkpt><trkpt lat="43.831587045358766" lon="11.603461516139586"><ele>994.0</ele><time>2026-04-18T12:48:12Z</time></trkpt><trkpt lat="43.83147847737757" lon="11.603461020409817"><ele>993.0</ele><time>2026-04-18T12:48:13Z</time></trkpt><trkpt lat="43.831384395060574" lon="11.603462031126464"><ele>992.0</ele><time>2026-04-18T12:48:14Z</time></trkpt><trkpt lat="43.831295664818406" lon="11.603462060346668"><ele>992.0</ele><time>2026-04-18T12:48:15Z</time></trkpt><trkpt lat="43.83120899544118" lon="11.603462180635145"><ele>992.0</ele><time>2026-04-18T12:48:16Z</time></trkpt><trkpt lat="43.83112899127878" lon="11.603473798765169"><ele>992.0</ele><time>2026-04-18T12:48:17Z</time></trkpt><trkpt lat="43.83104789460789" lon="11.603521187519199"><ele>992.0</ele><time>2026-04-18T12:48:18Z</time></trkpt><trkpt lat="43.83098364002243" lon="11.603544410073495"><ele>992.0</ele><time>2026-04-18T12:48:19Z</time></trkpt><trkpt lat="43.83085190007469" lon="11.60360724219308"><ele>992.0</ele><time>2026-04-18T12:48:21Z</time></trkpt><trkpt lat="43.83075689443334" lon="11.603662224358954"><ele>992.0000000000001</ele><time>2026-04-18T12:48:22Z</time></trkpt><trkpt lat="43.83069273454315" lon="11.603679688892607"><ele>992.0</ele><time>2026-04-18T12:48:23Z</time></trkpt><trkpt lat="43.83064474805591" lon="11.603586147747787"><ele>992.0</ele><time>2026-04-18T12:48:25Z</time></trkpt><trkpt lat="43.83070557329201" lon="11.603608764335002"><ele>992.0000000000001</ele><time>2026-04-18T12:48:29Z</time></trkpt><trkpt lat="43.83069301638547" lon="11.603697431263074"><ele>992.0</ele><time>2026-04-18T12:48:42Z</time></trkpt><trkpt lat="43.83075677354879" lon="11.603714887216453"><ele>992.0</ele><time>2026-04-18T12:48:44Z</time></trkpt><trkpt lat="43.8308225139306" lon="11.603687213884848"><ele>990.8</ele><time>2026-04-18T12:48:49Z</time></trkpt><trkpt lat="43.830729841800235" lon="11.60374848663076"><ele>989.6</ele><time>2026-04-18T12:51:10Z</time></trkpt><trkpt lat="43.83060203518615" lon="11.603745204418761"><ele>988.3999999999999</ele><time>2026-04-18T12:51:12Z</time></trkpt><trkpt lat="43.83066568356855" lon="11.603676275944544"><ele>987.1999999999999</ele><time>2026-04-18T12:51:15Z</time></trkpt><trkpt lat="43.83075051948016" lon="11.603762929796986"><ele>986.0</ele><time>2026-04-18T12:51:18Z</time></trkpt><trkpt lat="43.83081915505371" lon="11.603792394598985"><ele>986.0</ele><time>2026-04-18T12:51:19Z</time></trkpt><trkpt lat="43.830949849329166" lon="11.603729802730394"><ele>985.9999999999999</ele><time>2026-04-18T12:51:21Z</time></trkpt><trkpt lat="43.831049444730375" lon="11.603725640041217"><ele>985.9999999999999</ele><time>2026-04-18T12:51:22Z</time></trkpt><trkpt lat="43.831129648252364" lon="11.603727160462679"><ele>986.0</ele><time>2026-04-18T12:51:23Z</time></trkpt><trkpt lat="43.83120360470564" lon="11.603707418627035"><ele>986.0</ele><time>2026-04-18T12:51:24Z</time></trkpt><trkpt lat="43.83129017929588" lon="11.603704808459725"><ele>988.75</ele><time>2026-04-18T12:51:26Z</time></trkpt><trkpt lat="43.831299609397824" lon="11.603997617077969"><ele>991.5</ele><time>2026-04-18T12:51:27Z</time></trkpt><trkpt lat="43.831275160686836" lon="11.60409546930827"><ele>994.25</ele><time>2026-04-18T12:51:28Z</time></trkpt><trkpt lat="43.83120950356727" lon="11.604092753526299"><ele>997.0</ele><time>2026-04-18T12:51:30Z</time></trkpt><trkpt lat="43.83107778365605" lon="11.604000894622107"><ele>997.0</ele><time>2026-04-18T12:51:32Z</time></trkpt><trkpt lat="43.83100860179707" lon="11.603938090536989"><ele>997.0</ele><time>2026-04-18T12:51:33Z</time></trkpt><trkpt lat="43.830930194087614" lon="11.60387279434772"><ele>997.0</ele><time>2026-04-18T12:51:35Z</time></trkpt><trkpt lat="43.830822746487" lon="11.603788199178378"><ele>997.0</ele><time>2026-04-18T12:52:00Z</time></trkpt><trkpt lat="43.83076661012163" lon="11.603703921983204"><ele>997.0</ele><time>2026-04-18T12:52:01Z</time></trkpt><trkpt lat="43.83070649725899" lon="11.603653593567445"><ele>995.1666666666666</ele><time>2026-04-18T12:52:57Z</time></trkpt><trkpt lat="43.830632367499156" lon="11.603734364567998"><ele>993.3333333333333</ele><time>2026-04-18T12:52:59Z</time></trkpt><trkpt lat="43.830614846899294" lon="11.603825122927718"><ele>991.5</ele><time>2026-04-18T12:53:00Z</time></trkpt><trkpt lat="43.83052755480148" lon="11.603870527524132"><ele>989.6666666666667</ele><time>2026-04-18T12:53:02Z</time></trkpt><trkpt lat="43.830465510796095" lon="11.60384662443684"><ele>987.8333333333334</ele><time>2026-04-18T12:53:03Z</time></trkpt><trkpt lat="43.83036428556499" lon="11.603820868637914"><ele>986.0</ele><time>2026-04-18T12:53:05Z</time></trkpt><trkpt lat="43.830301006372395" lon="11.603813586807082"><ele>986.0000000000001</ele><time>2026-04-18T12:53:06Z</time></trkpt><trkpt lat="43.83022309197115" lon="11.603792629047572"><ele>986.0</ele><time>2026-04-18T12:53:07Z</time></trkpt><trkpt lat="43.83016351888792" lon="11.603749939311035"><ele>986.0</ele><time>2026-04-18T12:53:08Z</time></trkpt><trkpt lat="43.83009531566783" lon="11.60372296325477"><ele>986.0</ele><time>2026-04-18T12:53:09Z</time></trkpt><trkpt lat="43.830030896800416" lon="11.603692096438394"><ele>986.0000000000001</ele><time>2026-04-18T12:53:10Z</time></trkpt><trkpt lat="43.829941738973666" lon="11.603648509589087"><ele>986.0</ele><time>2026-04-18T12:53:12Z</time></trkpt><trkpt lat="43.82983352865076" lon="11.603750701158244"><ele>986.0</ele><time>2026-04-18T12:53:14Z</time></trkpt><trkpt lat="43.82973348924357" lon="11.603786120852448"><ele>985.9999999999999</ele><time>2026-04-18T12:53:16Z</time></trkpt><trkpt lat="43.82969349436712" lon="11.603870634183219"><ele>985.9999999999999</ele><time>2026-04-18T12:53:19Z</time></trkpt><trkpt lat="43.82964821678392" lon="11.604031961224571"><ele>986.0</ele><time>2026-04-18T12:53:21Z</time></trkpt><trkpt lat="43.82967637942497" lon="11.604181205837378"><ele>986.0</ele><time>2026-04-18T12:53:22Z</time></trkpt><trkpt lat="43.829721764930675" lon="11.604354609642384"><ele>986.0</ele><time>2026-04-18T12:53:23Z</time></trkpt><trkpt lat="43.82978285666174" lon="11.604479467811732"><ele>985.9999999999999</ele><time>2026-04-18T12:53:24Z</time></trkpt><trkpt lat="43.82981171154584" lon="11.604601064867854"><ele>985.9999999999999</ele><time>2026-04-18T12:53:25Z</time></trkpt><trkpt lat="43.82981025770162" lon="11.604709511239232"><ele>986.0</ele><time>2026-04-18T12:53:26Z</time></trkpt><trkpt lat="43.829762112558875" lon="11.604788692033631"><ele>986.0</ele><time>2026-04-18T12:53:27Z</time></trkpt><trkpt lat="43.82965618091373" lon="11.604845246653179"><ele>984.4</ele><time>2026-04-18T12:53:28Z</time></trkpt><trkpt lat="43.829568906580015" lon="11.60487818902706"><ele>982.8</ele><time>2026-04-18T12:53:29Z</time></trkpt><trkpt lat="43.8294500543567" lon="11.604914281132084"><ele>981.1999999999999</ele><time>2026-04-18T12:53:31Z</time></trkpt><trkpt lat="43.82934455896614" lon="11.604941849200571"><ele>979.5999999999999</ele><time>2026-04-18T12:53:33Z</time></trkpt><trkpt lat="43.82926095979846" lon="11.605037933966734"><ele>978.0</ele><time>2026-04-18T12:53:35Z</time></trkpt><trkpt lat="43.829226285113585" lon="11.605160807126946"><ele>980.25</ele><time>2026-04-18T12:53:37Z</time></trkpt><trkpt lat="43.82917394667585" lon="11.60529179611128"><ele>982.5</ele><time>2026-04-18T12:53:39Z</time></trkpt><trkpt lat="43.82907188376519" lon="11.605453648663493"><ele>984.75</ele><time>2026-04-18T12:53:41Z</time></trkpt><trkpt lat="43.82898484515431" lon="11.605528529300953"><ele>987.0</ele><time>2026-04-18T12:53:42Z</time></trkpt><trkpt lat="43.828923170036646" lon="11.605617224862138"><ele>987.0</ele><time>2026-04-18T12:53:43Z</time></trkpt><trkpt lat="43.828873125888386" lon="11.605673768714613"><ele>987.0</ele><time>2026-04-18T12:53:44Z</time></trkpt><trkpt lat="43.82881703038854" lon="11.605743560852881"><ele>987.0</ele><time>2026-04-18T12:53:45Z</time></trkpt><trkpt lat="43.828760602864314" lon="11.605807749420334"><ele>987.0</ele><time>2026-04-18T12:53:46Z</time></trkpt><trkpt lat="43.82870461386732" lon="11.605867203678972"><ele>987.0</ele><time>2026-04-18T12:53:48Z</time></trkpt><trkpt lat="43.828623764734374" lon="11.605967645356401"><ele>987.0</ele><time>2026-04-18T12:53:51Z</time></trkpt><trkpt lat="43.82859612198346" lon="11.60605873477359"><ele>984.8</ele><time>2026-04-18T12:53:52Z</time></trkpt><trkpt lat="43.82857838476688" lon="11.60616635522875"><ele>982.6</ele><time>2026-04-18T12:53:53Z</time></trkpt><trkpt lat="43.82854389248609" lon="11.606291067384232"><ele>980.3999999999999</ele><time>2026-04-18T12:53:54Z</time></trkpt><trkpt lat="43.82848647992228" lon="11.606386386976832"><ele>978.1999999999999</ele><time>2026-04-18T12:53:55Z</time></trkpt><trkpt lat="43.82838975127041" lon="11.60645733577575"><ele>976.0</ele><time>2026-04-18T12:53:56Z</time></trkpt><trkpt lat="43.82827688019107" lon="11.60648063674393"><ele>979.6666666666666</ele><time>2026-04-18T12:53:57Z</time></trkpt><trkpt lat="43.82820701110183" lon="11.606507154606673"><ele>983.3333333333333</ele><time>2026-04-18T12:53:58Z</time></trkpt><trkpt lat="43.828143545631406" lon="11.606503171146192"><ele>987.0</ele><time>2026-04-18T12:53:59Z</time></trkpt><trkpt lat="43.828078921508826" lon="11.606479079774502"><ele>990.6666666666667</ele><time>2026-04-18T12:54:00Z</time></trkpt><trkpt lat="43.82799232410158" lon="11.606517622699345"><ele>994.3333333333334</ele><time>2026-04-18T12:54:02Z</time></trkpt><trkpt lat="43.82790685662793" lon="11.606551000271422"><ele>998.0</ele><time>2026-04-18T12:54:05Z</time></trkpt><trkpt lat="43.827855677876585" lon="11.606627038367247"><ele>998.0000000000001</ele><time>2026-04-18T12:54:07Z</time></trkpt><trkpt lat="43.82779791285508" lon="11.606709584442687"><ele>998.0</ele><time>2026-04-18T12:54:09Z</time></trkpt><trkpt lat="43.82778704351128" lon="11.60681740277047"><ele>998.0000000000001</ele><time>2026-04-18T12:54:11Z</time></trkpt><trkpt lat="43.8277853469246" lon="11.60690520133549"><ele>998.0000000000001</ele><time>2026-04-18T12:54:12Z</time></trkpt><trkpt lat="43.82779941637276" lon="11.606995764460766"><ele>998.0</ele><time>2026-04-18T12:54:13Z</time></trkpt><trkpt lat="43.82781581497122" lon="11.60710565744069"><ele>998.0000000000001</ele><time>2026-04-18T12:54:15Z</time></trkpt><trkpt lat="43.827836853175576" lon="11.607197055221283"><ele>998.0000000000001</ele><time>2026-04-18T12:54:16Z</time></trkpt><trkpt lat="43.82786367114179" lon="11.607276564587526"><ele>995.2</ele><time>2026-04-18T12:54:17Z</time></trkpt><trkpt lat="43.827899840172265" lon="11.607406930055863"><ele>992.4</ele><time>2026-04-18T12:54:19Z</time></trkpt><trkpt lat="43.827883278726425" lon="11.60750223344675"><ele>989.6000000000001</ele><time>2026-04-18T12:54:20Z</time></trkpt><trkpt lat="43.82787938207694" lon="11.607601575245587"><ele>986.8000000000001</ele><time>2026-04-18T12:54:21Z</time></trkpt><trkpt lat="43.82782888780519" lon="11.607749166489755"><ele>984.0</ele><time>2026-04-18T12:54:23Z</time></trkpt><trkpt lat="43.82774939104957" lon="11.607860104134843"><ele>986.8000000000001</ele><time>2026-04-18T12:54:24Z</time></trkpt><trkpt lat="43.82768360763492" lon="11.607991238587436"><ele>989.6000000000001</ele><time>2026-04-18T12:54:25Z</time></trkpt><trkpt lat="43.827631747823666" lon="11.608050757723767"><ele>992.4</ele><time>2026-04-18T12:54:26Z</time></trkpt><trkpt lat="43.827556949969996" lon="11.608123683260821"><ele>995.2</ele><time>2026-04-18T12:54:27Z</time></trkpt><trkpt lat="43.82744911739207" lon="11.608174281459787"><ele>998.0</ele><time>2026-04-18T12:54:28Z</time></trkpt><trkpt lat="43.82740092298702" lon="11.60828499992773"><ele>998.0</ele><time>2026-04-18T12:54:29Z</time></trkpt><trkpt lat="43.827392913728055" lon="11.608419850224356"><ele>998.0</ele><time>2026-04-18T12:54:30Z</time></trkpt><trkpt lat="43.827390122459846" lon="11.608594160822197"><ele>998.0</ele><time>2026-04-18T12:54:31Z</time></trkpt><trkpt lat="43.82741107366603" lon="11.608739165469794"><ele>998.0</ele><time>2026-04-18T12:54:32Z</time></trkpt><trkpt lat="43.82739620106621" lon="11.608834713212048"><ele>998.0</ele><time>2026-04-18T12:54:33Z</time></trkpt><trkpt lat="43.827332408871726" lon="11.608928122143867"><ele>995.0</ele><time>2026-04-18T12:54:35Z</time></trkpt><trkpt lat="43.82733149526854" lon="11.609076788296054"><ele>992.0</ele><time>2026-04-18T12:54:36Z</time></trkpt><trkpt lat="43.827251962444265" lon="11.609180663306493"><ele>989.0</ele><time>2026-04-18T12:54:38Z</time></trkpt><trkpt lat="43.82717346513301" lon="11.60919765039237"><ele>986.0</ele><time>2026-04-18T12:54:39Z</time></trkpt><trkpt lat="43.827085675068545" lon="11.609163201483605"><ele>983.0</ele><time>2026-04-18T12:54:40Z</time></trkpt><trkpt lat="43.82700871818095" lon="11.60910280570017"><ele>983.0</ele><time>2026-04-18T12:54:41Z</time></trkpt><trkpt lat="43.82694079958106" lon="11.609006140160181"><ele>983.0</ele><time>2026-04-18T12:54:42Z</time></trkpt><trkpt lat="43.82684914864457" lon="11.608962625040032"><ele>983.0</ele><time>2026-04-18T12:54:43Z</time></trkpt><trkpt lat="43.82675807651352" lon="11.608917631942811"><ele>983.0</ele><time>2026-04-18T12:54:44Z</time></trkpt><trkpt lat="43.8266843292505" lon="11.608862184713136"><ele>983.0</ele><time>2026-04-18T12:54:45Z</time></trkpt><trkpt lat="43.826591920870115" lon="11.608800690189105"><ele>982.1666666666667</ele><time>2026-04-18T12:54:46Z</time></trkpt><trkpt lat="43.8265089925188" lon="11.608757125271161"><ele>981.3333333333334</ele><time>2026-04-18T12:54:47Z</time></trkpt><trkpt lat="43.82644946544437" lon="11.608716806418887"><ele>980.5</ele><time>2026-04-18T12:54:48Z</time></trkpt><trkpt lat="43.82639331522591" lon="11.60867191947395"><ele>979.6666666666667</ele><time>2026-04-18T12:54:49Z</time></trkpt><trkpt lat="43.82631162913317" lon="11.608587592099646"><ele>978.8333333333334</ele><time>2026-04-18T12:54:50Z</time></trkpt><trkpt lat="43.82622540256285" lon="11.60852413154841"><ele>978.0</ele><time>2026-04-18T12:54:51Z</time></trkpt><trkpt lat="43.82615142631224" lon="11.608459050068234"><ele>976.8333333333334</ele><time>2026-04-18T12:54:52Z</time></trkpt><trkpt lat="43.82608448668146" lon="11.608385268503563"><ele>975.6666666666667</ele><time>2026-04-18T12:54:53Z</time></trkpt><trkpt lat="43.82601570469949" lon="11.60831029408623"><ele>974.5</ele><time>2026-04-18T12:54:54Z</time></trkpt><trkpt lat="43.825953331426525" lon="11.608236265564257"><ele>973.3333333333334</ele><time>2026-04-18T12:54:55Z</time></trkpt><trkpt lat="43.82589388286789" lon="11.60813860036551"><ele>972.1666666666667</ele><time>2026-04-18T12:54:56Z</time></trkpt><trkpt lat="43.82584017407875" lon="11.608032346058241"><ele>971.0</ele><time>2026-04-18T12:54:57Z</time></trkpt><trkpt lat="43.82578503620974" lon="11.607946611557633"><ele>971.0000000000001</ele><time>2026-04-18T12:54:58Z</time></trkpt><trkpt lat="43.82571579511482" lon="11.607890547211731"><ele>971.0</ele><time>2026-04-18T12:54:59Z</time></trkpt><trkpt lat="43.82565056690259" lon="11.607852621106776"><ele>971.0</ele><time>2026-04-18T12:55:00Z</time></trkpt><trkpt lat="43.82559630747914" lon="11.607779540352226"><ele>971.0</ele><time>2026-04-18T12:55:01Z</time></trkpt><trkpt lat="43.825554175854926" lon="11.607676728372594"><ele>971.0000000000001</ele><time>2026-04-18T12:55:02Z</time></trkpt><trkpt lat="43.825501677553746" lon="11.607600908952234"><ele>971.0</ele><time>2026-04-18T12:55:03Z</time></trkpt><trkpt lat="43.82542737129794" lon="11.607522187955665"><ele>968.4</ele><time>2026-04-18T12:55:04Z</time></trkpt><trkpt lat="43.82536127563776" lon="11.607433597882803"><ele>965.8</ele><time>2026-04-18T12:55:05Z</time></trkpt><trkpt lat="43.82530117901315" lon="11.60735569024768"><ele>963.1999999999999</ele><time>2026-04-18T12:55:06Z</time></trkpt><trkpt lat="43.82521262860374" lon="11.607257769126209"><ele>960.5999999999999</ele><time>2026-04-18T12:55:08Z</time></trkpt><trkpt lat="43.82512219895919" lon="11.607190884379122"><ele>958.0</ele><time>2026-04-18T12:55:10Z</time></trkpt><trkpt lat="43.82506659365479" lon="11.607135411839522"><ele>958.0</ele><time>2026-04-18T12:55:12Z</time></trkpt><trkpt lat="43.825010617039645" lon="11.607032312337026"><ele>958.0</ele><time>2026-04-18T12:55:14Z</time></trkpt><trkpt lat="43.824966776380194" lon="11.606918890906632"><ele>958.0</ele><time>2026-04-18T12:55:16Z</time></trkpt><trkpt lat="43.8249452381188" lon="11.60676569301077"><ele>958.0</ele><time>2026-04-18T12:55:18Z</time></trkpt><trkpt lat="43.82490793063208" lon="11.606694422899379"><ele>958.0</ele><time>2026-04-18T12:55:19Z</time></trkpt><trkpt lat="43.824767068489734" lon="11.606699474087813"><ele>960.5999999999999</ele><time>2026-04-18T12:55:21Z</time></trkpt><trkpt lat="43.82469458757147" lon="11.606720466347769"><ele>963.1999999999999</ele><time>2026-04-18T12:55:22Z</time></trkpt><trkpt lat="43.82460713680666" lon="11.606712578929624"><ele>965.8</ele><time>2026-04-18T12:55:24Z</time></trkpt><trkpt lat="43.82448453935384" lon="11.606774857256186"><ele>968.4</ele><time>2026-04-18T12:55:26Z</time></trkpt><trkpt lat="43.82438392243793" lon="11.606734320192768"><ele>971.0</ele><time>2026-04-18T12:55:28Z</time></trkpt><trkpt lat="43.824416497420245" lon="11.606595055038412"><ele>971.0000000000001</ele><time>2026-04-18T12:55:30Z</time></trkpt><trkpt lat="43.8244094224743" lon="11.60649240716881"><ele>971.0</ele><time>2026-04-18T12:55:32Z</time></trkpt><trkpt lat="43.82434665402195" lon="11.606471526436978"><ele>971.0</ele><time>2026-04-18T12:55:41Z</time></trkpt><trkpt lat="43.824288095067935" lon="11.606319524885276"><ele>971.0</ele><time>2026-04-18T12:56:25Z</time></trkpt><trkpt lat="43.82425496043074" lon="11.606230344844919"><ele>971.0000000000001</ele><time>2026-04-18T12:56:27Z</time></trkpt><trkpt lat="43.82421322583981" lon="11.60615721121204"><ele>971.0</ele><time>2026-04-18T12:56:29Z</time></trkpt><trkpt lat="43.82414617824838" lon="11.606032237928746"><ele>971.3333333333334</ele><time>2026-04-18T12:56:31Z</time></trkpt><trkpt lat="43.82410243188714" lon="11.605959569461485"><ele>971.6666666666667</ele><time>2026-04-18T12:56:32Z</time></trkpt><trkpt lat="43.82405301318649" lon="11.605900573521922"><ele>972.0</ele><time>2026-04-18T12:56:33Z</time></trkpt><trkpt lat="43.82396397689882" lon="11.605856189862187"><ele>972.3333333333333</ele><time>2026-04-18T12:56:35Z</time></trkpt><trkpt lat="43.82390188847055" lon="11.605836176721155"><ele>972.6666666666666</ele><time>2026-04-18T12:56:45Z</time></trkpt><trkpt lat="43.82381544189696" lon="11.605932782030488"><ele>973.0</ele><time>2026-04-18T12:56:47Z</time></trkpt><trkpt lat="43.823755950117466" lon="11.606014179128628"><ele>972.9999999999999</ele><time>2026-04-18T12:56:49Z</time></trkpt><trkpt lat="43.82365996935591" lon="11.606106255906179"><ele>973.0</ele><time>2026-04-18T12:56:51Z</time></trkpt><trkpt lat="43.82359313001752" lon="11.606135888546197"><ele>973.0</ele><time>2026-04-18T12:56:52Z</time></trkpt><trkpt lat="43.82352135400998" lon="11.606166020922473"><ele>973.0</ele><time>2026-04-18T12:56:53Z</time></trkpt><trkpt lat="43.823442647833254" lon="11.60615545370179"><ele>972.9999999999999</ele><time>2026-04-18T12:56:54Z</time></trkpt><trkpt lat="43.823367785263756" lon="11.606163306097436"><ele>973.0</ele><time>2026-04-18T12:56:55Z</time></trkpt><trkpt lat="43.823303831198515" lon="11.60617156137565"><ele>971.0</ele><time>2026-04-18T12:56:56Z</time></trkpt><trkpt lat="43.823231837237714" lon="11.606152077700116"><ele>969.0</ele><time>2026-04-18T12:56:57Z</time></trkpt><trkpt lat="43.82316364146963" lon="11.606116808961264"><ele>967.0</ele><time>2026-04-18T12:56:58Z</time></trkpt><trkpt lat="43.823092094444206" lon="11.606081427273134"><ele>965.0</ele><time>2026-04-18T12:56:59Z</time></trkpt><trkpt lat="43.82297406480704" lon="11.606033302921855"><ele>963.0</ele><time>2026-04-18T12:57:01Z</time></trkpt><trkpt lat="43.82286634854859" lon="11.606045950690007"><ele>963.0</ele><time>2026-04-18T12:57:02Z</time></trkpt><trkpt lat="43.82276362551059" lon="11.60607627656274"><ele>963.0</ele><time>2026-04-18T12:57:03Z</time></trkpt><trkpt lat="43.822670490992834" lon="11.606092552578378"><ele>963.0</ele><time>2026-04-18T12:57:04Z</time></trkpt><trkpt lat="43.822682594963155" lon="11.60599279986925"><ele>963.0</ele><time>2026-04-18T12:57:05Z</time></trkpt><trkpt lat="43.82263393938273" lon="11.605880775344286"><ele>963.0</ele><time>2026-04-18T12:57:07Z</time></trkpt><trkpt lat="43.82258998927149" lon="11.605770628443597"><ele>963.0</ele><time>2026-04-18T12:57:09Z</time></trkpt><trkpt lat="43.82250233749321" lon="11.605803874935885"><ele>963.0</ele><time>2026-04-18T12:57:13Z</time></trkpt><trkpt lat="43.822462855026075" lon="11.605945561257398"><ele>963.0</ele><time>2026-04-18T12:57:14Z</time></trkpt><trkpt lat="43.822488539409036" lon="11.606074435048123"><ele>963.0</ele><time>2026-04-18T12:57:15Z</time></trkpt><trkpt lat="43.822490192723784" lon="11.606165094431958"><ele>963.0</ele><time>2026-04-18T12:57:16Z</time></trkpt><trkpt lat="43.822486692607384" lon="11.606274280614443"><ele>963.0</ele><time>2026-04-18T12:57:17Z</time></trkpt><trkpt lat="43.82245798069278" lon="11.60640198002939"><ele>963.0</ele><time>2026-04-18T12:57:18Z</time></trkpt><trkpt lat="43.822402662142885" lon="11.606547568453088"><ele>963.0</ele><time>2026-04-18T12:57:19Z</time></trkpt><trkpt lat="43.82239977752156" lon="11.6066776682673"><ele>963.0</ele><time>2026-04-18T12:57:20Z</time></trkpt><trkpt lat="43.82242172985772" lon="11.606780611515921"><ele>963.0</ele><time>2026-04-18T12:57:21Z</time></trkpt><trkpt lat="43.82242003866242" lon="11.606871988883547"><ele>963.0</ele><time>2026-04-18T12:57:22Z</time></trkpt><trkpt lat="43.822400502225044" lon="11.60695989844501"><ele>963.0</ele><time>2026-04-18T12:57:23Z</time></trkpt><trkpt lat="43.82237075654085" lon="11.607058134027266"><ele>960.8333333333334</ele><time>2026-04-18T12:57:25Z</time></trkpt><trkpt lat="43.8223659620031" lon="11.60718767847382"><ele>958.6666666666667</ele><time>2026-04-18T12:57:27Z</time></trkpt><trkpt lat="43.82237022529883" lon="11.6073098922801"><ele>956.5</ele><time>2026-04-18T12:57:28Z</time></trkpt><trkpt lat="43.822379057551" lon="11.607429451501755"><ele>954.3333333333334</ele><time>2026-04-18T12:57:29Z</time></trkpt><trkpt lat="43.82239631753448" lon="11.607526197698391"><ele>952.1666666666667</ele><time>2026-04-18T12:57:30Z</time></trkpt><trkpt lat="43.822415452600346" lon="11.607610373903375"><ele>950.0</ele><time>2026-04-18T12:57:31Z</time></trkpt><trkpt lat="43.82244303146592" lon="11.607703490806836"><ele>950.0</ele><time>2026-04-18T12:57:34Z</time></trkpt><trkpt lat="43.82244629176935" lon="11.607805513112753"><ele>950.0</ele><time>2026-04-18T12:57:36Z</time></trkpt><trkpt lat="43.822466592486165" lon="11.608002305400545"><ele>950.0</ele><time>2026-04-18T12:57:37Z</time></trkpt><trkpt lat="43.8223969731432" lon="11.608136428067166"><ele>950.0</ele><time>2026-04-18T12:57:39Z</time></trkpt><trkpt lat="43.82233208660164" lon="11.608251908303222"><ele>950.0</ele><time>2026-04-18T12:57:41Z</time></trkpt><trkpt lat="43.822293310636326" lon="11.608390253624622"><ele>947.0</ele><time>2026-04-18T12:57:43Z</time></trkpt><trkpt lat="43.822236767723204" lon="11.608502184491154"><ele>944.0</ele><time>2026-04-18T12:57:45Z</time></trkpt><trkpt lat="43.82212464293797" lon="11.608517132026945"><ele>941.0</ele><time>2026-04-18T12:57:47Z</time></trkpt><trkpt lat="43.82202886956274" lon="11.608474484272453"><ele>938.0</ele><time>2026-04-18T12:57:49Z</time></trkpt><trkpt lat="43.82195049808164" lon="11.60843587862257"><ele>935.0</ele><time>2026-04-18T12:57:51Z</time></trkpt><trkpt lat="43.82188018363807" lon="11.608398545225093"><ele>934.0000000000001</ele><time>2026-04-18T12:57:53Z</time></trkpt><trkpt lat="43.821813700899305" lon="11.608362550770147"><ele>933.0</ele><time>2026-04-18T12:57:55Z</time></trkpt><trkpt lat="43.82173189872377" lon="11.60831196061846"><ele>932.0</ele><time>2026-04-18T12:57:57Z</time></trkpt><trkpt lat="43.82166157505561" lon="11.608278703966487"><ele>931.0</ele><time>2026-04-18T12:57:59Z</time></trkpt><trkpt lat="43.82160094247088" lon="11.608176450411312"><ele>930.0000000000001</ele><time>2026-04-18T12:58:01Z</time></trkpt><trkpt lat="43.821538708397874" lon="11.60812759999352"><ele>929.0</ele><time>2026-04-18T12:58:03Z</time></trkpt><trkpt lat="43.82143933830671" lon="11.60808337139486"><ele>929.0000000000001</ele><time>2026-04-18T12:58:06Z</time></trkpt><trkpt lat="43.82135921409935" lon="11.608106640223511"><ele>929.0</ele><time>2026-04-18T12:58:08Z</time></trkpt><trkpt lat="43.82130062239548" lon="11.60807062755366"><ele>929.0</ele><time>2026-04-18T12:58:10Z</time></trkpt><trkpt lat="43.82122926149746" lon="11.608035656659114"><ele>929.0</ele><time>2026-04-18T12:58:12Z</time></trkpt><trkpt lat="43.82114983200591" lon="11.607965773734623"><ele>929.0000000000001</ele><time>2026-04-18T12:58:14Z</time></trkpt><trkpt lat="43.82106178280477" lon="11.607922234226473"><ele>929.0</ele><time>2026-04-18T12:58:17Z</time></trkpt><trkpt lat="43.82096805858524" lon="11.60786456787073"><ele>928.8000000000001</ele><time>2026-04-18T12:58:19Z</time></trkpt><trkpt lat="43.82089158153548" lon="11.607805559623712"><ele>928.6000000000001</ele><time>2026-04-18T12:58:21Z</time></trkpt><trkpt lat="43.820807807025055" lon="11.607754510366119"><ele>928.4</ele><time>2026-04-18T12:58:23Z</time></trkpt><trkpt lat="43.82073607922267" lon="11.607645829896278"><ele>928.2</ele><time>2026-04-18T12:58:25Z</time></trkpt><trkpt lat="43.820686793198824" lon="11.607575398432234"><ele>928.0</ele><time>2026-04-18T12:58:26Z</time></trkpt><trkpt lat="43.820622054558356" lon="11.607477179031768"><ele>927.9999999999999</ele><time>2026-04-18T12:58:28Z</time></trkpt><trkpt lat="43.82055135014895" lon="11.607466598568015"><ele>928.0</ele><time>2026-04-18T12:58:30Z</time></trkpt><trkpt lat="43.82045187944094" lon="11.60745412038791"><ele>928.0</ele><time>2026-04-18T12:58:32Z</time></trkpt><trkpt lat="43.82037436159855" lon="11.60743659041602"><ele>928.0</ele><time>2026-04-18T12:58:34Z</time></trkpt><trkpt lat="43.820297686541544" lon="11.607411917677764"><ele>927.9999999999999</ele><time>2026-04-18T12:58:36Z</time></trkpt><trkpt lat="43.82022591843035" lon="11.60740561596963"><ele>928.0</ele><time>2026-04-18T12:58:39Z</time></trkpt><trkpt lat="43.820121507889425" lon="11.60737737862563"><ele>924.5999999999999</ele><time>2026-04-18T12:58:41Z</time></trkpt><trkpt lat="43.82004583674847" lon="11.607383700820384"><ele>921.1999999999999</ele><time>2026-04-18T12:58:43Z</time></trkpt><trkpt lat="43.81992198266057" lon="11.607430101455662"><ele>917.8</ele><time>2026-04-18T12:58:45Z</time></trkpt><trkpt lat="43.81982668296365" lon="11.607459752349584"><ele>914.4</ele><time>2026-04-18T12:58:47Z</time></trkpt><trkpt lat="43.81974649107301" lon="11.607434909464205"><ele>911.0</ele><time>2026-04-18T12:58:50Z</time></trkpt><trkpt lat="43.81967488060909" lon="11.607493502500771"><ele>911.0000000000001</ele><time>2026-04-18T12:58:53Z</time></trkpt><trkpt lat="43.81961114501775" lon="11.607497727892046"><ele>911.0</ele><time>2026-04-18T12:58:55Z</time></trkpt><trkpt lat="43.81954783381707" lon="11.607518699343078"><ele>911.0</ele><time>2026-04-18T12:58:57Z</time></trkpt><trkpt lat="43.81947017823514" lon="11.607535005455343"><ele>911.0</ele><time>2026-04-18T12:58:59Z</time></trkpt><trkpt lat="43.81940155707127" lon="11.607580483760719"><ele>911.0000000000001</ele><time>2026-04-18T12:59:01Z</time></trkpt><trkpt lat="43.819384115117266" lon="11.60768780043248"><ele>911.0</ele><time>2026-04-18T12:59:03Z</time></trkpt><trkpt lat="43.8193366408544" lon="11.607792633549689"><ele>912.0</ele><time>2026-04-18T12:59:05Z</time></trkpt><trkpt lat="43.81928783723017" lon="11.607987740330918"><ele>912.9999999999999</ele><time>2026-04-18T12:59:07Z</time></trkpt><trkpt lat="43.819229303504194" lon="11.608054976282322"><ele>913.9999999999999</ele><time>2026-04-18T12:59:08Z</time></trkpt><trkpt lat="43.819151981283774" lon="11.607994432724016"><ele>915.0</ele><time>2026-04-18T12:59:10Z</time></trkpt><trkpt lat="43.81906011783383" lon="11.608036467822608"><ele>916.0</ele><time>2026-04-18T12:59:13Z</time></trkpt><trkpt lat="43.819059550920116" lon="11.608140524321"><ele>915.9999999999999</ele><time>2026-04-18T12:59:16Z</time></trkpt><trkpt lat="43.81911488989124" lon="11.608212963250672"><ele>916.0</ele><time>2026-04-18T12:59:25Z</time></trkpt><trkpt lat="43.81920135638016" lon="11.608312872981193"><ele>916.0</ele><time>2026-04-18T12:59:29Z</time></trkpt><trkpt lat="43.81925437063878" lon="11.608376406221138"><ele>916.0</ele><time>2026-04-18T12:59:30Z</time></trkpt><trkpt lat="43.819347104586065" lon="11.60845043857208"><ele>915.9999999999999</ele><time>2026-04-18T12:59:32Z</time></trkpt><trkpt lat="43.81941900517265" lon="11.608492804106543"><ele>916.0</ele><time>2026-04-18T12:59:34Z</time></trkpt><trkpt lat="43.819484331233944" lon="11.608536553169865"><ele>914.9999999999999</ele><time>2026-04-18T12:59:36Z</time></trkpt><trkpt lat="43.81951120458717" lon="11.60863271217584"><ele>914.0</ele><time>2026-04-18T12:59:39Z</time></trkpt><trkpt lat="43.81947238067043" lon="11.608723632969797"><ele>913.0</ele><time>2026-04-18T12:59:46Z</time></trkpt><trkpt lat="43.81946188644934" lon="11.608896414016167"><ele>912.0</ele><time>2026-04-18T12:59:48Z</time></trkpt><trkpt lat="43.819476237289024" lon="11.609020127924325"><ele>910.9999999999999</ele><time>2026-04-18T12:59:50Z</time></trkpt><trkpt lat="43.81941613521446" lon="11.608993992278693"><ele>910.0</ele><time>2026-04-18T12:59:55Z</time></trkpt><trkpt lat="43.819464029913924" lon="11.60910283377294"><ele>912.1428571428571</ele><time>2026-04-18T13:00:49Z</time></trkpt><trkpt lat="43.81944018918374" lon="11.60900626206683"><ele>914.2857142857142</ele><time>2026-04-18T13:01:18Z</time></trkpt><trkpt lat="43.81948279712778" lon="11.60907241302062"><ele>916.4285714285714</ele><time>2026-04-18T13:01:27Z</time></trkpt><trkpt lat="43.81941538124312" lon="11.609061899256911"><ele>918.5714285714286</ele><time>2026-04-18T13:02:09Z</time></trkpt><trkpt lat="43.81937326152429" lon="11.60899479371351"><ele>920.7142857142857</ele><time>2026-04-18T13:02:17Z</time></trkpt><trkpt lat="43.81944583248832" lon="11.609054598310617"><ele>922.8571428571429</ele><time>2026-04-18T13:02:46.999Z</time></trkpt><trkpt lat="43.819503956887914" lon="11.609124493795765"><ele>925.0</ele><time>2026-04-18T13:02:52Z</time></trkpt><trkpt lat="43.81956637661546" lon="11.609152264182757"><ele>924.9999999999999</ele><time>2026-04-18T13:03:25Z</time></trkpt><trkpt lat="43.81960139126781" lon="11.609250314104159"><ele>925.0</ele><time>2026-04-18T13:03:29Z</time></trkpt><trkpt lat="43.819632547941644" lon="11.609334655076726"><ele>925.0</ele><time>2026-04-18T13:03:30Z</time></trkpt><trkpt lat="43.81965576783164" lon="11.609437665608938"><ele>925.0</ele><time>2026-04-18T13:03:31Z</time></trkpt><trkpt lat="43.81967095746328" lon="11.609523830093792"><ele>924.9999999999999</ele><time>2026-04-18T13:03:32Z</time></trkpt><trkpt lat="43.81973004520568" lon="11.609637469263465"><ele>925.0</ele><time>2026-04-18T13:03:34Z</time></trkpt><trkpt lat="43.81982720069464" lon="11.609734721086117"><ele>923.0</ele><time>2026-04-18T13:03:36Z</time></trkpt><trkpt lat="43.8199047743208" lon="11.609759306981951"><ele>921.0</ele><time>2026-04-18T13:03:37Z</time></trkpt><trkpt lat="43.820002730481015" lon="11.609783820994279"><ele>919.0</ele><time>2026-04-18T13:03:38Z</time></trkpt><trkpt lat="43.82008345453817" lon="11.609829754679296"><ele>917.0</ele><time>2026-04-18T13:03:39Z</time></trkpt><trkpt lat="43.82018531366228" lon="11.609887463222512"><ele>915.0</ele><time>2026-04-18T13:03:42Z</time></trkpt><trkpt lat="43.820264798469815" lon="11.609977630435772"><ele>915.0</ele><time>2026-04-18T13:03:44Z</time></trkpt><trkpt lat="43.8202981330827" lon="11.610054145598099"><ele>915.0</ele><time>2026-04-18T13:03:46Z</time></trkpt><trkpt lat="43.82034179840849" lon="11.610216069891775"><ele>915.0</ele><time>2026-04-18T13:03:48Z</time></trkpt><trkpt lat="43.82039172879643" lon="11.610277923164869"><ele>915.0</ele><time>2026-04-18T13:03:49Z</time></trkpt><trkpt lat="43.820451143885315" lon="11.610317473730758"><ele>915.0</ele><time>2026-04-18T13:03:50Z</time></trkpt><trkpt lat="43.82052625296338" lon="11.610384432043897"><ele>915.0</ele><time>2026-04-18T13:03:51Z</time></trkpt><trkpt lat="43.82060019570911" lon="11.610472677465008"><ele>911.6</ele><time>2026-04-18T13:03:52Z</time></trkpt><trkpt lat="43.82070998416349" lon="11.610524404803842"><ele>908.2</ele><time>2026-04-18T13:03:53Z</time></trkpt><trkpt lat="43.82079638446191" lon="11.61059141200151"><ele>904.8</ele><time>2026-04-18T13:03:54Z</time></trkpt><trkpt lat="43.82086645713776" lon="11.610655024443274"><ele>901.4</ele><time>2026-04-18T13:03:55Z</time></trkpt><trkpt lat="43.82094401736598" lon="11.610744747875337"><ele>898.0</ele><time>2026-04-18T13:03:57Z</time></trkpt><trkpt lat="43.8210283339761" lon="11.610885808299528"><ele>898.0</ele><time>2026-04-18T13:03:59Z</time></trkpt><trkpt lat="43.82106074913343" lon="11.610968875881113"><ele>898.0</ele><time>2026-04-18T13:04:00Z</time></trkpt><trkpt lat="43.82107169345351" lon="11.611148609092545"><ele>898.0</ele><time>2026-04-18T13:04:02Z</time></trkpt><trkpt lat="43.82107002029307" lon="11.611270836531185"><ele>898.0</ele><time>2026-04-18T13:04:03Z</time></trkpt><trkpt lat="43.821067249874595" lon="11.61139548811447"><ele>898.0</ele><time>2026-04-18T13:04:04Z</time></trkpt><trkpt lat="43.82107135193463" lon="11.61153271298576"><ele>901.0</ele><time>2026-04-18T13:04:06Z</time></trkpt><trkpt lat="43.8210304328359" lon="11.611603675212903"><ele>904.0</ele><time>2026-04-18T13:04:09Z</time></trkpt><trkpt lat="43.820998441117524" lon="11.61173743809718"><ele>907.0</ele><time>2026-04-18T13:04:11Z</time></trkpt><trkpt lat="43.821013910233326" lon="11.611875445841818"><ele>910.0</ele><time>2026-04-18T13:04:15Z</time></trkpt><trkpt lat="43.82111262611968" lon="11.611918148641934"><ele>913.0</ele><time>2026-04-18T13:04:17Z</time></trkpt><trkpt lat="43.8212156282655" lon="11.611952045338603"><ele>913.0</ele><time>2026-04-18T13:04:19Z</time></trkpt><trkpt lat="43.821336161325114" lon="11.611992511802882"><ele>913.0</ele><time>2026-04-18T13:04:44.999Z</time></trkpt><trkpt lat="43.821418168320534" lon="11.61194954110981"><ele>913.0</ele><time>2026-04-18T13:04:47.999Z</time></trkpt><trkpt lat="43.82150572441637" lon="11.611976242304824"><ele>913.0</ele><time>2026-04-18T13:04:49.999Z</time></trkpt><trkpt lat="43.82157910249975" lon="11.612021465208645"><ele>913.0</ele><time>2026-04-18T13:04:51.999Z</time></trkpt><trkpt lat="43.8216777285992" lon="11.612011586979166"><ele>912.8</ele><time>2026-04-18T13:04:54.999Z</time></trkpt><trkpt lat="43.82178245274075" lon="11.612041618091698"><ele>912.5999999999999</ele><time>2026-04-18T13:04:57Z</time></trkpt><trkpt lat="43.82187830518398" lon="11.612063790858853"><ele>912.4000000000001</ele><time>2026-04-18T13:04:59Z</time></trkpt><trkpt lat="43.82196833530102" lon="11.61200927895902"><ele>912.2</ele><time>2026-04-18T13:05:01Z</time></trkpt><trkpt lat="43.82203151926349" lon="11.61199237722014"><ele>912.0</ele><time>2026-04-18T13:05:02Z</time></trkpt><trkpt lat="43.82215545156667" lon="11.611955455859952"><ele>912.0</ele><time>2026-04-18T13:05:04Z</time></trkpt><trkpt lat="43.822221168785525" lon="11.611941898434956"><ele>912.0</ele><time>2026-04-18T13:05:05Z</time></trkpt><trkpt lat="43.822283745170175" lon="11.611930539370984"><ele>912.0</ele><time>2026-04-18T13:05:06Z</time></trkpt><trkpt lat="43.822364298359936" lon="11.611912525964605"><ele>912.0</ele><time>2026-04-18T13:05:08Z</time></trkpt><trkpt lat="43.82243197016538" lon="11.611930324744868"><ele>912.0</ele><time>2026-04-18T13:05:10Z</time></trkpt><trkpt lat="43.82253001225252" lon="11.611979584642116"><ele>912.0</ele><time>2026-04-18T13:05:12Z</time></trkpt><trkpt lat="43.822620374412466" lon="11.612000816256842"><ele>905.2</ele><time>2026-04-18T13:05:14Z</time></trkpt><trkpt lat="43.82270885988727" lon="11.612018321050277"><ele>898.4000000000001</ele><time>2026-04-18T13:05:16Z</time></trkpt><trkpt lat="43.82280421143574" lon="11.612039453099728"><ele>891.5999999999999</ele><time>2026-04-18T13:05:18Z</time></trkpt><trkpt lat="43.8229175446558" lon="11.612097547640186"><ele>884.8</ele><time>2026-04-18T13:05:20Z</time></trkpt><trkpt lat="43.822994441697304" lon="11.612173501170112"><ele>878.0</ele><time>2026-04-18T13:05:22Z</time></trkpt><trkpt lat="43.82304078640797" lon="11.612237716850212"><ele>878.0</ele><time>2026-04-18T13:05:24Z</time></trkpt><trkpt lat="43.823072463244685" lon="11.61235535465622"><ele>878.0</ele><time>2026-04-18T13:05:26Z</time></trkpt><trkpt lat="43.82311572881295" lon="11.612421358733647"><ele>878.0</ele><time>2026-04-18T13:05:27Z</time></trkpt><trkpt lat="43.82316195986858" lon="11.612530429283192"><ele>878.0</ele><time>2026-04-18T13:05:29Z</time></trkpt><trkpt lat="43.82316837003466" lon="11.612693755402741"><ele>878.0</ele><time>2026-04-18T13:05:32Z</time></trkpt><trkpt lat="43.82317115441058" lon="11.612826784274073"><ele>879.6666666666667</ele><time>2026-04-18T13:05:35Z</time></trkpt><trkpt lat="43.82311303221126" lon="11.612967544675415"><ele>881.3333333333334</ele><time>2026-04-18T13:05:37Z</time></trkpt><trkpt lat="43.82307116987569" lon="11.61304126295229"><ele>883.0</ele><time>2026-04-18T13:05:38Z</time></trkpt><trkpt lat="43.82302316032179" lon="11.613145922381838"><ele>884.6666666666667</ele><time>2026-04-18T13:05:39Z</time></trkpt><trkpt lat="43.82300442405805" lon="11.613257084911073"><ele>886.3333333333334</ele><time>2026-04-18T13:05:40Z</time></trkpt><trkpt lat="43.822966163483855" lon="11.613337028225757"><ele>888.0</ele><time>2026-04-18T13:05:41Z</time></trkpt><trkpt lat="43.82290483794428" lon="11.613415538274436"><ele>888.0</ele><time>2026-04-18T13:05:43Z</time></trkpt><trkpt lat="43.82288651200809" lon="11.613524766781286"><ele>888.0</ele><time>2026-04-18T13:05:47Z</time></trkpt><trkpt lat="43.822849313774924" lon="11.613598589475986"><ele>888.0</ele><time>2026-04-18T13:05:52Z</time></trkpt><trkpt lat="43.82281464933342" lon="11.613674488903813"><ele>888.0</ele><time>2026-04-18T13:05:56Z</time></trkpt><trkpt lat="43.82276698504126" lon="11.613747840173877"><ele>888.0</ele><time>2026-04-18T13:05:58Z</time></trkpt><trkpt lat="43.822784932155734" lon="11.613844650591304"><ele>888.0</ele><time>2026-04-18T13:06:02Z</time></trkpt><trkpt lat="43.822812786044096" lon="11.613744561964465"><ele>888.0</ele><time>2026-04-18T13:06:16Z</time></trkpt><trkpt lat="43.822892480656826" lon="11.613714361795191"><ele>888.0</ele><time>2026-04-18T13:06:18Z</time></trkpt><trkpt lat="43.82297382414537" lon="11.613706248974303"><ele>888.0</ele><time>2026-04-18T13:06:20Z</time></trkpt><trkpt lat="43.82303458762663" lon="11.613642253411706"><ele>888.0</ele><time>2026-04-18T13:06:22Z</time></trkpt><trkpt lat="43.8230932068086" lon="11.613578568608062"><ele>888.0</ele><time>2026-04-18T13:06:24Z</time></trkpt><trkpt lat="43.82316490915427" lon="11.613478659738004"><ele>888.0</ele><time>2026-04-18T13:06:26Z</time></trkpt><trkpt lat="43.82320702494481" lon="11.613387204964544"><ele>888.0</ele><time>2026-04-18T13:06:28Z</time></trkpt><trkpt lat="43.82327356847123" lon="11.61335666196432"><ele>888.0</ele><time>2026-04-18T13:06:30Z</time></trkpt><trkpt lat="43.823353315611335" lon="11.613315523852458"><ele>888.0</ele><time>2026-04-18T13:06:32Z</time></trkpt><trkpt lat="43.823430336226664" lon="11.613242828567223"><ele>888.0</ele><time>2026-04-18T13:06:33.999Z</time></trkpt><trkpt lat="43.82351488575764" lon="11.613139249355388"><ele>888.0</ele><time>2026-04-18T13:06:35.999Z</time></trkpt><trkpt lat="43.823553630094224" lon="11.613066876306048"><ele>888.0</ele><time>2026-04-18T13:06:36.999Z</time></trkpt><trkpt lat="43.82363709880915" lon="11.612962736322725"><ele>888.3333333333334</ele><time>2026-04-18T13:06:38.999Z</time></trkpt><trkpt lat="43.82370753703029" lon="11.612942591300472"><ele>888.6666666666667</ele><time>2026-04-18T13:06:40.999Z</time></trkpt><trkpt lat="43.82374205020159" lon="11.613056370740034"><ele>889.0</ele><time>2026-04-18T13:06:42.999Z</time></trkpt><trkpt lat="43.82368619556924" lon="11.613161365707706"><ele>889.3333333333334</ele><time>2026-04-18T13:06:44.999Z</time></trkpt><trkpt lat="43.82367874195708" lon="11.61324987027573"><ele>889.6666666666667</ele><time>2026-04-18T13:06:45.999Z</time></trkpt><trkpt lat="43.823711401785445" lon="11.613350406320423"><ele>890.0</ele><time>2026-04-18T13:06:46.999Z</time></trkpt><trkpt lat="43.823735680080844" lon="11.613456114709743"><ele>890.0000000000001</ele><time>2026-04-18T13:06:47.999Z</time></trkpt><trkpt lat="43.823790568120046" lon="11.613551695356556"><ele>890.0</ele><time>2026-04-18T13:06:49.999Z</time></trkpt><trkpt lat="43.82383865806635" lon="11.613666763582561"><ele>890.0</ele><time>2026-04-18T13:06:50.999Z</time></trkpt><trkpt lat="43.82391307590984" lon="11.613760552618313"><ele>890.0</ele><time>2026-04-18T13:06:52.999Z</time></trkpt><trkpt lat="43.82391297098298" lon="11.613862648843623"><ele>890.0000000000001</ele><time>2026-04-18T13:06:54.999Z</time></trkpt><trkpt lat="43.82390809340347" lon="11.613973613683372"><ele>890.0</ele><time>2026-04-18T13:06:56.999Z</time></trkpt><trkpt lat="43.82393241945204" lon="11.61414126708475"><ele>893.1666666666667</ele><time>2026-04-18T13:06:58.999Z</time></trkpt><trkpt lat="43.82393700158861" lon="11.614249779381307"><ele>896.3333333333334</ele><time>2026-04-18T13:06:59.999Z</time></trkpt><trkpt lat="43.823929087463334" lon="11.614394441140407"><ele>899.5</ele><time>2026-04-18T13:07:02Z</time></trkpt><trkpt lat="43.82392149139144" lon="11.61450432489322"><ele>902.6666666666667</ele><time>2026-04-18T13:07:03Z</time></trkpt><trkpt lat="43.82391718990895" lon="11.614592828679294"><ele>905.8333333333334</ele><time>2026-04-18T13:07:04Z</time></trkpt><trkpt lat="43.82393949632585" lon="11.61472724757822"><ele>909.0</ele><time>2026-04-18T13:07:08Z</time></trkpt><trkpt lat="43.8240225032007" lon="11.614751373417883"><ele>911.5</ele><time>2026-04-18T13:07:10Z</time></trkpt><trkpt lat="43.82411396715126" lon="11.6146768859083"><ele>914.0</ele><time>2026-04-18T13:07:12Z</time></trkpt><trkpt lat="43.824200961068364" lon="11.614666677171288"><ele>916.5</ele><time>2026-04-18T13:07:14Z</time></trkpt><trkpt lat="43.824246478006756" lon="11.61474668194205"><ele>919.0</ele><time>2026-04-18T13:07:17Z</time></trkpt><trkpt lat="43.82421866883926" lon="11.61485196585532"><ele>921.5</ele><time>2026-04-18T13:07:20Z</time></trkpt><trkpt lat="43.82424023491093" lon="11.614982475382549"><ele>924.0</ele><time>2026-04-18T13:07:22Z</time></trkpt><trkpt lat="43.82423268098474" lon="11.615079593004712"><ele>924.0</ele><time>2026-04-18T13:07:24Z</time></trkpt><trkpt lat="43.82422264819356" lon="11.615168203786473"><ele>924.0</ele><time>2026-04-18T13:07:26Z</time></trkpt><trkpt lat="43.82420506192703" lon="11.61529276420315"><ele>924.0</ele><time>2026-04-18T13:07:28Z</time></trkpt><trkpt lat="43.82414737763752" lon="11.615344966057933"><ele>924.0</ele><time>2026-04-18T13:07:30Z</time></trkpt><trkpt lat="43.82406159997992" lon="11.615450233736697"><ele>924.0</ele><time>2026-04-18T13:07:32Z</time></trkpt><trkpt lat="43.82400496523909" lon="11.61556732087503"><ele>924.0</ele><time>2026-04-18T13:07:34Z</time></trkpt><trkpt lat="43.82396572800893" lon="11.615637658560482"><ele>926.2</ele><time>2026-04-18T13:07:37Z</time></trkpt><trkpt lat="43.82393415639462" lon="11.615724220135231"><ele>928.4000000000001</ele><time>2026-04-18T13:07:39Z</time></trkpt><trkpt lat="43.82391023620198" lon="11.615811031964459"><ele>930.6</ele><time>2026-04-18T13:07:42Z</time></trkpt><trkpt lat="43.82384607571082" lon="11.616010096997458"><ele>932.8</ele><time>2026-04-18T13:07:43Z</time></trkpt><trkpt lat="43.82381268273014" lon="11.616147104957442"><ele>935.0</ele><time>2026-04-18T13:07:45Z</time></trkpt><trkpt lat="43.82379768521058" lon="11.616241783500465"><ele>935.6</ele><time>2026-04-18T13:07:47Z</time></trkpt><trkpt lat="43.82377417628425" lon="11.616373898333777"><ele>936.2</ele><time>2026-04-18T13:07:50Z</time></trkpt><trkpt lat="43.82375157470274" lon="11.61649034197638"><ele>936.8</ele><time>2026-04-18T13:07:52Z</time></trkpt><trkpt lat="43.82372885653992" lon="11.616629450326267"><ele>937.4</ele><time>2026-04-18T13:07:54Z</time></trkpt><trkpt lat="43.823694171053035" lon="11.6167636642293"><ele>938.0</ele><time>2026-04-18T13:07:56Z</time></trkpt><trkpt lat="43.82362495354929" lon="11.61686298383181"><ele>938.0</ele><time>2026-04-18T13:07:58Z</time></trkpt><trkpt lat="43.82355955510843" lon="11.616875004120937"><ele>938.0</ele><time>2026-04-18T13:08:00Z</time></trkpt><trkpt lat="43.82346760669659" lon="11.61692720065171"><ele>938.0</ele><time>2026-04-18T13:08:02Z</time></trkpt><trkpt lat="43.823409318022414" lon="11.616973653592028"><ele>938.0</ele><time>2026-04-18T13:08:03Z</time></trkpt><trkpt lat="43.823366008761425" lon="11.617073979726422"><ele>938.0</ele><time>2026-04-18T13:08:05Z</time></trkpt><trkpt lat="43.82331988023628" lon="11.617246291290918"><ele>940.8333333333334</ele><time>2026-04-18T13:08:07Z</time></trkpt><trkpt lat="43.82324472069657" lon="11.617283006568794"><ele>943.6666666666667</ele><time>2026-04-18T13:08:10Z</time></trkpt><trkpt lat="43.82316655606615" lon="11.617256200736234"><ele>946.5</ele><time>2026-04-18T13:08:12Z</time></trkpt><trkpt lat="43.82307121520431" lon="11.617319888699711"><ele>949.3333333333333</ele><time>2026-04-18T13:08:14Z</time></trkpt><trkpt lat="43.82298392202837" lon="11.617320421086152"><ele>952.1666666666666</ele><time>2026-04-18T13:08:17Z</time></trkpt><trkpt lat="43.8229235583725" lon="11.617348963432542"><ele>955.0</ele><time>2026-04-18T13:08:19Z</time></trkpt><trkpt lat="43.822841348970044" lon="11.617335384652911"><ele>955.0</ele><time>2026-04-18T13:08:20.999Z</time></trkpt><trkpt lat="43.82272814023955" lon="11.61735227836518"><ele>955.0</ele><time>2026-04-18T13:08:22.999Z</time></trkpt><trkpt lat="43.8226324987569" lon="11.617330113888219"><ele>955.0</ele><time>2026-04-18T13:08:24.999Z</time></trkpt><trkpt lat="43.822561944546784" lon="11.617302472090504"><ele>955.0</ele><time>2026-04-18T13:08:26.999Z</time></trkpt><trkpt lat="43.8224653021634" lon="11.61724411945917"><ele>955.0</ele><time>2026-04-18T13:08:28.999Z</time></trkpt><trkpt lat="43.822386428596545" lon="11.617188332804998"><ele>956.1666666666666</ele><time>2026-04-18T13:08:30.999Z</time></trkpt><trkpt lat="43.82230189533606" lon="11.61712297795116"><ele>957.3333333333333</ele><time>2026-04-18T13:08:32.999Z</time></trkpt><trkpt lat="43.82223573422169" lon="11.617111311245367"><ele>958.5</ele><time>2026-04-18T13:08:34.999Z</time></trkpt><trkpt lat="43.822157583736946" lon="11.617114617358428"><ele>959.6666666666667</ele><time>2026-04-18T13:08:36.999Z</time></trkpt><trkpt lat="43.822067659749116" lon="11.61713990055438"><ele>960.8333333333334</ele><time>2026-04-18T13:08:38.999Z</time></trkpt><trkpt lat="43.82199196665278" lon="11.617207020032666"><ele>962.0</ele><time>2026-04-18T13:08:40.999Z</time></trkpt><trkpt lat="43.82194030217133" lon="11.617265407406558"><ele>961.9999999999999</ele><time>2026-04-18T13:08:41.999Z</time></trkpt><trkpt lat="43.82187919423611" lon="11.617308838116468"><ele>962.0</ele><time>2026-04-18T13:08:42.999Z</time></trkpt><trkpt lat="43.82181060503965" lon="11.617323405390426"><ele>961.9999999999999</ele><time>2026-04-18T13:08:43.999Z</time></trkpt><trkpt lat="43.8217401243216" lon="11.617332460242356"><ele>961.9999999999999</ele><time>2026-04-18T13:08:44.999Z</time></trkpt><trkpt lat="43.821665683482216" lon="11.617322373910534"><ele>962.0</ele><time>2026-04-18T13:08:45.999Z</time></trkpt><trkpt lat="43.82159767972197" lon="11.617311951678962"><ele>961.9999999999999</ele><time>2026-04-18T13:08:46.999Z</time></trkpt><trkpt lat="43.821531812102215" lon="11.617335415838728"><ele>961.9999999999999</ele><time>2026-04-18T13:08:47.999Z</time></trkpt><trkpt lat="43.82142770463611" lon="11.617368892353209"><ele>963.7142857142856</ele><time>2026-04-18T13:08:50.999Z</time></trkpt><trkpt lat="43.821343735286426" lon="11.617406919253908"><ele>965.4285714285713</ele><time>2026-04-18T13:08:52.999Z</time></trkpt><trkpt lat="43.821286686231474" lon="11.617461053923824"><ele>967.1428571428571</ele><time>2026-04-18T13:08:53.999Z</time></trkpt><trkpt lat="43.82122939525842" lon="11.617500947193145"><ele>968.8571428571428</ele><time>2026-04-18T13:08:54.999Z</time></trkpt><trkpt lat="43.8211557601386" lon="11.61751014171618"><ele>970.5714285714284</ele><time>2026-04-18T13:08:57.999Z</time></trkpt><trkpt lat="43.82108050286018" lon="11.617454232909015"><ele>972.2857142857143</ele><time>2026-04-18T13:09:00.999Z</time></trkpt><trkpt lat="43.82102919672477" lon="11.617512410040632"><ele>974.0</ele><time>2026-04-18T13:09:02.999Z</time></trkpt><trkpt lat="43.82102687374605" lon="11.617599854794335"><ele>975.8333333333334</ele><time>2026-04-18T13:09:03.999Z</time></trkpt><trkpt lat="43.820977029199696" lon="11.617681083919976"><ele>977.6666666666667</ele><time>2026-04-18T13:09:05.999Z</time></trkpt><trkpt lat="43.820926283664946" lon="11.617777580758624"><ele>979.5</ele><time>2026-04-18T13:09:08Z</time></trkpt><trkpt lat="43.820875839337404" lon="11.617903763824446"><ele>981.3333333333333</ele><time>2026-04-18T13:09:10Z</time></trkpt><trkpt lat="43.82082679774401" lon="11.617958801333037"><ele>983.1666666666666</ele><time>2026-04-18T13:09:11Z</time></trkpt><trkpt lat="43.820783684488845" lon="11.618024958237825"><ele>985.0</ele><time>2026-04-18T13:09:13Z</time></trkpt><trkpt lat="43.820714265930384" lon="11.61809268814584"><ele>986.6</ele><time>2026-04-18T13:09:15Z</time></trkpt><trkpt lat="43.820568663563385" lon="11.618254192768683"><ele>988.2</ele><time>2026-04-18T13:09:18Z</time></trkpt><trkpt lat="43.820513192222734" lon="11.61829795323788"><ele>989.8</ele><time>2026-04-18T13:09:19Z</time></trkpt><trkpt lat="43.82044155455385" lon="11.618324734349539"><ele>991.4</ele><time>2026-04-18T13:09:20Z</time></trkpt><trkpt lat="43.820376816911846" lon="11.618344680397993"><ele>993.0</ele><time>2026-04-18T13:09:21Z</time></trkpt><trkpt lat="43.82031283442502" lon="11.61836025648759"><ele>993.0</ele><time>2026-04-18T13:09:22Z</time></trkpt><trkpt lat="43.82023194335623" lon="11.618391509463349"><ele>993.0</ele><time>2026-04-18T13:09:24Z</time></trkpt><trkpt lat="43.82015609981561" lon="11.618429944056505"><ele>993.0</ele><time>2026-04-18T13:09:26Z</time></trkpt><trkpt lat="43.82007192975868" lon="11.618527307404888"><ele>993.0</ele><time>2026-04-18T13:09:28Z</time></trkpt><trkpt lat="43.820006814559285" lon="11.61864652459384"><ele>993.0</ele><time>2026-04-18T13:09:30Z</time></trkpt><trkpt lat="43.81994886243818" lon="11.618692099665223"><ele>993.0</ele><time>2026-04-18T13:09:31Z</time></trkpt><trkpt lat="43.8198761381379" lon="11.618736008522868"><ele>994.8333333333334</ele><time>2026-04-18T13:09:32Z</time></trkpt><trkpt lat="43.81979733337977" lon="11.618754442293293"><ele>996.6666666666667</ele><time>2026-04-18T13:09:33Z</time></trkpt><trkpt lat="43.819731380256826" lon="11.6187661943924"><ele>998.5</ele><time>2026-04-18T13:09:34Z</time></trkpt><trkpt lat="43.81961813694269" lon="11.618737713358838"><ele>1000.3333333333334</ele><time>2026-04-18T13:09:36Z</time></trkpt><trkpt lat="43.81953884258224" lon="11.618798719706248"><ele>1002.1666666666667</ele><time>2026-04-18T13:09:38Z</time></trkpt><trkpt lat="43.819489762630084" lon="11.618891485521251"><ele>1004.0</ele><time>2026-04-18T13:09:49Z</time></trkpt><trkpt lat="43.81945888933791" lon="11.619009884088134"><ele>1004.0</ele><time>2026-04-18T13:09:51Z</time></trkpt><trkpt lat="43.81941202855216" lon="11.619133642865718"><ele>1004.0000000000001</ele><time>2026-04-18T13:09:53Z</time></trkpt><trkpt lat="43.819441116084306" lon="11.619222109394325"><ele>1004.0000000000001</ele><time>2026-04-18T13:11:31Z</time></trkpt><trkpt lat="43.81941732946472" lon="11.619428359476945"><ele>1004.0</ele><time>2026-04-18T13:11:33Z</time></trkpt><trkpt lat="43.819409995741495" lon="11.619546889357933"><ele>1004.0</ele><time>2026-04-18T13:11:34Z</time></trkpt><trkpt lat="43.81935771422396" lon="11.619620812018619"><ele>1007.0</ele><time>2026-04-18T13:11:35Z</time></trkpt><trkpt lat="43.81931673529981" lon="11.619702821707142"><ele>1010.0000000000001</ele><time>2026-04-18T13:11:36Z</time></trkpt><trkpt lat="43.81929252530623" lon="11.619797248717509"><ele>1013.0000000000001</ele><time>2026-04-18T13:11:37Z</time></trkpt><trkpt lat="43.81924147996655" lon="11.61994661996652"><ele>1016.0</ele><time>2026-04-18T13:11:39Z</time></trkpt><trkpt lat="43.819235997362185" lon="11.620104480901265"><ele>1019.0</ele><time>2026-04-18T13:11:41Z</time></trkpt><trkpt lat="43.81925397270713" lon="11.62026604025948"><ele>1017.0</ele><time>2026-04-18T13:11:43Z</time></trkpt><trkpt lat="43.81914389477471" lon="11.620360220188617"><ele>1015.0000000000001</ele><time>2026-04-18T13:11:44Z</time></trkpt><trkpt lat="43.81908586757299" lon="11.620397002238553"><ele>1013.0000000000001</ele><time>2026-04-18T13:11:45Z</time></trkpt><trkpt lat="43.81900031264704" lon="11.62039262227473"><ele>1011.0</ele><time>2026-04-18T13:11:46Z</time></trkpt><trkpt lat="43.8188902486553" lon="11.620414033101145"><ele>1009.0</ele><time>2026-04-18T13:11:47Z</time></trkpt><trkpt lat="43.81881351880439" lon="11.620454907219198"><ele>1008.9999999999999</ele><time>2026-04-18T13:11:48Z</time></trkpt><trkpt lat="43.81875593530947" lon="11.620491423449335"><ele>1009.0</ele><time>2026-04-18T13:11:49Z</time></trkpt><trkpt lat="43.818712155550756" lon="11.62058024880197"><ele>1009.0</ele><time>2026-04-18T13:11:52Z</time></trkpt><trkpt lat="43.81876134312933" lon="11.62065332784794"><ele>1009.0</ele><time>2026-04-18T13:11:54Z</time></trkpt><trkpt lat="43.81886685875916" lon="11.620666681592446"><ele>1008.9999999999999</ele><time>2026-04-18T13:11:56Z</time></trkpt><trkpt lat="43.81894095986558" lon="11.620704686575944"><ele>1009.0</ele><time>2026-04-18T13:11:57Z</time></trkpt><trkpt lat="43.81897785609508" lon="11.620786014279169"><ele>1008.9999999999999</ele><time>2026-04-18T13:11:58Z</time></trkpt><trkpt lat="43.8189936713476" lon="11.620944493718376"><ele>1009.0</ele><time>2026-04-18T13:12:00Z</time></trkpt><trkpt lat="43.81903170425162" lon="11.621063505767033"><ele>1009.0</ele><time>2026-04-18T13:12:02Z</time></trkpt><trkpt lat="43.818955280951975" lon="11.621095848863877"><ele>1009.0</ele><time>2026-04-18T13:12:05Z</time></trkpt><trkpt lat="43.818889420244396" lon="11.621102727900862"><ele>1008.9999999999999</ele><time>2026-04-18T13:12:07Z</time></trkpt><trkpt lat="43.81884345480355" lon="11.621170677090024"><ele>1009.0</ele><time>2026-04-18T13:12:09.999Z</time></trkpt><trkpt lat="43.818856048556206" lon="11.621310980176764"><ele>1011.4999999999999</ele><time>2026-04-18T13:12:11.999Z</time></trkpt><trkpt lat="43.81890556289047" lon="11.621385787576186"><ele>1014.0</ele><time>2026-04-18T13:12:13.999Z</time></trkpt><trkpt lat="43.818982891338436" lon="11.621460846611718"><ele>1016.5</ele><time>2026-04-18T13:12:15.999Z</time></trkpt><trkpt lat="43.81891789130477" lon="11.621358766047319"><ele>1019.0</ele><time>2026-04-18T13:12:54.999Z</time></trkpt><trkpt lat="43.818968656361996" lon="11.621425859263793"><ele>1021.4999999999999</ele><time>2026-04-18T13:12:58.999Z</time></trkpt><trkpt lat="43.81902042011658" lon="11.621499889173966"><ele>1024.0</ele><time>2026-04-18T13:13:02.999Z</time></trkpt><trkpt lat="43.819063048046665" lon="11.621565330553707"><ele>1024.0</ele><time>2026-04-18T13:13:06.999Z</time></trkpt><trkpt lat="43.819128615200256" lon="11.62159643053387"><ele>1023.9999999999999</ele><time>2026-04-18T13:13:11.999Z</time></trkpt><trkpt lat="43.819074901000874" lon="11.621546478788076"><ele>1024.0</ele><time>2026-04-18T13:13:31Z</time></trkpt><trkpt lat="43.81901778912184" lon="11.621508778793167"><ele>1024.0</ele><time>2026-04-18T13:13:39Z</time></trkpt><trkpt lat="43.81908181792767" lon="11.621590632224367"><ele>1023.9999999999999</ele><time>2026-04-18T13:13:47Z</time></trkpt><trkpt lat="43.819147000609824" lon="11.621620775808559"><ele>1024.0</ele><time>2026-04-18T13:13:53Z</time></trkpt><trkpt lat="43.819209487957075" lon="11.621646024449067"><ele>1024.0</ele><time>2026-04-18T13:13:55Z</time></trkpt><trkpt lat="43.819268114780996" lon="11.62168982555261"><ele>1024.3333333333333</ele><time>2026-04-18T13:13:58Z</time></trkpt><trkpt lat="43.81935782460218" lon="11.621738418270825"><ele>1024.6666666666665</ele><time>2026-04-18T13:14:00Z</time></trkpt><trkpt lat="43.81943570224147" lon="11.62177282191587"><ele>1025.0</ele><time>2026-04-18T13:14:02Z</time></trkpt><trkpt lat="43.81948112542977" lon="11.621859172285886"><ele>1025.3333333333333</ele><time>2026-04-18T13:14:04.999Z</time></trkpt><trkpt lat="43.819520984463146" lon="11.621941897140104"><ele>1025.6666666666667</ele><time>2026-04-18T13:14:05.999Z</time></trkpt><trkpt lat="43.81957275020914" lon="11.62201370036475"><ele>1026.0</ele><time>2026-04-18T13:14:07.999Z</time></trkpt><trkpt lat="43.819769516040225" lon="11.622237744730333"><ele>1026.0</ele><time>2026-04-18T13:14:10.999Z</time></trkpt><trkpt lat="43.81979405547682" lon="11.62236500311221"><ele>1026.0</ele><time>2026-04-18T13:14:12.999Z</time></trkpt><trkpt lat="43.81984359229506" lon="11.62249082884375"><ele>1026.0</ele><time>2026-04-18T13:14:14.999Z</time></trkpt><trkpt lat="43.819895953209034" lon="11.622558893508778"><ele>1026.0</ele><time>2026-04-18T13:14:16.999Z</time></trkpt><trkpt lat="43.819965073221255" lon="11.622635863133118"><ele>1026.0</ele><time>2026-04-18T13:14:18.999Z</time></trkpt><trkpt lat="43.82003337409371" lon="11.62272205620499"><ele>1025.6666666666667</ele><time>2026-04-18T13:14:20.999Z</time></trkpt><trkpt lat="43.82007256690376" lon="11.622840365012213"><ele>1025.3333333333333</ele><time>2026-04-18T13:14:22.999Z</time></trkpt><trkpt lat="43.820096418014934" lon="11.622936246086065"><ele>1025.0</ele><time>2026-04-18T13:14:24.999Z</time></trkpt><trkpt lat="43.82014658553384" lon="11.623006981794976"><ele>1024.6666666666665</ele><time>2026-04-18T13:14:29.999Z</time></trkpt><trkpt lat="43.82022046240376" lon="11.62301681634862"><ele>1024.3333333333333</ele><time>2026-04-18T13:14:31.999Z</time></trkpt><trkpt lat="43.82031152127961" lon="11.622916641715786"><ele>1024.0</ele><time>2026-04-18T13:14:38.999Z</time></trkpt><trkpt lat="43.82036647483354" lon="11.62279173432882"><ele>1023.9999999999999</ele><time>2026-04-18T13:14:39.999Z</time></trkpt><trkpt lat="43.8203989611177" lon="11.622713452207352"><ele>1024.0</ele><time>2026-04-18T13:14:40.999Z</time></trkpt><trkpt lat="43.8204647775672" lon="11.622688297245098"><ele>1024.0</ele><time>2026-04-18T13:14:41.999Z</time></trkpt><trkpt lat="43.82053275246241" lon="11.622669945185557"><ele>1024.0</ele><time>2026-04-18T13:14:42.999Z</time></trkpt><trkpt lat="43.82060812372511" lon="11.622689955692334"><ele>1023.9999999999999</ele><time>2026-04-18T13:14:44.999Z</time></trkpt><trkpt lat="43.82069414775393" lon="11.622655467043753"><ele>1024.0</ele><time>2026-04-18T13:14:47.999Z</time></trkpt><trkpt lat="43.820733234528326" lon="11.622523184664718"><ele>1023.9999999999999</ele><time>2026-04-18T13:14:49.999Z</time></trkpt><trkpt lat="43.82074882309741" lon="11.622427611765051"><ele>1024.0</ele><time>2026-04-18T13:14:50.999Z</time></trkpt><trkpt lat="43.82079140035443" lon="11.622352739992314"><ele>1024.0</ele><time>2026-04-18T13:14:51.999Z</time></trkpt><trkpt lat="43.8208298694903" lon="11.622278837789564"><ele>1024.0</ele><time>2026-04-18T13:14:52.999Z</time></trkpt><trkpt lat="43.82089143328155" lon="11.622208933840286"><ele>1023.9999999999999</ele><time>2026-04-18T13:14:53.999Z</time></trkpt><trkpt lat="43.820961052676346" lon="11.622116443950985"><ele>1024.0</ele><time>2026-04-18T13:14:54.999Z</time></trkpt><trkpt lat="43.82102411391942" lon="11.622029920194484"><ele>1026.4</ele><time>2026-04-18T13:14:55.999Z</time></trkpt><trkpt lat="43.821112575989" lon="11.62202498043436"><ele>1028.8000000000002</ele><time>2026-04-18T13:14:57.999Z</time></trkpt><trkpt lat="43.82120165624452" lon="11.622121866206719"><ele>1031.1999999999998</ele><time>2026-04-18T13:14:59.999Z</time></trkpt><trkpt lat="43.82132506775711" lon="11.622163363335297"><ele>1033.6</ele><time>2026-04-18T13:15:01.999Z</time></trkpt><trkpt lat="43.82138846830752" lon="11.622178734631497"><ele>1036.0</ele><time>2026-04-18T13:15:03.999Z</time></trkpt><trkpt lat="43.821452604428806" lon="11.622136196066151"><ele>1036.0</ele><time>2026-04-18T13:15:05.999Z</time></trkpt><trkpt lat="43.82151523683796" lon="11.622107661175619"><ele>1036.0</ele><time>2026-04-18T13:15:06.999Z</time></trkpt><trkpt lat="43.82158839892643" lon="11.622036526147314"><ele>1036.0</ele><time>2026-04-18T13:15:29Z</time></trkpt><trkpt lat="43.82170241582759" lon="11.622013239581856"><ele>1036.0</ele><time>2026-04-18T13:15:34Z</time></trkpt><trkpt lat="43.82181377834123" lon="11.621907462959117"><ele>1036.0</ele><time>2026-04-18T13:15:36Z</time></trkpt><trkpt lat="43.82180433538922" lon="11.622016184072054"><ele>1036.8</ele><time>2026-04-18T13:15:37Z</time></trkpt><trkpt lat="43.82188173831226" lon="11.622025957102483"><ele>1037.6</ele><time>2026-04-18T13:15:39Z</time></trkpt><trkpt lat="43.821985471497904" lon="11.622024063712866"><ele>1038.4</ele><time>2026-04-18T13:15:42Z</time></trkpt><trkpt lat="43.82204457074863" lon="11.621956932732784"><ele>1039.2</ele><time>2026-04-18T13:15:45Z</time></trkpt><trkpt lat="43.82212271091921" lon="11.621836141554144"><ele>1040.0</ele><time>2026-04-18T13:15:48Z</time></trkpt><trkpt lat="43.8221870964948" lon="11.621722037745284"><ele>1037.4</ele><time>2026-04-18T13:15:50Z</time></trkpt><trkpt lat="43.822276331829386" lon="11.621664531126461"><ele>1034.8</ele><time>2026-04-18T13:15:52Z</time></trkpt><trkpt lat="43.822378750688294" lon="11.621621431232823"><ele>1032.2</ele><time>2026-04-18T13:15:54Z</time></trkpt><trkpt lat="43.822445732485804" lon="11.62161437025939"><ele>1029.6</ele><time>2026-04-18T13:15:55Z</time></trkpt><trkpt lat="43.82254997173241" lon="11.621597081296825"><ele>1027.0</ele><time>2026-04-18T13:15:57Z</time></trkpt><trkpt lat="43.82263852647026" lon="11.621612344442038"><ele>1026.8</ele><time>2026-04-18T13:15:58.999Z</time></trkpt><trkpt lat="43.82267938446208" lon="11.621701912278745"><ele>1026.6</ele><time>2026-04-18T13:16:00.999Z</time></trkpt><trkpt lat="43.822680344440776" lon="11.62183691319747"><ele>1026.3999999999999</ele><time>2026-04-18T13:16:02.999Z</time></trkpt><trkpt lat="43.822679316750786" lon="11.621958876429163"><ele>1026.2</ele><time>2026-04-18T13:16:05.999Z</time></trkpt><trkpt lat="43.822671275137175" lon="11.622071813285968"><ele>1026.0</ele><time>2026-04-18T13:16:07.999Z</time></trkpt><trkpt lat="43.8226491906999" lon="11.622222639132898"><ele>1028.8</ele><time>2026-04-18T13:16:09.999Z</time></trkpt><trkpt lat="43.82263175854732" lon="11.62233062455395"><ele>1031.6</ele><time>2026-04-18T13:16:11.999Z</time></trkpt><trkpt lat="43.822566589719685" lon="11.622349531116601"><ele>1034.4</ele><time>2026-04-18T13:16:13.999Z</time></trkpt><trkpt lat="43.82250197396113" lon="11.622438864018298"><ele>1037.2</ele><time>2026-04-18T13:16:16.999Z</time></trkpt><trkpt lat="43.82241294330063" lon="11.622570773568237"><ele>1040.0</ele><time>2026-04-18T13:16:17.999Z</time></trkpt><trkpt lat="43.82234476715143" lon="11.622652795169598"><ele>1040.0</ele><time>2026-04-18T13:16:19.999Z</time></trkpt><trkpt lat="43.82227421249708" lon="11.622709796878388"><ele>1040.0</ele><time>2026-04-18T13:16:21.999Z</time></trkpt><trkpt lat="43.82217358226226" lon="11.622793806957775"><ele>1040.0</ele><time>2026-04-18T13:16:23.999Z</time></trkpt><trkpt lat="43.82209536276876" lon="11.622852363031278"><ele>1040.0</ele><time>2026-04-18T13:16:25.999Z</time></trkpt><trkpt lat="43.822031738108564" lon="11.622870904785172"><ele>1040.0</ele><time>2026-04-18T13:16:28.999Z</time></trkpt><trkpt lat="43.821955858433874" lon="11.622869771618443"><ele>1040.0</ele><time>2026-04-18T13:16:31.999Z</time></trkpt><trkpt lat="43.821874619653926" lon="11.622912912358172"><ele>1042.3333333333335</ele><time>2026-04-18T13:16:33.999Z</time></trkpt><trkpt lat="43.82180546770824" lon="11.622946869840883"><ele>1044.6666666666667</ele><time>2026-04-18T13:16:34.999Z</time></trkpt><trkpt lat="43.8217145233989" lon="11.622984567824963"><ele>1047.0</ele><time>2026-04-18T13:16:35.999Z</time></trkpt><trkpt lat="43.82165110650962" lon="11.623013283110216"><ele>1049.3333333333333</ele><time>2026-04-18T13:16:36.999Z</time></trkpt><trkpt lat="43.82153699978952" lon="11.623076575120153"><ele>1051.6666666666665</ele><time>2026-04-18T13:16:38.999Z</time></trkpt><trkpt lat="43.82147720712205" lon="11.623128918096182"><ele>1054.0</ele><time>2026-04-18T13:16:39.999Z</time></trkpt><trkpt lat="43.82142928629" lon="11.623290028141774"><ele>1054.0</ele><time>2026-04-18T13:16:41.999Z</time></trkpt><trkpt lat="43.821400741625204" lon="11.623426104377867"><ele>1054.0</ele><time>2026-04-18T13:16:43.999Z</time></trkpt><trkpt lat="43.82139056503301" lon="11.623554800780845"><ele>1054.0</ele><time>2026-04-18T13:16:45.999Z</time></trkpt><trkpt lat="43.82135532984205" lon="11.623660149957704"><ele>1054.0</ele><time>2026-04-18T13:16:47.999Z</time></trkpt><trkpt lat="43.82128977760545" lon="11.623743185397412"><ele>1054.0</ele><time>2026-04-18T13:16:49.999Z</time></trkpt><trkpt lat="43.82122210864675" lon="11.623808299656954"><ele>1054.2</ele><time>2026-04-18T13:16:51.999Z</time></trkpt><trkpt lat="43.82114791064205" lon="11.623834474019214"><ele>1054.4</ele><time>2026-04-18T13:16:53.999Z</time></trkpt><trkpt lat="43.82109082673827" lon="11.623881595184464"><ele>1054.6</ele><time>2026-04-18T13:16:55.999Z</time></trkpt><trkpt lat="43.82102316747975" lon="11.623971995620856"><ele>1054.8</ele><time>2026-04-18T13:16:57.999Z</time></trkpt><trkpt lat="43.82098791540849" lon="11.624048999977118"><ele>1055.0</ele><time>2026-04-18T13:17:00.999Z</time></trkpt><trkpt lat="43.820834708754326" lon="11.624181384748537"><ele>1055.0</ele><time>2026-04-18T13:17:01.999Z</time></trkpt><trkpt lat="43.82077464086652" lon="11.624286390113982"><ele>1055.0</ele><time>2026-04-18T13:17:03.999Z</time></trkpt><trkpt lat="43.82074673426774" lon="11.624394727858052"><ele>1055.0</ele><time>2026-04-18T13:17:05.999Z</time></trkpt><trkpt lat="43.82071860660499" lon="11.624511321025116"><ele>1055.0</ele><time>2026-04-18T13:17:07.999Z</time></trkpt><trkpt lat="43.82068646522972" lon="11.624617714454928"><ele>1055.0</ele><time>2026-04-18T13:17:08.999Z</time></trkpt><trkpt lat="43.820648873564394" lon="11.624733863566576"><ele>1055.0</ele><time>2026-04-18T13:17:09.999Z</time></trkpt><trkpt lat="43.82060418813422" lon="11.62481593843944"><ele>1058.0</ele><time>2026-04-18T13:17:10.999Z</time></trkpt><trkpt lat="43.82055306334884" lon="11.624950130018181"><ele>1061.0</ele><time>2026-04-18T13:17:12.999Z</time></trkpt><trkpt lat="43.82050195570727" lon="11.625016067202305"><ele>1064.0</ele><time>2026-04-18T13:17:13.999Z</time></trkpt><trkpt lat="43.82044467696043" lon="11.625058430547103"><ele>1067.0</ele><time>2026-04-18T13:17:14.999Z</time></trkpt><trkpt lat="43.820369689996205" lon="11.62509910315956"><ele>1070.0</ele><time>2026-04-18T13:17:15.999Z</time></trkpt><trkpt lat="43.8202909916812" lon="11.625141890147747"><ele>1073.0</ele><time>2026-04-18T13:17:16.999Z</time></trkpt><trkpt lat="43.82015482496234" lon="11.625203502423746"><ele>1071.3333333333335</ele><time>2026-04-18T13:17:18.999Z</time></trkpt><trkpt lat="43.820083213995794" lon="11.625221668364919"><ele>1069.6666666666667</ele><time>2026-04-18T13:17:19.999Z</time></trkpt><trkpt lat="43.82001060483241" lon="11.62521020397556"><ele>1068.0</ele><time>2026-04-18T13:17:20.999Z</time></trkpt><trkpt lat="43.819915666713776" lon="11.625207070572477"><ele>1066.3333333333333</ele><time>2026-04-18T13:17:21.999Z</time></trkpt><trkpt lat="43.81985007476098" lon="11.625180441977252"><ele>1064.6666666666665</ele><time>2026-04-18T13:17:22.999Z</time></trkpt><trkpt lat="43.819748623496956" lon="11.625232538097443"><ele>1063.0</ele><time>2026-04-18T13:17:25.999Z</time></trkpt><trkpt lat="43.819668601895614" lon="11.625291644033686"><ele>1063.0</ele><time>2026-04-18T13:17:27.999Z</time></trkpt><trkpt lat="43.81960070975727" lon="11.62531555188909"><ele>1063.0</ele><time>2026-04-18T13:17:28.999Z</time></trkpt><trkpt lat="43.819535842070266" lon="11.625330106133614"><ele>1063.0</ele><time>2026-04-18T13:17:29.999Z</time></trkpt><trkpt lat="43.819469846679596" lon="11.625335478342585"><ele>1063.0</ele><time>2026-04-18T13:17:31Z</time></trkpt><trkpt lat="43.819358707181635" lon="11.625285965525922"><ele>1063.0</ele><time>2026-04-18T13:17:33Z</time></trkpt><trkpt lat="43.81928439107121" lon="11.625229243380787"><ele>1063.0</ele><time>2026-04-18T13:17:35Z</time></trkpt><trkpt lat="43.819231993283374" lon="11.625156750414593"><ele>1065.5</ele><time>2026-04-18T13:17:37Z</time></trkpt><trkpt lat="43.819184407981105" lon="11.62507082062021"><ele>1068.0</ele><time>2026-04-18T13:17:39Z</time></trkpt><trkpt lat="43.81913356889837" lon="11.62501473739015"><ele>1070.5</ele><time>2026-04-18T13:17:41Z</time></trkpt><trkpt lat="43.81904185214035" lon="11.624948109931752"><ele>1073.0</ele><time>2026-04-18T13:17:43Z</time></trkpt><trkpt lat="43.81897287043265" lon="11.624931161779182"><ele>1075.5</ele><time>2026-04-18T13:17:44Z</time></trkpt><trkpt lat="43.81884989670185" lon="11.624951752351928"><ele>1078.0</ele><time>2026-04-18T13:17:45Z</time></trkpt><trkpt lat="43.81874060529547" lon="11.625021177545994"><ele>1078.0</ele><time>2026-04-18T13:17:46Z</time></trkpt><trkpt lat="43.81868518652079" lon="11.625064956508691"><ele>1078.0</ele><time>2026-04-18T13:17:47Z</time></trkpt><trkpt lat="43.818581237300165" lon="11.625129223194463"><ele>1078.0</ele><time>2026-04-18T13:17:49Z</time></trkpt><trkpt lat="43.81851782348506" lon="11.625140209850628"><ele>1078.0</ele><time>2026-04-18T13:17:50Z</time></trkpt><trkpt lat="43.81843638714758" lon="11.625124617669197"><ele>1078.0</ele><time>2026-04-18T13:17:51Z</time></trkpt><trkpt lat="43.8183532345314" lon="11.62509411538666"><ele>1078.0</ele><time>2026-04-18T13:17:52Z</time></trkpt><trkpt lat="43.81826880597373" lon="11.625063323939278"><ele>1080.2</ele><time>2026-04-18T13:17:53Z</time></trkpt><trkpt lat="43.81817293905314" lon="11.625060799034372"><ele>1082.4</ele><time>2026-04-18T13:17:54Z</time></trkpt><trkpt lat="43.81806473630394" lon="11.625076187037992"><ele>1084.6000000000001</ele><time>2026-04-18T13:17:55Z</time></trkpt><trkpt lat="43.817943598728355" lon="11.625100011965767"><ele>1086.8</ele><time>2026-04-18T13:17:56Z</time></trkpt><trkpt lat="43.817825454150636" lon="11.62511209749885"><ele>1089.0</ele><time>2026-04-18T13:17:57Z</time></trkpt><trkpt lat="43.81769786571783" lon="11.625096974961759"><ele>1091.3333333333333</ele><time>2026-04-18T13:17:57.999Z</time></trkpt><trkpt lat="43.81760816329818" lon="11.625106105653641"><ele>1093.6666666666667</ele><time>2026-04-18T13:17:58.999Z</time></trkpt><trkpt lat="43.81753941626533" lon="11.625119162573563"><ele>1096.0</ele><time>2026-04-18T13:18:00.999Z</time></trkpt><trkpt lat="43.817479612623316" lon="11.625156724542514"><ele>1098.3333333333335</ele><time>2026-04-18T13:18:31.999Z</time></trkpt><trkpt lat="43.81740964740808" lon="11.625086700939649"><ele>1100.6666666666667</ele><time>2026-04-18T13:22:27Z</time></trkpt><trkpt lat="43.817464594868085" lon="11.62514986102007"><ele>1103.0</ele><time>2026-04-18T13:22:43Z</time></trkpt><trkpt lat="43.81755771190487" lon="11.625191355774303"><ele>1103.0</ele><time>2026-04-18T13:23:04Z</time></trkpt><trkpt lat="43.817620043100526" lon="11.625167952248301"><ele>1103.0</ele><time>2026-04-18T13:23:06Z</time></trkpt><trkpt lat="43.817522752314595" lon="11.625144520158027"><ele>1103.0</ele><time>2026-04-18T13:23:10Z</time></trkpt><trkpt lat="43.81744503880197" lon="11.625131008041933"><ele>1103.0</ele><time>2026-04-18T13:23:13Z</time></trkpt><trkpt lat="43.81740370232278" lon="11.625059167917202"><ele>1103.0</ele><time>2026-04-18T13:23:15Z</time></trkpt><trkpt lat="43.81739967724749" lon="11.62489787291018"><ele>1103.0</ele><time>2026-04-18T13:23:18Z</time></trkpt><trkpt lat="43.81735495039806" lon="11.624815003527779"><ele>1103.0</ele><time>2026-04-18T13:23:19Z</time></trkpt><trkpt lat="43.81730388498005" lon="11.62473167482446"><ele>1103.0</ele><time>2026-04-18T13:23:20Z</time></trkpt><trkpt lat="43.81726354052534" lon="11.624635204737006"><ele>1103.0</ele><time>2026-04-18T13:23:22Z</time></trkpt><trkpt lat="43.81725029815575" lon="11.624536641334371"><ele>1103.0</ele><time>2026-04-18T13:23:25Z</time></trkpt><trkpt lat="43.817218475302774" lon="11.624461074293281"><ele>1103.0</ele><time>2026-04-18T13:23:28Z</time></trkpt><trkpt lat="43.81730413547164" lon="11.624585672104299"><ele>1103.0</ele><time>2026-04-18T13:23:41Z</time></trkpt><trkpt lat="43.81733134040261" lon="11.624699826466605"><ele>1103.0</ele><time>2026-04-18T13:23:43Z</time></trkpt><trkpt lat="43.81735154572623" lon="11.62479659511116"><ele>1103.0</ele><time>2026-04-18T13:23:45Z</time></trkpt><trkpt lat="43.81737196240611" lon="11.624950717579946"><ele>1103.0</ele><time>2026-04-18T13:23:47Z</time></trkpt><trkpt lat="43.81741721818053" lon="11.625043021746803"><ele>1103.0</ele><time>2026-04-18T13:23:49Z</time></trkpt><trkpt lat="43.817428947858716" lon="11.625137135014386"><ele>1103.0</ele><time>2026-04-18T13:23:51Z</time></trkpt><trkpt lat="43.817474130908984" lon="11.625231974831578"><ele>1103.0</ele><time>2026-04-18T13:23:53Z</time></trkpt><trkpt lat="43.81753893781288" lon="11.625284962000833"><ele>1103.0</ele><time>2026-04-18T13:23:56Z</time></trkpt><trkpt lat="43.817507686353466" lon="11.625186292655329"><ele>1103.0</ele><time>2026-04-18T13:24:01Z</time></trkpt><trkpt lat="43.817437870667874" lon="11.62507056007519"><ele>1103.0</ele><time>2026-04-18T13:24:09Z</time></trkpt><trkpt lat="43.817452649636195" lon="11.62515951987657"><ele>1103.0</ele><time>2026-04-18T13:24:28Z</time></trkpt><trkpt lat="43.817513832223035" lon="11.625124322522527"><ele>1103.0</ele><time>2026-04-18T13:26:36Z</time></trkpt><trkpt lat="43.81744654235897" lon="11.625119009016577"><ele>1103.0</ele><time>2026-04-18T13:29:36Z</time></trkpt><trkpt lat="43.81751356246609" lon="11.625141676431175"><ele>1103.0</ele><time>2026-04-18T13:30:31Z</time></trkpt><trkpt lat="43.81745423652627" lon="11.625096698959904"><ele>1103.0</ele><time>2026-04-18T13:32:56Z</time></trkpt><trkpt lat="43.81750643729898" lon="11.625176609460139"><ele>1103.0</ele><time>2026-04-18T13:34:21Z</time></trkpt><trkpt lat="43.81742200381011" lon="11.625145572039685"><ele>1103.0</ele><time>2026-04-18T13:38:03Z</time></trkpt><trkpt lat="43.81739013849414" lon="11.625022748282783"><ele>1103.0</ele><time>2026-04-18T13:38:13Z</time></trkpt><trkpt lat="43.817350743842184" lon="11.624891447101279"><ele>1103.0</ele><time>2026-04-18T13:38:15Z</time></trkpt><trkpt lat="43.81733933066639" lon="11.624790010269745"><ele>1103.0</ele><time>2026-04-18T13:38:16Z</time></trkpt><trkpt lat="43.81733382800812" lon="11.624700179387117"><ele>1103.0</ele><time>2026-04-18T13:38:17Z</time></trkpt><trkpt lat="43.8172885708881" lon="11.624554580035339"><ele>1103.0</ele><time>2026-04-18T13:38:19Z</time></trkpt><trkpt lat="43.817195981830174" lon="11.624482742719092"><ele>1103.0</ele><time>2026-04-18T13:38:21Z</time></trkpt><trkpt lat="43.81711379773928" lon="11.624422701077135"><ele>1103.0</ele><time>2026-04-18T13:38:22Z</time></trkpt><trkpt lat="43.817064476291854" lon="11.62435224617988"><ele>1103.0</ele><time>2026-04-18T13:38:23Z</time></trkpt><trkpt lat="43.81699679270228" lon="11.624298210574244"><ele>1104.6</ele><time>2026-04-18T13:38:25Z</time></trkpt><trkpt lat="43.816895077380316" lon="11.624321969587545"><ele>1106.1999999999998</ele><time>2026-04-18T13:38:27Z</time></trkpt><trkpt lat="43.81680239867141" lon="11.624394696301488"><ele>1107.8</ele><time>2026-04-18T13:38:29Z</time></trkpt><trkpt lat="43.81672870156011" lon="11.624487819603662"><ele>1109.3999999999999</ele><time>2026-04-18T13:38:31Z</time></trkpt><trkpt lat="43.81662978421486" lon="11.624560258447051"><ele>1111.0</ele><time>2026-04-18T13:38:33Z</time></trkpt><trkpt lat="43.81656032246197" lon="11.624516493349828"><ele>1111.0</ele><time>2026-04-18T13:38:35Z</time></trkpt><trkpt lat="43.81647330750479" lon="11.624474784896346"><ele>1111.0</ele><time>2026-04-18T13:38:37Z</time></trkpt><trkpt lat="43.816402510062574" lon="11.624480169176886"><ele>1111.0</ele><time>2026-04-18T13:39:09Z</time></trkpt><trkpt lat="43.81628879707212" lon="11.62439433588411"><ele>1111.0</ele><time>2026-04-18T13:39:21Z</time></trkpt><trkpt lat="43.81622144390103" lon="11.624359740988986"><ele>1111.0</ele><time>2026-04-18T13:39:23Z</time></trkpt><trkpt lat="43.81612807569407" lon="11.624380405820736"><ele>1111.0</ele><time>2026-04-18T13:39:42Z</time></trkpt><trkpt lat="43.81604854304431" lon="11.624339831821375"><ele>1111.0</ele><time>2026-04-18T13:39:43Z</time></trkpt><trkpt lat="43.815947130029286" lon="11.624316743108986"><ele>1111.0</ele><time>2026-04-18T13:39:44Z</time></trkpt><trkpt lat="43.81588870905667" lon="11.624284226881072"><ele>1111.0</ele><time>2026-04-18T13:39:45Z</time></trkpt><trkpt lat="43.81583458009285" lon="11.624197334323554"><ele>1111.0</ele><time>2026-04-18T13:39:46Z</time></trkpt><trkpt lat="43.81576072083801" lon="11.624141304294877"><ele>1111.0</ele><time>2026-04-18T13:39:47Z</time></trkpt><trkpt lat="43.815665307587665" lon="11.624152064503555"><ele>1113.3999999999999</ele><time>2026-04-18T13:39:48Z</time></trkpt><trkpt lat="43.81555711623675" lon="11.624157424153486"><ele>1115.8</ele><time>2026-04-18T13:39:49Z</time></trkpt><trkpt lat="43.815457729016835" lon="11.6241637381174"><ele>1118.1999999999998</ele><time>2026-04-18T13:39:50Z</time></trkpt><trkpt lat="43.815354524529134" lon="11.624105939702261"><ele>1120.6</ele><time>2026-04-18T13:39:51Z</time></trkpt><trkpt lat="43.81525993317997" lon="11.624012011444638"><ele>1123.0</ele><time>2026-04-18T13:39:52Z</time></trkpt><trkpt lat="43.81518315342122" lon="11.623928573851261"><ele>1122.6666666666665</ele><time>2026-04-18T13:39:53Z</time></trkpt><trkpt lat="43.81510901476835" lon="11.62386394624594"><ele>1122.3333333333333</ele><time>2026-04-18T13:39:54Z</time></trkpt><trkpt lat="43.81505018617903" lon="11.62382008093724"><ele>1122.0</ele><time>2026-04-18T13:39:55Z</time></trkpt><trkpt lat="43.81497004843549" lon="11.623772941234705"><ele>1121.6666666666667</ele><time>2026-04-18T13:39:56Z</time></trkpt><trkpt lat="43.81491778621875" lon="11.623662053756796"><ele>1121.3333333333335</ele><time>2026-04-18T13:40:00Z</time></trkpt><trkpt lat="43.81485391303894" lon="11.623595953578173"><ele>1121.0</ele><time>2026-04-18T13:40:02Z</time></trkpt><trkpt lat="43.814785368245154" lon="11.623474197201395"><ele>1123.3333333333335</ele><time>2026-04-18T13:40:04Z</time></trkpt><trkpt lat="43.81478639303664" lon="11.623349759764498"><ele>1125.6666666666667</ele><time>2026-04-18T13:40:08Z</time></trkpt><trkpt lat="43.81478058414891" lon="11.62323825274459"><ele>1128.0</ele><time>2026-04-18T13:40:10Z</time></trkpt><trkpt lat="43.81477609148188" lon="11.62311813964066"><ele>1130.3333333333333</ele><time>2026-04-18T13:40:12Z</time></trkpt><trkpt lat="43.81475315811902" lon="11.623033412432534"><ele>1132.6666666666665</ele><time>2026-04-18T13:40:13Z</time></trkpt><trkpt lat="43.81473554492792" lon="11.622924173763995"><ele>1135.0</ele><time>2026-04-18T13:40:14Z</time></trkpt><trkpt lat="43.81472803886608" lon="11.62282556105988"><ele>1134.8333333333333</ele><time>2026-04-18T13:40:15Z</time></trkpt><trkpt lat="43.81471247992899" lon="11.622709392521008"><ele>1134.6666666666665</ele><time>2026-04-18T13:40:16Z</time></trkpt><trkpt lat="43.814703006313124" lon="11.622616412051467"><ele>1134.5</ele><time>2026-04-18T13:40:17Z</time></trkpt><trkpt lat="43.81467384476335" lon="11.622522676272137"><ele>1134.3333333333333</ele><time>2026-04-18T13:40:18Z</time></trkpt><trkpt lat="43.81465211731745" lon="11.62242606009831"><ele>1134.1666666666667</ele><time>2026-04-18T13:40:19Z</time></trkpt><trkpt lat="43.81464714933698" lon="11.622331844620872"><ele>1134.0</ele><time>2026-04-18T13:40:20Z</time></trkpt><trkpt lat="43.81463189978479" lon="11.622214827152764"><ele>1134.0</ele><time>2026-04-18T13:40:21Z</time></trkpt><trkpt lat="43.814617039919405" lon="11.62205904284204"><ele>1134.0</ele><time>2026-04-18T13:40:22Z</time></trkpt><trkpt lat="43.81459839946853" lon="11.621863405916598"><ele>1134.0</ele><time>2026-04-18T13:40:23Z</time></trkpt><trkpt lat="43.81458541830295" lon="11.621708889084909"><ele>1134.0</ele><time>2026-04-18T13:40:24Z</time></trkpt><trkpt lat="43.814583133963474" lon="11.621609915185866"><ele>1134.0</ele><time>2026-04-18T13:40:25Z</time></trkpt><trkpt lat="43.814564812605305" lon="11.621519509450115"><ele>1133.4</ele><time>2026-04-18T13:40:26Z</time></trkpt><trkpt lat="43.814543202913974" lon="11.621418827194521"><ele>1132.8000000000002</ele><time>2026-04-18T13:40:27Z</time></trkpt><trkpt lat="43.814494593851364" lon="11.621307742490874"><ele>1132.1999999999998</ele><time>2026-04-18T13:40:28Z</time></trkpt><trkpt lat="43.814432756968706" lon="11.62114459146471"><ele>1131.6</ele><time>2026-04-18T13:40:30Z</time></trkpt><trkpt lat="43.8143935282065" lon="11.62103794509829"><ele>1131.0</ele><time>2026-04-18T13:40:31Z</time></trkpt><trkpt lat="43.81435483067339" lon="11.620939708164729"><ele>1130.3999999999999</ele><time>2026-04-18T13:40:33Z</time></trkpt><trkpt lat="43.81436192129181" lon="11.620825930964465"><ele>1129.8</ele><time>2026-04-18T13:40:35Z</time></trkpt><trkpt lat="43.814247414522825" lon="11.620732459097377"><ele>1129.1999999999998</ele><time>2026-04-18T13:40:37Z</time></trkpt><trkpt lat="43.81418005185024" lon="11.620626969047892"><ele>1128.6</ele><time>2026-04-18T13:40:40Z</time></trkpt><trkpt lat="43.81413287219978" lon="11.620479073127207"><ele>1128.0</ele><time>2026-04-18T13:40:42Z</time></trkpt><trkpt lat="43.81410119322743" lon="11.62028871974606"><ele>1130.2</ele><time>2026-04-18T13:40:44Z</time></trkpt><trkpt lat="43.814069398659626" lon="11.620143392108444"><ele>1132.4</ele><time>2026-04-18T13:40:45Z</time></trkpt><trkpt lat="43.81401671969479" lon="11.620022422043766"><ele>1134.6000000000001</ele><time>2026-04-18T13:40:46Z</time></trkpt><trkpt lat="43.813968597812725" lon="11.619899517306646"><ele>1136.8</ele><time>2026-04-18T13:40:47Z</time></trkpt><trkpt lat="43.813939907441764" lon="11.61973477932525"><ele>1139.0</ele><time>2026-04-18T13:40:48Z</time></trkpt><trkpt lat="43.81391522083533" lon="11.61952899041746"><ele>1137.75</ele><time>2026-04-18T13:40:49Z</time></trkpt><trkpt lat="43.81385702017984" lon="11.619296397405138"><ele>1136.5</ele><time>2026-04-18T13:40:50Z</time></trkpt><trkpt lat="43.81382987265564" lon="11.61914349203857"><ele>1135.25</ele><time>2026-04-18T13:40:51Z</time></trkpt><trkpt lat="43.81380820951921" lon="11.619005945027252"><ele>1134.0</ele><time>2026-04-18T13:40:52Z</time></trkpt><trkpt lat="43.813795071999145" lon="11.618864712624822"><ele>1134.0</ele><time>2026-04-18T13:40:53Z</time></trkpt><trkpt lat="43.81379375742963" lon="11.618709858312885"><ele>1134.0</ele><time>2026-04-18T13:40:54Z</time></trkpt><trkpt lat="43.81380378956531" lon="11.61849769928291"><ele>1134.0</ele><time>2026-04-18T13:40:55Z</time></trkpt><trkpt lat="43.813794840892605" lon="11.618268558251009"><ele>1134.0</ele><time>2026-04-18T13:40:56Z</time></trkpt><trkpt lat="43.81379372523918" lon="11.618084618946362"><ele>1134.75</ele><time>2026-04-18T13:40:57Z</time></trkpt><trkpt lat="43.81373404025953" lon="11.617869270731912"><ele>1135.5</ele><time>2026-04-18T13:40:58Z</time></trkpt><trkpt lat="43.81372466911823" lon="11.617714510337954"><ele>1136.25</ele><time>2026-04-18T13:41:00Z</time></trkpt><trkpt lat="43.81378327171217" lon="11.617748536461296"><ele>1137.0</ele><time>2026-04-18T13:41:02Z</time></trkpt><trkpt lat="43.81390354192481" lon="11.617694158904445"><ele>1137.4285714285713</ele><time>2026-04-18T13:41:04Z</time></trkpt><trkpt lat="43.81397256787121" lon="11.617647817625262"><ele>1137.857142857143</ele><time>2026-04-18T13:41:05Z</time></trkpt><trkpt lat="43.81405190696262" lon="11.617626189522195"><ele>1138.2857142857142</ele><time>2026-04-18T13:41:06Z</time></trkpt><trkpt lat="43.81413216124735" lon="11.617577077224734"><ele>1138.7142857142858</ele><time>2026-04-18T13:41:07Z</time></trkpt><trkpt lat="43.81419032550983" lon="11.61752491784963"><ele>1139.142857142857</ele><time>2026-04-18T13:41:08Z</time></trkpt><trkpt lat="43.814249644956185" lon="11.617480388920496"><ele>1139.5714285714284</ele><time>2026-04-18T13:41:09Z</time></trkpt><trkpt lat="43.814305902699445" lon="11.61743742246204"><ele>1140.0</ele><time>2026-04-18T13:41:10Z</time></trkpt><trkpt lat="43.814415435957066" lon="11.617368770346818"><ele>1135.8333333333333</ele><time>2026-04-18T13:41:12Z</time></trkpt><trkpt lat="43.81450031449521" lon="11.617307398969155"><ele>1131.6666666666667</ele><time>2026-04-18T13:41:14Z</time></trkpt><trkpt lat="43.81455198748218" lon="11.61719583967931"><ele>1127.5</ele><time>2026-04-18T13:41:16Z</time></trkpt><trkpt lat="43.814589007095186" lon="11.617094003657705"><ele>1123.3333333333335</ele><time>2026-04-18T13:41:18Z</time></trkpt><trkpt lat="43.81462041526718" lon="11.616975709685462"><ele>1119.1666666666667</ele><time>2026-04-18T13:41:20Z</time></trkpt><trkpt lat="43.81465133366169" lon="11.616897961120568"><ele>1115.0</ele><time>2026-04-18T13:41:22Z</time></trkpt><trkpt lat="43.81469216426091" lon="11.616797432235325"><ele>1114.3333333333335</ele><time>2026-04-18T13:41:24Z</time></trkpt><trkpt lat="43.81473828099084" lon="11.616696472408638"><ele>1113.6666666666667</ele><time>2026-04-18T13:41:26Z</time></trkpt><trkpt lat="43.81477681662617" lon="11.616575336303221"><ele>1113.0</ele><time>2026-04-18T13:41:28Z</time></trkpt><trkpt lat="43.814819576723146" lon="11.616468343161289"><ele>1112.3333333333333</ele><time>2026-04-18T13:41:30Z</time></trkpt><trkpt lat="43.814843389532975" lon="11.61636126358195"><ele>1111.6666666666665</ele><time>2026-04-18T13:41:32Z</time></trkpt><trkpt lat="43.81484575767548" lon="11.616258972103108"><ele>1111.0</ele><time>2026-04-18T13:41:33Z</time></trkpt><trkpt lat="43.81482918117869" lon="11.61616396695997"><ele>1107.0</ele><time>2026-04-18T13:41:34Z</time></trkpt><trkpt lat="43.81472165338918" lon="11.616020690428359"><ele>1103.0</ele><time>2026-04-18T13:41:36Z</time></trkpt><trkpt lat="43.81464163801692" lon="11.615942996086392"><ele>1099.0</ele><time>2026-04-18T13:41:37Z</time></trkpt><trkpt lat="43.81453366346752" lon="11.615879694152888"><ele>1095.0</ele><time>2026-04-18T13:41:39Z</time></trkpt><trkpt lat="43.81444126240714" lon="11.615894001017834"><ele>1095.0</ele><time>2026-04-18T13:41:40Z</time></trkpt><trkpt lat="43.814350768863136" lon="11.615911783095916"><ele>1095.0</ele><time>2026-04-18T13:41:41Z</time></trkpt><trkpt lat="43.81428745504442" lon="11.61592291819259"><ele>1095.0</ele><time>2026-04-18T13:41:42Z</time></trkpt><trkpt lat="43.81423328841694" lon="11.61577887088147"><ele>1095.0</ele><time>2026-04-18T13:41:44Z</time></trkpt><trkpt lat="43.81424160346772" lon="11.615685819664247"><ele>1095.0</ele><time>2026-04-18T13:41:45Z</time></trkpt><trkpt lat="43.81425601364098" lon="11.615586788677756"><ele>1095.0</ele><time>2026-04-18T13:41:47Z</time></trkpt><trkpt lat="43.814235324633" lon="11.61549236091589"><ele>1097.0</ele><time>2026-04-18T13:42:06Z</time></trkpt><trkpt lat="43.814202029558196" lon="11.615413615865021"><ele>1099.0</ele><time>2026-04-18T13:42:08Z</time></trkpt><trkpt lat="43.81411787035706" lon="11.615321040308135"><ele>1101.0</ele><time>2026-04-18T13:42:09Z</time></trkpt><trkpt lat="43.8140461381802" lon="11.615320869298724"><ele>1103.0</ele><time>2026-04-18T13:42:10Z</time></trkpt><trkpt lat="43.81394950801812" lon="11.615433261884084"><ele>1105.0</ele><time>2026-04-18T13:42:12Z</time></trkpt><trkpt lat="43.81388377673732" lon="11.615469799850052"><ele>1107.0</ele><time>2026-04-18T13:42:13Z</time></trkpt><trkpt lat="43.81381571908701" lon="11.615453716948574"><ele>1107.0</ele><time>2026-04-18T13:42:14Z</time></trkpt><trkpt lat="43.813711460670625" lon="11.615454617895205"><ele>1107.0</ele><time>2026-04-18T13:42:16Z</time></trkpt><trkpt lat="43.81366029823469" lon="11.615513607024887"><ele>1107.0</ele><time>2026-04-18T13:42:17Z</time></trkpt><trkpt lat="43.81360536148569" lon="11.615600413249492"><ele>1107.0</ele><time>2026-04-18T13:42:18Z</time></trkpt><trkpt lat="43.81353525076232" lon="11.615692270185187"><ele>1107.0</ele><time>2026-04-18T13:42:19Z</time></trkpt><trkpt lat="43.813455408102016" lon="11.615739334695766"><ele>1107.0</ele><time>2026-04-18T13:42:20Z</time></trkpt><trkpt lat="43.813368932133386" lon="11.615774446542087"><ele>1104.8</ele><time>2026-04-18T13:42:21Z</time></trkpt><trkpt lat="43.81330419695864" lon="11.61574536778527"><ele>1102.6</ele><time>2026-04-18T13:42:22Z</time></trkpt><trkpt lat="43.81325857465009" lon="11.61567070906853"><ele>1100.3999999999999</ele><time>2026-04-18T13:42:23Z</time></trkpt><trkpt lat="43.81320004266166" lon="11.615567351713295"><ele>1098.2</ele><time>2026-04-18T13:42:24Z</time></trkpt><trkpt lat="43.81307314510834" lon="11.615518101366714"><ele>1096.0</ele><time>2026-04-18T13:42:26Z</time></trkpt><trkpt lat="43.812978304677515" lon="11.615499558573129"><ele>1096.0000000000002</ele><time>2026-04-18T13:42:27Z</time></trkpt><trkpt lat="43.812916457848026" lon="11.615471128549768"><ele>1096.0</ele><time>2026-04-18T13:42:28Z</time></trkpt><trkpt lat="43.812850258904625" lon="11.615508636486664"><ele>1096.0</ele><time>2026-04-18T13:42:30Z</time></trkpt><trkpt lat="43.81278862855322" lon="11.615556975495133"><ele>1096.0</ele><time>2026-04-18T13:42:31Z</time></trkpt><trkpt lat="43.81270406430364" lon="11.615618348170871"><ele>1096.0</ele><time>2026-04-18T13:42:32Z</time></trkpt><trkpt lat="43.81264924414051" lon="11.615574853075378"><ele>1096.0000000000002</ele><time>2026-04-18T13:42:34Z</time></trkpt><trkpt lat="43.8125838430521" lon="11.615522724089418"><ele>1096.0</ele><time>2026-04-18T13:42:37Z</time></trkpt><trkpt lat="43.812506989662886" lon="11.615438490235661"><ele>1090.0</ele><time>2026-04-18T13:42:39Z</time></trkpt><trkpt lat="43.81246823041007" lon="11.615268660913193"><ele>1084.0</ele><time>2026-04-18T13:42:41Z</time></trkpt><trkpt lat="43.812385752884225" lon="11.615143382016676"><ele>1078.0</ele><time>2026-04-18T13:42:43Z</time></trkpt><trkpt lat="43.81233169005691" lon="11.615048483977585"><ele>1072.0</ele><time>2026-04-18T13:42:44Z</time></trkpt><trkpt lat="43.812268971171235" lon="11.614987671720845"><ele>1066.0</ele><time>2026-04-18T13:42:45Z</time></trkpt><trkpt lat="43.81221562227474" lon="11.614919501176091"><ele>1066.0</ele><time>2026-04-18T13:42:46Z</time></trkpt><trkpt lat="43.81216763549842" lon="11.614842127213281"><ele>1066.0</ele><time>2026-04-18T13:42:47Z</time></trkpt><trkpt lat="43.81212145453881" lon="11.614762540187737"><ele>1066.0</ele><time>2026-04-18T13:42:48Z</time></trkpt><trkpt lat="43.81207554998829" lon="11.61465044437238"><ele>1066.0</ele><time>2026-04-18T13:42:50Z</time></trkpt><trkpt lat="43.81201938634618" lon="11.614521613570902"><ele>1066.0</ele><time>2026-04-18T13:42:52Z</time></trkpt><trkpt lat="43.81196105329709" lon="11.614417489682435"><ele>1066.0</ele><time>2026-04-18T13:42:54Z</time></trkpt><trkpt lat="43.811978668911124" lon="11.614280617723287"><ele>1064.8333333333333</ele><time>2026-04-18T13:42:56Z</time></trkpt><trkpt lat="43.81200719999811" lon="11.614177481854371"><ele>1063.6666666666665</ele><time>2026-04-18T13:42:58Z</time></trkpt><trkpt lat="43.81197725817405" lon="11.614095777096068"><ele>1062.5</ele><time>2026-04-18T13:43:00Z</time></trkpt><trkpt lat="43.811860753420646" lon="11.613988969356301"><ele>1061.3333333333333</ele><time>2026-04-18T13:43:02Z</time></trkpt><trkpt lat="43.811829436458154" lon="11.613904462328854"><ele>1060.1666666666667</ele><time>2026-04-18T13:43:03Z</time></trkpt><trkpt lat="43.81176749066255" lon="11.613867822582435"><ele>1059.0</ele><time>2026-04-18T13:43:05Z</time></trkpt><trkpt lat="43.811694424610195" lon="11.61375397810923"><ele>1057.6000000000001</ele><time>2026-04-18T13:43:07Z</time></trkpt><trkpt lat="43.8116230582306" lon="11.613712765955496"><ele>1056.2</ele><time>2026-04-18T13:43:09Z</time></trkpt><trkpt lat="43.811539473060144" lon="11.613678204333388"><ele>1054.8000000000002</ele><time>2026-04-18T13:43:11Z</time></trkpt><trkpt lat="43.81149375751184" lon="11.613607805929238"><ele>1053.4</ele><time>2026-04-18T13:43:12Z</time></trkpt><trkpt lat="43.81143710447617" lon="11.613491386971015"><ele>1052.0</ele><time>2026-04-18T13:43:13Z</time></trkpt><trkpt lat="43.81133445061284" lon="11.613376573131971"><ele>1051.2</ele><time>2026-04-18T13:43:14Z</time></trkpt><trkpt lat="43.811195682178536" lon="11.613306974324532"><ele>1050.4</ele><time>2026-04-18T13:43:15Z</time></trkpt><trkpt lat="43.81111325241486" lon="11.6132750163585"><ele>1049.6</ele><time>2026-04-18T13:43:17Z</time></trkpt><trkpt lat="43.811061140548965" lon="11.613171647701511"><ele>1048.8</ele><time>2026-04-18T13:43:19Z</time></trkpt><trkpt lat="43.81100994646452" lon="11.613079179535028"><ele>1048.0</ele><time>2026-04-18T13:43:20Z</time></trkpt><trkpt lat="43.81092417348511" lon="11.6129483429526"><ele>1045.6</ele><time>2026-04-18T13:43:21Z</time></trkpt><trkpt lat="43.81087265220454" lon="11.612843918953866"><ele>1043.1999999999998</ele><time>2026-04-18T13:43:22Z</time></trkpt><trkpt lat="43.81083880998049" lon="11.612713397320276"><ele>1040.8</ele><time>2026-04-18T13:43:23Z</time></trkpt><trkpt lat="43.81080086456417" lon="11.612537819905903"><ele>1038.3999999999999</ele><time>2026-04-18T13:43:24Z</time></trkpt><trkpt lat="43.810763839479584" lon="11.612374549367038"><ele>1036.0</ele><time>2026-04-18T13:43:25Z</time></trkpt><trkpt lat="43.81074813457311" lon="11.612289797209511"><ele>1036.0</ele><time>2026-04-18T13:43:26Z</time></trkpt><trkpt lat="43.81073926165182" lon="11.612177935579345"><ele>1036.0</ele><time>2026-04-18T13:43:29Z</time></trkpt><trkpt lat="43.81071816949008" lon="11.612085239346964"><ele>1036.0</ele><time>2026-04-18T13:43:39Z</time></trkpt><trkpt lat="43.810710379804725" lon="11.61196090530067"><ele>1036.0</ele><time>2026-04-18T13:43:41Z</time></trkpt><trkpt lat="43.810691645285516" lon="11.611877494992042"><ele>1036.0</ele><time>2026-04-18T13:43:44Z</time></trkpt><trkpt lat="43.81067905633351" lon="11.611783566645506"><ele>1036.0</ele><time>2026-04-18T13:43:52Z</time></trkpt><trkpt lat="43.810668624353355" lon="11.611677994197231"><ele>1035.6666666666665</ele><time>2026-04-18T13:43:54Z</time></trkpt><trkpt lat="43.810623176519734" lon="11.611514791983222"><ele>1035.3333333333333</ele><time>2026-04-18T13:43:56Z</time></trkpt><trkpt lat="43.81056464263375" lon="11.611476784876622"><ele>1035.0</ele><time>2026-04-18T13:43:57Z</time></trkpt><trkpt lat="43.810485559240604" lon="11.611481602259076"><ele>1034.6666666666667</ele><time>2026-04-18T13:44:00Z</time></trkpt><trkpt lat="43.8104148334272" lon="11.61144725026536"><ele>1034.3333333333335</ele><time>2026-04-18T13:44:03Z</time></trkpt><trkpt lat="43.81032400199338" lon="11.611416917579822"><ele>1034.0</ele><time>2026-04-18T13:44:06Z</time></trkpt><trkpt lat="43.81025818114309" lon="11.61137503020822"><ele>1034.0</ele><time>2026-04-18T13:44:08Z</time></trkpt><trkpt lat="43.8101869974911" lon="11.611329563684253"><ele>1034.0</ele><time>2026-04-18T13:44:11Z</time></trkpt><trkpt lat="43.81013623127597" lon="11.61138626449758"><ele>1034.0</ele><time>2026-04-18T13:44:14Z</time></trkpt><trkpt lat="43.81005058780648" lon="11.611398232929556"><ele>1034.0</ele><time>2026-04-18T13:44:17Z</time></trkpt><trkpt lat="43.80995687599803" lon="11.611426204323159"><ele>1034.0</ele><time>2026-04-18T13:44:20Z</time></trkpt><trkpt lat="43.80986595068069" lon="11.611457372230586"><ele>1034.0</ele><time>2026-04-18T13:44:23Z</time></trkpt><trkpt lat="43.80978500529882" lon="11.611495042267958"><ele>1030.857142857143</ele><time>2026-04-18T13:44:25Z</time></trkpt><trkpt lat="43.809715227755525" lon="11.611522196857463"><ele>1027.7142857142858</ele><time>2026-04-18T13:44:27Z</time></trkpt><trkpt lat="43.80968760570261" lon="11.611437023335665"><ele>1024.5714285714287</ele><time>2026-04-18T13:44:30Z</time></trkpt><trkpt lat="43.80970839097467" lon="11.611523972931856"><ele>1021.4285714285716</ele><time>2026-04-18T13:44:36Z</time></trkpt><trkpt lat="43.80973884074667" lon="11.611622465186555"><ele>1018.2857142857143</ele><time>2026-04-18T13:44:49Z</time></trkpt><trkpt lat="43.80974448687498" lon="11.611526284855866"><ele>1015.1428571428573</ele><time>2026-04-18T13:44:51Z</time></trkpt><trkpt lat="43.809804064890194" lon="11.61145377011877"><ele>1012.0000000000001</ele><time>2026-04-18T13:44:53Z</time></trkpt><trkpt lat="43.80988231765039" lon="11.611412602658183"><ele>1011.9999999999999</ele><time>2026-04-18T13:44:56Z</time></trkpt><trkpt lat="43.80995001633941" lon="11.611427381668387"><ele>1012.0</ele><time>2026-04-18T13:45:00Z</time></trkpt><trkpt lat="43.80987707997386" lon="11.611394510508017"><ele>1012.0</ele><time>2026-04-18T13:45:25Z</time></trkpt><trkpt lat="43.80978201385018" lon="11.61145763914672"><ele>1012.0</ele><time>2026-04-18T13:45:28Z</time></trkpt><trkpt lat="43.809731638431735" lon="11.611516755990804"><ele>1011.9999999999999</ele><time>2026-04-18T13:45:30Z</time></trkpt><trkpt lat="43.809680233818206" lon="11.611464047926637"><ele>1012.0</ele><time>2026-04-18T13:46:00Z</time></trkpt><trkpt lat="43.80966620560857" lon="11.611293567413176"><ele>1011.9999999999999</ele><time>2026-04-18T13:46:22Z</time></trkpt><trkpt lat="43.80970016724157" lon="11.61116722110969"><ele>1012.0</ele><time>2026-04-18T13:46:23Z</time></trkpt><trkpt lat="43.80971450396138" lon="11.611046590059447"><ele>1012.0</ele><time>2026-04-18T13:46:24Z</time></trkpt><trkpt lat="43.80973835879771" lon="11.61093012108735"><ele>1012.0</ele><time>2026-04-18T13:46:26Z</time></trkpt><trkpt lat="43.80977040875124" lon="11.610844989702137"><ele>1011.9999999999999</ele><time>2026-04-18T13:46:27Z</time></trkpt><trkpt lat="43.80976921319518" lon="11.61071555081793"><ele>1012.0</ele><time>2026-04-18T13:46:28Z</time></trkpt><trkpt lat="43.809760343526875" lon="11.610598513412276"><ele>1012.0</ele><time>2026-04-18T13:46:29Z</time></trkpt><trkpt lat="43.8097434771486" lon="11.61048113279153"><ele>1012.0</ele><time>2026-04-18T13:46:31Z</time></trkpt><trkpt lat="43.80970426416232" lon="11.61036567899872"><ele>1012.0</ele><time>2026-04-18T13:46:32Z</time></trkpt><trkpt lat="43.809677534295545" lon="11.610264538831274"><ele>1012.0</ele><time>2026-04-18T13:46:33Z</time></trkpt><trkpt lat="43.809679683721576" lon="11.610082933685394"><ele>1012.0</ele><time>2026-04-18T13:46:35Z</time></trkpt><trkpt lat="43.80969291923953" lon="11.609953918432902"><ele>1010.8</ele><time>2026-04-18T13:46:36Z</time></trkpt><trkpt lat="43.80970521851826" lon="11.60984648815576"><ele>1009.6</ele><time>2026-04-18T13:46:37Z</time></trkpt><trkpt lat="43.809669337158425" lon="11.609754795339423"><ele>1008.3999999999999</ele><time>2026-04-18T13:46:38Z</time></trkpt><trkpt lat="43.809596766471955" lon="11.60964224971993"><ele>1007.1999999999999</ele><time>2026-04-18T13:46:39Z</time></trkpt><trkpt lat="43.809505602905" lon="11.609532898461103"><ele>1006.0</ele><time>2026-04-18T13:46:40Z</time></trkpt><trkpt lat="43.80941217112401" lon="11.609457493429817"><ele>1004.4</ele><time>2026-04-18T13:46:41Z</time></trkpt><trkpt lat="43.809336364080714" lon="11.609407237486733"><ele>1002.8</ele><time>2026-04-18T13:46:42Z</time></trkpt><trkpt lat="43.80927601136163" lon="11.609354069014893"><ele>1001.1999999999999</ele><time>2026-04-18T13:46:43Z</time></trkpt><trkpt lat="43.80920792598882" lon="11.609288482570827"><ele>999.5999999999999</ele><time>2026-04-18T13:46:43.999Z</time></trkpt><trkpt lat="43.80906419850668" lon="11.609246301994503"><ele>998.0</ele><time>2026-04-18T13:46:44.999Z</time></trkpt><trkpt lat="43.80893496768729" lon="11.609231178977257"><ele>994.5999999999999</ele><time>2026-04-18T13:46:45.999Z</time></trkpt><trkpt lat="43.80885569319901" lon="11.609195579229242"><ele>991.1999999999999</ele><time>2026-04-18T13:46:46.999Z</time></trkpt><trkpt lat="43.80880202718733" lon="11.609124121607467"><ele>987.8</ele><time>2026-04-18T13:46:47.999Z</time></trkpt><trkpt lat="43.808737200953715" lon="11.609002783875281"><ele>984.4</ele><time>2026-04-18T13:46:48.999Z</time></trkpt><trkpt lat="43.80865468045586" lon="11.608847056334843"><ele>981.0</ele><time>2026-04-18T13:46:49.999Z</time></trkpt><trkpt lat="43.8085829902612" lon="11.608741538163033"><ele>981.0</ele><time>2026-04-18T13:46:50.999Z</time></trkpt><trkpt lat="43.808519962984235" lon="11.60866946189202"><ele>980.9999999999999</ele><time>2026-04-18T13:46:51.999Z</time></trkpt><trkpt lat="43.80844667960633" lon="11.60862598033112"><ele>980.9999999999999</ele><time>2026-04-18T13:46:53Z</time></trkpt><trkpt lat="43.808365584569444" lon="11.608519034027543"><ele>981.0</ele><time>2026-04-18T13:46:54Z</time></trkpt><trkpt lat="43.80829104638914" lon="11.608414943287235"><ele>981.0</ele><time>2026-04-18T13:46:55Z</time></trkpt><trkpt lat="43.808233340433105" lon="11.608339076662611"><ele>980.5</ele><time>2026-04-18T13:46:56Z</time></trkpt><trkpt lat="43.80818713453143" lon="11.60819645637172"><ele>980.0</ele><time>2026-04-18T13:46:58Z</time></trkpt><trkpt lat="43.80816908570257" lon="11.608063371070571"><ele>979.5</ele><time>2026-04-18T13:47:00Z</time></trkpt><trkpt lat="43.80812934139248" lon="11.607984377010736"><ele>979.0</ele><time>2026-04-18T13:47:01Z</time></trkpt><trkpt lat="43.80806106084483" lon="11.60791459047986"><ele>978.5</ele><time>2026-04-18T13:47:02Z</time></trkpt><trkpt lat="43.8079959449548" lon="11.607877084667253"><ele>978.0</ele><time>2026-04-18T13:47:03Z</time></trkpt><trkpt lat="43.80793367918485" lon="11.607847006941345"><ele>978.0</ele><time>2026-04-18T13:47:05Z</time></trkpt><trkpt lat="43.80795671104855" lon="11.607950705283189"><ele>978.0</ele><time>2026-04-18T13:47:07Z</time></trkpt><trkpt lat="43.808009890757766" lon="11.608011808115313"><ele>978.0</ele><time>2026-04-18T13:47:10Z</time></trkpt><trkpt lat="43.80809338797726" lon="11.608097986137903"><ele>978.0</ele><time>2026-04-18T13:47:32Z</time></trkpt><trkpt lat="43.80816391748154" lon="11.608025186155015"><ele>978.0</ele><time>2026-04-18T13:47:35Z</time></trkpt><trkpt lat="43.8081611311611" lon="11.6079213123229"><ele>978.0</ele><time>2026-04-18T13:47:36Z</time></trkpt><trkpt lat="43.80817176921707" lon="11.607817036284448"><ele>978.5</ele><time>2026-04-18T13:47:37Z</time></trkpt><trkpt lat="43.80819246483918" lon="11.607729941292266"><ele>979.0</ele><time>2026-04-18T13:47:38Z</time></trkpt><trkpt lat="43.80820287205692" lon="11.607594444363036"><ele>979.5</ele><time>2026-04-18T13:47:40Z</time></trkpt><trkpt lat="43.80822997197766" lon="11.60750990124377"><ele>980.0</ele><time>2026-04-18T13:47:41Z</time></trkpt><trkpt lat="43.80826305289065" lon="11.607395788181451"><ele>980.5</ele><time>2026-04-18T13:47:42Z</time></trkpt><trkpt lat="43.808307004640895" lon="11.607245060376929"><ele>981.0</ele><time>2026-04-18T13:47:43Z</time></trkpt><trkpt lat="43.808335265903494" lon="11.607126830272373"><ele>981.0</ele><time>2026-04-18T13:47:44Z</time></trkpt><trkpt lat="43.808383188577785" lon="11.607056733172769"><ele>980.9999999999999</ele><time>2026-04-18T13:47:45Z</time></trkpt><trkpt lat="43.80845935267122" lon="11.606939975674102"><ele>980.9999999999999</ele><time>2026-04-18T13:47:46Z</time></trkpt><trkpt lat="43.80852590353294" lon="11.60686316722137"><ele>981.0</ele><time>2026-04-18T13:47:47Z</time></trkpt><trkpt lat="43.80851664785788" lon="11.606707043413842"><ele>981.0</ele><time>2026-04-18T13:47:50Z</time></trkpt><trkpt lat="43.80845274651807" lon="11.606741271953492"><ele>984.0</ele><time>2026-04-18T13:47:53Z</time></trkpt><trkpt lat="43.80850701719697" lon="11.606835951507197"><ele>987.0</ele><time>2026-04-18T13:47:57Z</time></trkpt><trkpt lat="43.808494208780566" lon="11.606675370845988"><ele>990.0</ele><time>2026-04-18T13:48:07Z</time></trkpt><trkpt lat="43.80839457517006" lon="11.606541312492254"><ele>993.0</ele><time>2026-04-18T13:48:08Z</time></trkpt><trkpt lat="43.80832657221858" lon="11.606372825730732"><ele>997.3333333333333</ele><time>2026-04-18T13:48:09Z</time></trkpt><trkpt lat="43.808278151963606" lon="11.606148772854771"><ele>1001.6666666666666</ele><time>2026-04-18T13:48:10Z</time></trkpt><trkpt lat="43.80821326927094" lon="11.605885868599133"><ele>1006.0</ele><time>2026-04-18T13:48:11Z</time></trkpt><trkpt lat="43.80813420884733" lon="11.605610279867781"><ele>1006.0</ele><time>2026-04-18T13:48:12Z</time></trkpt><trkpt lat="43.808055661799116" lon="11.605390870985488"><ele>1005.9999999999999</ele><time>2026-04-18T13:48:13Z</time></trkpt><trkpt lat="43.80800221799433" lon="11.605272349802199"><ele>1005.9999999999999</ele><time>2026-04-18T13:48:14Z</time></trkpt><trkpt lat="43.80796547745807" lon="11.60519491001625"><ele>1006.0</ele><time>2026-04-18T13:48:15Z</time></trkpt><trkpt lat="43.807888956067465" lon="11.605133143961735"><ele>1006.0</ele><time>2026-04-18T13:48:16Z</time></trkpt><trkpt lat="43.80778804020167" lon="11.605099718018284"><ele>1006.0</ele><time>2026-04-18T13:48:17Z</time></trkpt><trkpt lat="43.807664731594755" lon="11.60513989810853"><ele>1006.0</ele><time>2026-04-18T13:48:18Z</time></trkpt><trkpt lat="43.807503742468874" lon="11.605223939118702"><ele>1006.0</ele><time>2026-04-18T13:48:19Z</time></trkpt><trkpt lat="43.80733826673105" lon="11.605258095657696"><ele>1004.4</ele><time>2026-04-18T13:48:20Z</time></trkpt><trkpt lat="43.80718678411395" lon="11.605360930830546"><ele>1002.8</ele><time>2026-04-18T13:48:22Z</time></trkpt><trkpt lat="43.80710574842089" lon="11.60538204217113"><ele>1001.1999999999999</ele><time>2026-04-18T13:48:23Z</time></trkpt><trkpt lat="43.807024948978956" lon="11.605405305923133"><ele>999.5999999999999</ele><time>2026-04-18T13:48:24Z</time></trkpt><trkpt lat="43.80695560608439" lon="11.605479540690748"><ele>998.0</ele><time>2026-04-18T13:48:25Z</time></trkpt><trkpt lat="43.80685985347341" lon="11.60542420864672"><ele>997.1666666666667</ele><time>2026-04-18T13:48:26Z</time></trkpt><trkpt lat="43.80677666851631" lon="11.605426511740013"><ele>996.3333333333334</ele><time>2026-04-18T13:48:27Z</time></trkpt><trkpt lat="43.806706031333604" lon="11.605417042554576"><ele>995.5</ele><time>2026-04-18T13:48:28Z</time></trkpt><trkpt lat="43.80661625890003" lon="11.605466130863826"><ele>994.6666666666667</ele><time>2026-04-18T13:48:29Z</time></trkpt><trkpt lat="43.806546826259265" lon="11.605434284195178"><ele>993.8333333333334</ele><time>2026-04-18T13:48:30Z</time></trkpt><trkpt lat="43.80643027945995" lon="11.60537128673975"><ele>993.0</ele><time>2026-04-18T13:48:31Z</time></trkpt><trkpt lat="43.806348362476115" lon="11.605290103770896"><ele>993.0</ele><time>2026-04-18T13:48:32Z</time></trkpt><trkpt lat="43.80622506355484" lon="11.60527038454649"><ele>993.0</ele><time>2026-04-18T13:48:33Z</time></trkpt><trkpt lat="43.806123896679495" lon="11.605221699657132"><ele>993.0</ele><time>2026-04-18T13:48:34Z</time></trkpt><trkpt lat="43.80601054636714" lon="11.60517848833268"><ele>993.0</ele><time>2026-04-18T13:48:34.999Z</time></trkpt><trkpt lat="43.80590726710332" lon="11.605125931996769"><ele>994.0</ele><time>2026-04-18T13:48:35.999Z</time></trkpt><trkpt lat="43.8058011128069" lon="11.605050433012288"><ele>995.0</ele><time>2026-04-18T13:48:36.999Z</time></trkpt><trkpt lat="43.80574655023192" lon="11.604976911404197"><ele>996.0</ele><time>2026-04-18T13:48:37.999Z</time></trkpt><trkpt lat="43.805688355621086" lon="11.604898981361346"><ele>997.0</ele><time>2026-04-18T13:48:38.999Z</time></trkpt><trkpt lat="43.80559435923724" lon="11.604856581965548"><ele>998.0</ele><time>2026-04-18T13:48:39.999Z</time></trkpt><trkpt lat="43.80551305060254" lon="11.604771554793166"><ele>998.0</ele><time>2026-04-18T13:48:40.999Z</time></trkpt><trkpt lat="43.805426381207965" lon="11.60467944833342"><ele>998.0</ele><time>2026-04-18T13:48:41.999Z</time></trkpt><trkpt lat="43.805338334605665" lon="11.604572242546272"><ele>998.0</ele><time>2026-04-18T13:48:42.999Z</time></trkpt><trkpt lat="43.805270783659694" lon="11.604461445961308"><ele>998.0</ele><time>2026-04-18T13:48:43.999Z</time></trkpt><trkpt lat="43.805231713569825" lon="11.60435916447734"><ele>998.0</ele><time>2026-04-18T13:48:44.999Z</time></trkpt><trkpt lat="43.80520580526261" lon="11.604255443186286"><ele>999.4</ele><time>2026-04-18T13:48:45.999Z</time></trkpt><trkpt lat="43.80519297646109" lon="11.604138295894899"><ele>1000.8</ele><time>2026-04-18T13:48:46.999Z</time></trkpt><trkpt lat="43.805178746670876" lon="11.60396160123996"><ele>1002.2</ele><time>2026-04-18T13:48:48.999Z</time></trkpt><trkpt lat="43.805151461188316" lon="11.603809665008885"><ele>1003.6</ele><time>2026-04-18T13:48:49.999Z</time></trkpt><trkpt lat="43.80515161945606" lon="11.60365303223961"><ele>1005.0</ele><time>2026-04-18T13:48:50.999Z</time></trkpt><trkpt lat="43.80516276831392" lon="11.603522349693307"><ele>1005.0</ele><time>2026-04-18T13:48:51.999Z</time></trkpt><trkpt lat="43.805148268357534" lon="11.603365183862396"><ele>1005.0</ele><time>2026-04-18T13:48:53.999Z</time></trkpt><trkpt lat="43.80512313984738" lon="11.603267935585338"><ele>1005.0</ele><time>2026-04-18T13:48:54.999Z</time></trkpt><trkpt lat="43.805098128372514" lon="11.60317546878791"><ele>1005.0</ele><time>2026-04-18T13:48:55.999Z</time></trkpt><trkpt lat="43.80505895451007" lon="11.603100996218311"><ele>1005.0</ele><time>2026-04-18T13:48:56.999Z</time></trkpt><trkpt lat="43.80501335305413" lon="11.60303640090475"><ele>1005.0</ele><time>2026-04-18T13:48:57.999Z</time></trkpt><trkpt lat="43.80495682837645" lon="11.602894755718822"><ele>1002.8</ele><time>2026-04-18T13:49:00Z</time></trkpt><trkpt lat="43.80487856364358" lon="11.602810678466572"><ele>1000.6</ele><time>2026-04-18T13:49:02Z</time></trkpt><trkpt lat="43.8047814784767" lon="11.60272775459179"><ele>998.4000000000001</ele><time>2026-04-18T13:49:04Z</time></trkpt><trkpt lat="43.80470607126142" lon="11.602670337951992"><ele>996.2</ele><time>2026-04-18T13:49:05Z</time></trkpt><trkpt lat="43.804583924002685" lon="11.602612103319426"><ele>994.0</ele><time>2026-04-18T13:49:06Z</time></trkpt><trkpt lat="43.80445979202498" lon="11.602587275640158"><ele>994.0</ele><time>2026-04-18T13:49:07Z</time></trkpt><trkpt lat="43.80437261983398" lon="11.60257539998309"><ele>994.0000000000001</ele><time>2026-04-18T13:49:08Z</time></trkpt><trkpt lat="43.804271346361844" lon="11.602581298176611"><ele>994.0000000000001</ele><time>2026-04-18T13:49:09Z</time></trkpt><trkpt lat="43.8041710970964" lon="11.602595925588096"><ele>994.0</ele><time>2026-04-18T13:49:10Z</time></trkpt><trkpt lat="43.80406118951264" lon="11.602627349730264"><ele>994.0</ele><time>2026-04-18T13:49:11Z</time></trkpt><trkpt lat="43.80394401093219" lon="11.602666109960484"><ele>996.6</ele><time>2026-04-18T13:49:12Z</time></trkpt><trkpt lat="43.803853946636835" lon="11.602688142657838"><ele>999.2</ele><time>2026-04-18T13:49:13Z</time></trkpt><trkpt lat="43.80377491058499" lon="11.602689069673994"><ele>1001.8000000000001</ele><time>2026-04-18T13:49:14Z</time></trkpt><trkpt lat="43.80368592532158" lon="11.602636790186464"><ele>1004.4000000000001</ele><time>2026-04-18T13:49:15Z</time></trkpt><trkpt lat="43.80359966061954" lon="11.602553968476688"><ele>1007.0</ele><time>2026-04-18T13:49:16Z</time></trkpt><trkpt lat="43.80352598247192" lon="11.60248735001613"><ele>1008.1666666666667</ele><time>2026-04-18T13:49:17Z</time></trkpt><trkpt lat="43.803454059269434" lon="11.60241350506815"><ele>1009.3333333333334</ele><time>2026-04-18T13:49:18Z</time></trkpt><trkpt lat="43.80338709885315" lon="11.602310901399893"><ele>1010.5</ele><time>2026-04-18T13:49:19Z</time></trkpt><trkpt lat="43.80333378063309" lon="11.602216896673271"><ele>1011.6666666666667</ele><time>2026-04-18T13:49:20Z</time></trkpt><trkpt lat="43.80328161108776" lon="11.602145687012177"><ele>1012.8333333333334</ele><time>2026-04-18T13:49:21Z</time></trkpt><trkpt lat="43.80322246454479" lon="11.602085965484301"><ele>1014.0</ele><time>2026-04-18T13:49:22Z</time></trkpt><trkpt lat="43.80313050092052" lon="11.602062075257928"><ele>1014.0</ele><time>2026-04-18T13:49:23Z</time></trkpt><trkpt lat="43.80304123162083" lon="11.602049716196023"><ele>1014.0000000000001</ele><time>2026-04-18T13:49:24Z</time></trkpt><trkpt lat="43.80293903869228" lon="11.602071276645223"><ele>1014.0000000000001</ele><time>2026-04-18T13:49:25Z</time></trkpt><trkpt lat="43.80282522809363" lon="11.602111158810885"><ele>1014.0</ele><time>2026-04-18T13:49:26Z</time></trkpt><trkpt lat="43.802718226421895" lon="11.602129432085206"><ele>1014.0</ele><time>2026-04-18T13:49:27Z</time></trkpt><trkpt lat="43.80263384544733" lon="11.602154125976947"><ele>1013.0</ele><time>2026-04-18T13:49:28Z</time></trkpt><trkpt lat="43.80258775822614" lon="11.602215227959624"><ele>1012.0000000000001</ele><time>2026-04-18T13:49:29Z</time></trkpt><trkpt lat="43.802524729174536" lon="11.602302220730458"><ele>1011.0000000000001</ele><time>2026-04-18T13:49:30Z</time></trkpt><trkpt lat="43.80243639979145" lon="11.60242185499309"><ele>1010.0</ele><time>2026-04-18T13:49:31Z</time></trkpt><trkpt lat="43.80234789932765" lon="11.602532874829654"><ele>1009.0</ele><time>2026-04-18T13:49:32Z</time></trkpt><trkpt lat="43.802261286077936" lon="11.602617416778356"><ele>1008.9999999999999</ele><time>2026-04-18T13:49:33Z</time></trkpt><trkpt lat="43.80220440525968" lon="11.602685396557842"><ele>1009.0</ele><time>2026-04-18T13:49:34Z</time></trkpt><trkpt lat="43.80215322411044" lon="11.602743770933266"><ele>1009.0</ele><time>2026-04-18T13:49:35Z</time></trkpt><trkpt lat="43.802103114850546" lon="11.602799506686912"><ele>1009.0</ele><time>2026-04-18T13:49:36Z</time></trkpt><trkpt lat="43.80201234686059" lon="11.602909806548821"><ele>1008.9999999999999</ele><time>2026-04-18T13:49:38Z</time></trkpt><trkpt lat="43.80193350638348" lon="11.602973186375742"><ele>1009.0</ele><time>2026-04-18T13:49:39Z</time></trkpt><trkpt lat="43.80184413826398" lon="11.603105592769142"><ele>1009.0</ele><time>2026-04-18T13:49:40Z</time></trkpt><trkpt lat="43.801761580587424" lon="11.603215555598918"><ele>1009.0000000000001</ele><time>2026-04-18T13:49:41Z</time></trkpt><trkpt lat="43.80172074895363" lon="11.603358995338855"><ele>1009.0000000000001</ele><time>2026-04-18T13:49:42Z</time></trkpt><trkpt lat="43.80168455935969" lon="11.603505028559475"><ele>1009.0</ele><time>2026-04-18T13:49:43Z</time></trkpt><trkpt lat="43.80164005189125" lon="11.603632766477807"><ele>1009.0</ele><time>2026-04-18T13:49:44Z</time></trkpt><trkpt lat="43.80157349496283" lon="11.603805083278266"><ele>1009.0</ele><time>2026-04-18T13:49:45Z</time></trkpt><trkpt lat="43.80147744971702" lon="11.603975903402198"><ele>1009.0</ele><time>2026-04-18T13:49:46Z</time></trkpt><trkpt lat="43.801375507801126" lon="11.60412918928879"><ele>1009.0</ele><time>2026-04-18T13:49:47Z</time></trkpt><trkpt lat="43.801267874238896" lon="11.60426892984341"><ele>1009.0</ele><time>2026-04-18T13:49:48Z</time></trkpt><trkpt lat="43.80117635462865" lon="11.604373919968635"><ele>1009.0</ele><time>2026-04-18T13:49:49Z</time></trkpt><trkpt lat="43.801084102957304" lon="11.604454474195386"><ele>1009.0</ele><time>2026-04-18T13:49:50Z</time></trkpt><trkpt lat="43.80097570067597" lon="11.60455836489992"><ele>1009.0</ele><time>2026-04-18T13:49:51Z</time></trkpt><trkpt lat="43.8008779621131" lon="11.604646724106706"><ele>1005.8333333333333</ele><time>2026-04-18T13:49:52Z</time></trkpt><trkpt lat="43.800803151342066" lon="11.604720286227789"><ele>1002.6666666666666</ele><time>2026-04-18T13:49:53Z</time></trkpt><trkpt lat="43.8007380264887" lon="11.604754723686968"><ele>999.5</ele><time>2026-04-18T13:49:54Z</time></trkpt><trkpt lat="43.80066636687196" lon="11.60470447633013"><ele>996.3333333333333</ele><time>2026-04-18T13:49:57Z</time></trkpt><trkpt lat="43.800604441432355" lon="11.604687550935854"><ele>993.1666666666666</ele><time>2026-04-18T13:49:59Z</time></trkpt><trkpt lat="43.80054379901956" lon="11.604621125210818"><ele>990.0</ele><time>2026-04-18T13:50:01Z</time></trkpt><trkpt lat="43.80045284951708" lon="11.604578949245486"><ele>990.0</ele><time>2026-04-18T13:50:03Z</time></trkpt><trkpt lat="43.80038541616298" lon="11.604559678476395"><ele>990.0</ele><time>2026-04-18T13:50:04Z</time></trkpt><trkpt lat="43.80029372542179" lon="11.604512463765316"><ele>990.0</ele><time>2026-04-18T13:50:05Z</time></trkpt><trkpt lat="43.800170834153874" lon="11.604412211112752"><ele>990.0</ele><time>2026-04-18T13:50:06Z</time></trkpt><trkpt lat="43.80006108481134" lon="11.604325966745384"><ele>990.0</ele><time>2026-04-18T13:50:07Z</time></trkpt><trkpt lat="43.79997424534224" lon="11.604220040094885"><ele>989.8333333333334</ele><time>2026-04-18T13:50:08Z</time></trkpt><trkpt lat="43.799910763002494" lon="11.604165101401295"><ele>989.6666666666667</ele><time>2026-04-18T13:50:09Z</time></trkpt><trkpt lat="43.799850951492544" lon="11.604137524131097"><ele>989.5</ele><time>2026-04-18T13:50:10Z</time></trkpt><trkpt lat="43.79971220449659" lon="11.604114301889814"><ele>989.3333333333334</ele><time>2026-04-18T13:50:12Z</time></trkpt><trkpt lat="43.799632443559226" lon="11.604120918267213"><ele>989.1666666666667</ele><time>2026-04-18T13:50:13Z</time></trkpt><trkpt lat="43.79954256730211" lon="11.604147425566046"><ele>989.0</ele><time>2026-04-18T13:50:14Z</time></trkpt><trkpt lat="43.799406893923766" lon="11.60415681346852"><ele>990.0</ele><time>2026-04-18T13:50:15Z</time></trkpt><trkpt lat="43.799295756603215" lon="11.604150332319215"><ele>991.0000000000001</ele><time>2026-04-18T13:50:16Z</time></trkpt><trkpt lat="43.799214193013285" lon="11.604148517734034"><ele>992.0000000000001</ele><time>2026-04-18T13:50:17Z</time></trkpt><trkpt lat="43.79911907136059" lon="11.604136955330437"><ele>993.0</ele><time>2026-04-18T13:50:18Z</time></trkpt><trkpt lat="43.79900057429232" lon="11.604105176093503"><ele>994.0</ele><time>2026-04-18T13:50:19Z</time></trkpt><trkpt lat="43.79890228029162" lon="11.604080790189984"><ele>994.0</ele><time>2026-04-18T13:50:20Z</time></trkpt><trkpt lat="43.798794157974726" lon="11.604009322129428"><ele>994.0</ele><time>2026-04-18T13:50:21Z</time></trkpt><trkpt lat="43.798666348099914" lon="11.603938545002224"><ele>994.0</ele><time>2026-04-18T13:50:22Z</time></trkpt><trkpt lat="43.798539079176514" lon="11.603874946024758"><ele>994.0</ele><time>2026-04-18T13:50:23Z</time></trkpt><trkpt lat="43.79841084039509" lon="11.603835738422797"><ele>994.0</ele><time>2026-04-18T13:50:24Z</time></trkpt><trkpt lat="43.798321878100005" lon="11.603786145574242"><ele>994.0</ele><time>2026-04-18T13:50:25Z</time></trkpt><trkpt lat="43.798247324609285" lon="11.603706268854346"><ele>994.0</ele><time>2026-04-18T13:50:26Z</time></trkpt><trkpt lat="43.79815026137314" lon="11.60358826578357"><ele>994.0</ele><time>2026-04-18T13:50:27Z</time></trkpt><trkpt lat="43.79804683773436" lon="11.603445660896986"><ele>994.0</ele><time>2026-04-18T13:50:28Z</time></trkpt><trkpt lat="43.79797101452053" lon="11.603352007718824"><ele>994.0000000000001</ele><time>2026-04-18T13:50:28.999Z</time></trkpt><trkpt lat="43.797891293455855" lon="11.603278422456103"><ele>994.0000000000001</ele><time>2026-04-18T13:50:29.999Z</time></trkpt><trkpt lat="43.79780519346953" lon="11.603194400265073"><ele>994.0</ele><time>2026-04-18T13:50:30.999Z</time></trkpt><trkpt lat="43.79772616375455" lon="11.60315858526718"><ele>994.0</ele><time>2026-04-18T13:50:31.999Z</time></trkpt><trkpt lat="43.7976101065945" lon="11.603195221143592"><ele>991.8000000000001</ele><time>2026-04-18T13:50:33.999Z</time></trkpt><trkpt lat="43.797512294535714" lon="11.603264197599502"><ele>989.6000000000001</ele><time>2026-04-18T13:50:35.999Z</time></trkpt><trkpt lat="43.797442673999626" lon="11.603311816053827"><ele>987.4</ele><time>2026-04-18T13:50:36.999Z</time></trkpt><trkpt lat="43.79734116331386" lon="11.603356699949577"><ele>985.2</ele><time>2026-04-18T13:50:37.999Z</time></trkpt><trkpt lat="43.79722054953739" lon="11.603405520470158"><ele>983.0</ele><time>2026-04-18T13:50:38.999Z</time></trkpt><trkpt lat="43.797136667724715" lon="11.603447857070192"><ele>983.0</ele><time>2026-04-18T13:50:39.999Z</time></trkpt><trkpt lat="43.79707379615428" lon="11.603480807559622"><ele>983.0</ele><time>2026-04-18T13:50:40.999Z</time></trkpt><trkpt lat="43.79699435454225" lon="11.603518368254155"><ele>983.0</ele><time>2026-04-18T13:50:41.999Z</time></trkpt><trkpt lat="43.79689870869762" lon="11.603592031833562"><ele>983.0</ele><time>2026-04-18T13:50:43.999Z</time></trkpt><trkpt lat="43.79679615762893" lon="11.603635240793272"><ele>983.0</ele><time>2026-04-18T13:50:45.999Z</time></trkpt><trkpt lat="43.79672906729151" lon="11.603709446001686"><ele>984.3333333333334</ele><time>2026-04-18T13:50:47.999Z</time></trkpt><trkpt lat="43.79663720739083" lon="11.603824071845304"><ele>985.6666666666667</ele><time>2026-04-18T13:50:49.999Z</time></trkpt><trkpt lat="43.79657903537864" lon="11.603879782422506"><ele>987.0</ele><time>2026-04-18T13:50:50.999Z</time></trkpt><trkpt lat="43.79652275894624" lon="11.603942901946667"><ele>988.3333333333333</ele><time>2026-04-18T13:50:51.999Z</time></trkpt><trkpt lat="43.79646207979649" lon="11.604017707471424"><ele>989.6666666666666</ele><time>2026-04-18T13:50:52.999Z</time></trkpt><trkpt lat="43.796385273194986" lon="11.604098591285437"><ele>991.0</ele><time>2026-04-18T13:50:53.999Z</time></trkpt><trkpt lat="43.79631846078947" lon="11.604160897466254"><ele>990.9999999999999</ele><time>2026-04-18T13:50:54.999Z</time></trkpt><trkpt lat="43.79625883215304" lon="11.60419987232399"><ele>991.0</ele><time>2026-04-18T13:50:55.999Z</time></trkpt><trkpt lat="43.79616506929179" lon="11.60420875061715"><ele>991.0</ele><time>2026-04-18T13:50:57.999Z</time></trkpt><trkpt lat="43.79609884356466" lon="11.604139206344463"><ele>991.0</ele><time>2026-04-18T13:50:59.999Z</time></trkpt><trkpt lat="43.7960046690377" lon="11.604031047647771"><ele>990.9999999999999</ele><time>2026-04-18T13:51:01.999Z</time></trkpt><trkpt lat="43.79593122101593" lon="11.603977325330622"><ele>991.0</ele><time>2026-04-18T13:51:03.999Z</time></trkpt><trkpt lat="43.79586630591888" lon="11.60390679674859"><ele>991.3333333333333</ele><time>2026-04-18T13:51:06Z</time></trkpt><trkpt lat="43.79582543407442" lon="11.603826258063325"><ele>991.6666666666666</ele><time>2026-04-18T13:51:08Z</time></trkpt><trkpt lat="43.79576498764456" lon="11.603759953443582"><ele>992.0</ele><time>2026-04-18T13:51:09Z</time></trkpt><trkpt lat="43.795679703476246" lon="11.603691880699548"><ele>992.3333333333333</ele><time>2026-04-18T13:51:10Z</time></trkpt><trkpt lat="43.795606694605446" lon="11.603616228253133"><ele>992.6666666666666</ele><time>2026-04-18T13:51:11Z</time></trkpt><trkpt lat="43.79554426229503" lon="11.60353481000824"><ele>993.0</ele><time>2026-04-18T13:51:12Z</time></trkpt><trkpt lat="43.7954939419557" lon="11.60347215347754"><ele>993.0</ele><time>2026-04-18T13:51:13Z</time></trkpt><trkpt lat="43.795432525514556" lon="11.603407468355392"><ele>993.0</ele><time>2026-04-18T13:51:14Z</time></trkpt><trkpt lat="43.79537300081331" lon="11.603363807837324"><ele>993.0</ele><time>2026-04-18T13:51:15Z</time></trkpt><trkpt lat="43.7952677783003" lon="11.603277687272513"><ele>993.0</ele><time>2026-04-18T13:51:17Z</time></trkpt><trkpt lat="43.79520012532694" lon="11.603240763792714"><ele>993.0</ele><time>2026-04-18T13:51:18Z</time></trkpt><trkpt lat="43.79510368283266" lon="11.603226117877817"><ele>993.0</ele><time>2026-04-18T13:51:20Z</time></trkpt><trkpt lat="43.79502231559806" lon="11.603218862157673"><ele>994.5999999999999</ele><time>2026-04-18T13:51:22Z</time></trkpt><trkpt lat="43.794950924506644" lon="11.603214820378183"><ele>996.1999999999999</ele><time>2026-04-18T13:51:27Z</time></trkpt><trkpt lat="43.79487766436811" lon="11.603191006994912"><ele>997.8</ele><time>2026-04-18T13:51:28Z</time></trkpt><trkpt lat="43.794770470182506" lon="11.603108663271486"><ele>999.4</ele><time>2026-04-18T13:51:29Z</time></trkpt><trkpt lat="43.79465428623378" lon="11.603008446296212"><ele>1001.0</ele><time>2026-04-18T13:51:30Z</time></trkpt><trkpt lat="43.79457359423993" lon="11.602933762900056"><ele>1001.0000000000001</ele><time>2026-04-18T13:51:31Z</time></trkpt><trkpt lat="43.794514692298605" lon="11.602869134928206"><ele>1001.0</ele><time>2026-04-18T13:51:32Z</time></trkpt><trkpt lat="43.794435761678734" lon="11.60280390062419"><ele>1001.0</ele><time>2026-04-18T13:51:33Z</time></trkpt><trkpt lat="43.794363894021444" lon="11.60277315344676"><ele>1001.0</ele><time>2026-04-18T13:51:34Z</time></trkpt><trkpt lat="43.79428813231907" lon="11.602718144128675"><ele>1001.0000000000001</ele><time>2026-04-18T13:51:35Z</time></trkpt><trkpt lat="43.7942055482644" lon="11.602666514210236"><ele>1001.0</ele><time>2026-04-18T13:51:36Z</time></trkpt><trkpt lat="43.79412526406402" lon="11.602590948630215"><ele>1004.5000000000001</ele><time>2026-04-18T13:51:37Z</time></trkpt><trkpt lat="43.794048237248646" lon="11.602527096593676"><ele>1008.0</ele><time>2026-04-18T13:51:38Z</time></trkpt><trkpt lat="43.793971769184886" lon="11.602488163087846"><ele>1011.5</ele><time>2026-04-18T13:51:39Z</time></trkpt><trkpt lat="43.793885051463654" lon="11.602472202531473"><ele>1015.0</ele><time>2026-04-18T13:51:40Z</time></trkpt><trkpt lat="43.793806008804225" lon="11.602432560033089"><ele>1018.5000000000001</ele><time>2026-04-18T13:51:41Z</time></trkpt><trkpt lat="43.793739379325594" lon="11.602404168367183"><ele>1022.0</ele><time>2026-04-18T13:51:42Z</time></trkpt><trkpt lat="43.7936677773685" lon="11.602378766244687"><ele>1022.0000000000001</ele><time>2026-04-18T13:51:43Z</time></trkpt><trkpt lat="43.79359685618173" lon="11.602375892177802"><ele>1022.0</ele><time>2026-04-18T13:51:45Z</time></trkpt><trkpt lat="43.793528170878645" lon="11.602398186506147"><ele>1022.0</ele><time>2026-04-18T13:51:47Z</time></trkpt><trkpt lat="43.793463502875305" lon="11.602370388154059"><ele>1022.0</ele><time>2026-04-18T13:51:49Z</time></trkpt><trkpt lat="43.793381374684124" lon="11.602337028900866"><ele>1022.0000000000001</ele><time>2026-04-18T13:51:51Z</time></trkpt><trkpt lat="43.7933121162472" lon="11.60234717267075"><ele>1022.0</ele><time>2026-04-18T13:51:53Z</time></trkpt><trkpt lat="43.79321643022419" lon="11.602341782071548"><ele>1026.6666666666667</ele><time>2026-04-18T13:51:55Z</time></trkpt><trkpt lat="43.79313166651687" lon="11.602331498434081"><ele>1031.3333333333335</ele><time>2026-04-18T13:51:57Z</time></trkpt><trkpt lat="43.79305368317118" lon="11.602334560184548"><ele>1036.0</ele><time>2026-04-18T13:52:00Z</time></trkpt><trkpt lat="43.79296831737181" lon="11.602391701207225"><ele>1040.6666666666667</ele><time>2026-04-18T13:52:07Z</time></trkpt><trkpt lat="43.7930294444752" lon="11.602320804738248"><ele>1045.3333333333333</ele><time>2026-04-18T13:52:15.999Z</time></trkpt><trkpt lat="43.79312151902983" lon="11.60230225017777"><ele>1050.0</ele><time>2026-04-18T13:52:17.999Z</time></trkpt><trkpt lat="43.7931834762827" lon="11.602328171526429"><ele>1050.0</ele><time>2026-04-18T13:52:20.999Z</time></trkpt><trkpt lat="43.79325141172278" lon="11.602315144501988"><ele>1050.0</ele><time>2026-04-18T13:52:23.999Z</time></trkpt><trkpt lat="43.793326708611005" lon="11.602299795352694"><ele>1050.0</ele><time>2026-04-18T13:52:27.999Z</time></trkpt><trkpt lat="43.79340676230254" lon="11.602314735627575"><ele>1050.0</ele><time>2026-04-18T13:52:31.999Z</time></trkpt><trkpt lat="43.79347256935527" lon="11.602337339897586"><ele>1050.0</ele><time>2026-04-18T13:52:34.999Z</time></trkpt><trkpt lat="43.793414471479274" lon="11.60237452839761"><ele>1050.0</ele><time>2026-04-18T13:53:54Z</time></trkpt><trkpt lat="43.79335519384415" lon="11.60230140263969"><ele>1050.0</ele><time>2026-04-18T13:53:56Z</time></trkpt><trkpt lat="43.793281856826674" lon="11.602307367157733"><ele>1050.0</ele><time>2026-04-18T13:54:17.999Z</time></trkpt><trkpt lat="43.79321366074824" lon="11.602331059644305"><ele>1050.0</ele><time>2026-04-18T13:54:19.999Z</time></trkpt><trkpt lat="43.793134833317595" lon="11.602315174355853"><ele>1050.0</ele><time>2026-04-18T13:54:21.999Z</time></trkpt><trkpt lat="43.793028604972044" lon="11.602310193105714"><ele>1050.0</ele><time>2026-04-18T13:54:23.999Z</time></trkpt><trkpt lat="43.792962971276154" lon="11.602308445610122"><ele>1050.0</ele><time>2026-04-18T13:54:25.999Z</time></trkpt><trkpt lat="43.793036517887394" lon="11.602312355237984"><ele>1050.0</ele><time>2026-04-18T13:54:46.999Z</time></trkpt><trkpt lat="43.793101648324345" lon="11.602302616213864"><ele>1050.0</ele><time>2026-04-18T13:54:51.999Z</time></trkpt><trkpt lat="43.79317598536877" lon="11.602267454695479"><ele>1050.0</ele><time>2026-04-18T13:55:07.999Z</time></trkpt><trkpt lat="43.793239822687184" lon="11.60228202060419"><ele>1050.0</ele><time>2026-04-18T13:55:09.999Z</time></trkpt><trkpt lat="43.793319022972796" lon="11.602287675228958"><ele>1050.0</ele><time>2026-04-18T13:55:12.999Z</time></trkpt><trkpt lat="43.793399885851095" lon="11.60231929301509"><ele>1050.0</ele><time>2026-04-18T13:55:17Z</time></trkpt><trkpt lat="43.79349775504554" lon="11.60227836303085"><ele>1050.0</ele><time>2026-04-18T13:55:34Z</time></trkpt><trkpt lat="43.793436514224574" lon="11.602322722886374"><ele>1050.0</ele><time>2026-04-18T13:55:56Z</time></trkpt><trkpt lat="43.79336077539635" lon="11.602335895973615"><ele>1050.0</ele><time>2026-04-18T13:56:14.999Z</time></trkpt><trkpt lat="43.79328071915964" lon="11.602332589317566"><ele>1050.0</ele><time>2026-04-18T13:56:33.999Z</time></trkpt><trkpt lat="43.793208698381626" lon="11.602343896418246"><ele>1050.0</ele><time>2026-04-18T13:56:43.999Z</time></trkpt><trkpt lat="43.7931390259369" lon="11.602354448674948"><ele>1050.0</ele><time>2026-04-18T13:56:45.999Z</time></trkpt><trkpt lat="43.79304035241281" lon="11.602338103846938"><ele>1050.0</ele><time>2026-04-18T13:56:47.999Z</time></trkpt><trkpt lat="43.79297053738997" lon="11.6023484977911"><ele>1050.0</ele><time>2026-04-18T13:56:48.999Z</time></trkpt><trkpt lat="43.79286748204251" lon="11.602321314492908"><ele>1050.0</ele><time>2026-04-18T13:57:50Z</time></trkpt><trkpt lat="43.792795059343334" lon="11.602296124536135"><ele>1050.0</ele><time>2026-04-18T13:57:51Z</time></trkpt><trkpt lat="43.79270448567341" lon="11.60227896287614"><ele>1050.0</ele><time>2026-04-18T13:57:52Z</time></trkpt><trkpt lat="43.79261769251406" lon="11.602274071624072"><ele>1050.0</ele><time>2026-04-18T13:57:53Z</time></trkpt><trkpt lat="43.79253669028812" lon="11.602268199179713"><ele>1050.0</ele><time>2026-04-18T13:57:54Z</time></trkpt><trkpt lat="43.792449488337176" lon="11.602281721513299"><ele>1053.5</ele><time>2026-04-18T13:57:55Z</time></trkpt><trkpt lat="43.79234378329494" lon="11.602281230298901"><ele>1057.0</ele><time>2026-04-18T13:57:56Z</time></trkpt><trkpt lat="43.79220096623383" lon="11.602275498297136"><ele>1060.5</ele><time>2026-04-18T13:57:56.999Z</time></trkpt><trkpt lat="43.79204712744844" lon="11.602265996823585"><ele>1064.0</ele><time>2026-04-18T13:57:57.999Z</time></trkpt><trkpt lat="43.79193433050343" lon="11.602255559431137"><ele>1064.0</ele><time>2026-04-18T13:57:58.999Z</time></trkpt><trkpt lat="43.791857361200535" lon="11.602240567416258"><ele>1064.0</ele><time>2026-04-18T13:57:59.999Z</time></trkpt><trkpt lat="43.79177109094305" lon="11.602241238217738"><ele>1064.0</ele><time>2026-04-18T13:58:00.999Z</time></trkpt><trkpt lat="43.79168913373766" lon="11.602243912547458"><ele>1064.0</ele><time>2026-04-18T13:58:01.999Z</time></trkpt><trkpt lat="43.791598557807134" lon="11.602225413909505"><ele>1064.0</ele><time>2026-04-18T13:58:02.999Z</time></trkpt><trkpt lat="43.79150961107752" lon="11.602226523953975"><ele>1064.0</ele><time>2026-04-18T13:58:03.999Z</time></trkpt><trkpt lat="43.791421948971895" lon="11.602232503840789"><ele>1065.8</ele><time>2026-04-18T13:58:04.999Z</time></trkpt><trkpt lat="43.79132131089102" lon="11.602230000423074"><ele>1067.6000000000001</ele><time>2026-04-18T13:58:05.999Z</time></trkpt><trkpt lat="43.79123829962042" lon="11.60223676490938"><ele>1069.4</ele><time>2026-04-18T13:58:06.999Z</time></trkpt><trkpt lat="43.79114806997002" lon="11.602243211705783"><ele>1071.2</ele><time>2026-04-18T13:58:07.999Z</time></trkpt><trkpt lat="43.79104500016185" lon="11.602273809289724"><ele>1073.0</ele><time>2026-04-18T13:58:08.999Z</time></trkpt><trkpt lat="43.79090804925187" lon="11.602343915770257"><ele>1074.3333333333335</ele><time>2026-04-18T13:58:09.999Z</time></trkpt><trkpt lat="43.7908081682802" lon="11.60243026042456"><ele>1075.6666666666667</ele><time>2026-04-18T13:58:10.999Z</time></trkpt><trkpt lat="43.790712563413315" lon="11.602466072784699"><ele>1077.0</ele><time>2026-04-18T13:58:31.999Z</time></trkpt><trkpt lat="43.79065439862752" lon="11.602508454796425"><ele>1078.3333333333333</ele><time>2026-04-18T13:58:32.999Z</time></trkpt><trkpt lat="43.790606188152864" lon="11.602580485996423"><ele>1079.6666666666665</ele><time>2026-04-18T13:58:33.999Z</time></trkpt><trkpt lat="43.79054758879272" lon="11.602653606148046"><ele>1081.0</ele><time>2026-04-18T13:58:34.999Z</time></trkpt><trkpt lat="43.79049623874381" lon="11.602735835438706"><ele>1081.0</ele><time>2026-04-18T13:58:35.999Z</time></trkpt><trkpt lat="43.79041160477934" lon="11.602817017495784"><ele>1081.0</ele><time>2026-04-18T13:58:37.999Z</time></trkpt><trkpt lat="43.790358557903815" lon="11.602940714389325"><ele>1081.0</ele><time>2026-04-18T13:58:40.999Z</time></trkpt><trkpt lat="43.79028888478091" lon="11.602996027518987"><ele>1081.0</ele><time>2026-04-18T13:58:41.999Z</time></trkpt><trkpt lat="43.7901713917476" lon="11.603089571484068"><ele>1081.0</ele><time>2026-04-18T13:58:42.999Z</time></trkpt><trkpt lat="43.79003126995661" lon="11.603208603617153"><ele>1081.8</ele><time>2026-04-18T13:58:43.999Z</time></trkpt><trkpt lat="43.7898683178362" lon="11.603315414858868"><ele>1082.6</ele><time>2026-04-18T13:58:44.999Z</time></trkpt><trkpt lat="43.78978858004032" lon="11.603372728332126"><ele>1083.4</ele><time>2026-04-18T13:58:45.999Z</time></trkpt><trkpt lat="43.789706388656334" lon="11.603440405377317"><ele>1084.2</ele><time>2026-04-18T13:58:47.999Z</time></trkpt><trkpt lat="43.78963506248359" lon="11.60348679782281"><ele>1085.0</ele><time>2026-04-18T13:58:48.999Z</time></trkpt><trkpt lat="43.78956452448282" lon="11.603530817161431"><ele>1085.0</ele><time>2026-04-18T13:58:49.999Z</time></trkpt><trkpt lat="43.78950221832023" lon="11.603598384621609"><ele>1085.0</ele><time>2026-04-18T13:58:50.999Z</time></trkpt><trkpt lat="43.7894127685513" lon="11.603666885312384"><ele>1085.0</ele><time>2026-04-18T13:58:51.999Z</time></trkpt><trkpt lat="43.78931293458693" lon="11.603730291431596"><ele>1085.0</ele><time>2026-04-18T13:58:52.999Z</time></trkpt><trkpt lat="43.789206451390264" lon="11.603795517943697"><ele>1085.0</ele><time>2026-04-18T13:58:53.999Z</time></trkpt><trkpt lat="43.78913092478174" lon="11.60383245693144"><ele>1084.0</ele><time>2026-04-18T13:58:54.999Z</time></trkpt><trkpt lat="43.789069387290056" lon="11.603875431868873"><ele>1083.0</ele><time>2026-04-18T13:58:55.999Z</time></trkpt><trkpt lat="43.78901456597216" lon="11.603919255078049"><ele>1082.0</ele><time>2026-04-18T13:58:56.999Z</time></trkpt><trkpt lat="43.788880445278004" lon="11.603906889475308"><ele>1081.0</ele><time>2026-04-18T13:58:58.999Z</time></trkpt><trkpt lat="43.78876507722833" lon="11.60387005261896"><ele>1080.0</ele><time>2026-04-18T13:58:59.999Z</time></trkpt><trkpt lat="43.78864105623369" lon="11.603855395342588"><ele>1080.4</ele><time>2026-04-18T13:59:00.999Z</time></trkpt><trkpt lat="43.788491180613" lon="11.603827452556219"><ele>1080.8</ele><time>2026-04-18T13:59:01.999Z</time></trkpt><trkpt lat="43.78839352937698" lon="11.603826854580936"><ele>1081.2</ele><time>2026-04-18T13:59:02.999Z</time></trkpt><trkpt lat="43.78830844985236" lon="11.603815699533689"><ele>1081.6</ele><time>2026-04-18T13:59:03.999Z</time></trkpt><trkpt lat="43.788207701311386" lon="11.603795661077054"><ele>1082.0</ele><time>2026-04-18T13:59:04.999Z</time></trkpt><trkpt lat="43.78807959868918" lon="11.603775782814498"><ele>1082.0</ele><time>2026-04-18T13:59:05.999Z</time></trkpt><trkpt lat="43.78795269288918" lon="11.603719584340453"><ele>1082.0</ele><time>2026-04-18T13:59:06.999Z</time></trkpt><trkpt lat="43.787844326319934" lon="11.603668456072128"><ele>1082.0</ele><time>2026-04-18T13:59:07.999Z</time></trkpt><trkpt lat="43.787738784656696" lon="11.60363121139462"><ele>1082.0</ele><time>2026-04-18T13:59:08.999Z</time></trkpt><trkpt lat="43.7876217278344" lon="11.60363332886394"><ele>1082.6</ele><time>2026-04-18T13:59:09.999Z</time></trkpt><trkpt lat="43.78751094672291" lon="11.6036059479444"><ele>1083.2</ele><time>2026-04-18T13:59:10.999Z</time></trkpt><trkpt lat="43.787409351978745" lon="11.603569115739527"><ele>1083.8</ele><time>2026-04-18T13:59:11.999Z</time></trkpt><trkpt lat="43.78729466499444" lon="11.603541154694282"><ele>1084.4</ele><time>2026-04-18T13:59:12.999Z</time></trkpt><trkpt lat="43.78720889016384" lon="11.603508801165912"><ele>1085.0</ele><time>2026-04-18T13:59:13.999Z</time></trkpt><trkpt lat="43.787126377439584" lon="11.603497580245929"><ele>1085.0</ele><time>2026-04-18T13:59:14.999Z</time></trkpt><trkpt lat="43.787032048858954" lon="11.60348133557259"><ele>1085.0</ele><time>2026-04-18T13:59:15.999Z</time></trkpt><trkpt lat="43.7869274593679" lon="11.603460813312513"><ele>1085.0</ele><time>2026-04-18T13:59:16.999Z</time></trkpt><trkpt lat="43.786808240375265" lon="11.603451714949335"><ele>1085.0</ele><time>2026-04-18T13:59:17.999Z</time></trkpt><trkpt lat="43.786705810015334" lon="11.60343836599948"><ele>1085.0</ele><time>2026-04-18T13:59:18.999Z</time></trkpt><trkpt lat="43.7865822954739" lon="11.603389770738348"><ele>1082.75</ele><time>2026-04-18T13:59:19.999Z</time></trkpt><trkpt lat="43.786465122037455" lon="11.60335850344625"><ele>1080.5</ele><time>2026-04-18T13:59:20.999Z</time></trkpt><trkpt lat="43.78634045034639" lon="11.603323288068285"><ele>1078.25</ele><time>2026-04-18T13:59:21.999Z</time></trkpt><trkpt lat="43.78621660098866" lon="11.603301204004547"><ele>1076.0</ele><time>2026-04-18T13:59:22.999Z</time></trkpt><trkpt lat="43.7861109707076" lon="11.60326219614177"><ele>1076.0</ele><time>2026-04-18T13:59:23.999Z</time></trkpt><trkpt lat="43.78601842962616" lon="11.60322142264579"><ele>1076.0</ele><time>2026-04-18T13:59:24.999Z</time></trkpt><trkpt lat="43.785900348515675" lon="11.603203291767606"><ele>1076.0</ele><time>2026-04-18T13:59:25.999Z</time></trkpt><trkpt lat="43.78576990673135" lon="11.603157357243996"><ele>1076.0</ele><time>2026-04-18T13:59:26.999Z</time></trkpt><trkpt lat="43.78563534046916" lon="11.603075345372757"><ele>1075.0</ele><time>2026-04-18T13:59:27.999Z</time></trkpt><trkpt lat="43.78551627334363" lon="11.603025198675958"><ele>1074.0</ele><time>2026-04-18T13:59:29Z</time></trkpt><trkpt lat="43.78540822090827" lon="11.60298015603881"><ele>1073.0</ele><time>2026-04-18T13:59:30Z</time></trkpt><trkpt lat="43.785303347949366" lon="11.602920483468987"><ele>1072.0</ele><time>2026-04-18T13:59:31Z</time></trkpt><trkpt lat="43.78518151058638" lon="11.602860215690745"><ele>1072.6</ele><time>2026-04-18T13:59:32Z</time></trkpt><trkpt lat="43.785065211901504" lon="11.602817653746325"><ele>1073.2</ele><time>2026-04-18T13:59:33Z</time></trkpt><trkpt lat="43.784961762609626" lon="11.602803911550827"><ele>1073.8</ele><time>2026-04-18T13:59:34Z</time></trkpt><trkpt lat="43.78488249731407" lon="11.602761279677551"><ele>1074.4</ele><time>2026-04-18T13:59:35Z</time></trkpt><trkpt lat="43.7848133688849" lon="11.602684164760223"><ele>1075.0</ele><time>2026-04-18T13:59:36Z</time></trkpt><trkpt lat="43.78474658219557" lon="11.602538643033363"><ele>1075.0</ele><time>2026-04-18T13:59:37Z</time></trkpt><trkpt lat="43.78466565449173" lon="11.602355931696621"><ele>1075.0</ele><time>2026-04-18T13:59:38Z</time></trkpt><trkpt lat="43.784593147384214" lon="11.602168345975368"><ele>1075.0</ele><time>2026-04-18T13:59:39Z</time></trkpt><trkpt lat="43.784511318094836" lon="11.602010755696853"><ele>1075.0</ele><time>2026-04-18T13:59:40Z</time></trkpt><trkpt lat="43.784420286205496" lon="11.601841682063556"><ele>1075.6</ele><time>2026-04-18T13:59:41Z</time></trkpt><trkpt lat="43.78430839325137" lon="11.601653837252373"><ele>1076.2</ele><time>2026-04-18T13:59:42Z</time></trkpt><trkpt lat="43.78423397881418" lon="11.601514519611989"><ele>1076.8</ele><time>2026-04-18T13:59:43Z</time></trkpt><trkpt lat="43.7841803953245" lon="11.601441900107753"><ele>1077.4</ele><time>2026-04-18T13:59:44Z</time></trkpt><trkpt lat="43.784112162929844" lon="11.601454584823163"><ele>1078.0</ele><time>2026-04-18T14:00:11.999Z</time></trkpt><trkpt lat="43.784053610346376" lon="11.601377241399538"><ele>1078.0</ele><time>2026-04-18T14:00:14.999Z</time></trkpt><trkpt lat="43.783987931356684" lon="11.601331655313265"><ele>1078.0</ele><time>2026-04-18T14:00:18.999Z</time></trkpt><trkpt lat="43.78390916552567" lon="11.601280243474934"><ele>1078.0</ele><time>2026-04-18T14:00:25.999Z</time></trkpt><trkpt lat="43.78385134305308" lon="11.601238065298839"><ele>1078.0</ele><time>2026-04-18T14:00:27.999Z</time></trkpt><trkpt lat="43.783768821599026" lon="11.60115674803706"><ele>1078.0</ele><time>2026-04-18T14:00:29.999Z</time></trkpt><trkpt lat="43.783684989443444" lon="11.60110197178129"><ele>1078.0</ele><time>2026-04-18T14:00:31.999Z</time></trkpt><trkpt lat="43.78359999965585" lon="11.601099882230544"><ele>1075.6</ele><time>2026-04-18T14:00:33.999Z</time></trkpt><trkpt lat="43.783512119998946" lon="11.601114418875268"><ele>1073.1999999999998</ele><time>2026-04-18T14:00:35.999Z</time></trkpt><trkpt lat="43.78342204607443" lon="11.601082178256062"><ele>1070.8</ele><time>2026-04-18T14:00:37.999Z</time></trkpt><trkpt lat="43.78339077453132" lon="11.600963023012511"><ele>1068.3999999999999</ele><time>2026-04-18T14:00:39.999Z</time></trkpt><trkpt lat="43.78333133570996" lon="11.600908695746904"><ele>1066.0</ele><time>2026-04-18T14:00:41.999Z</time></trkpt><trkpt lat="43.78320469848014" lon="11.600946022860922"><ele>1066.0</ele><time>2026-04-18T14:00:43.999Z</time></trkpt><trkpt lat="43.78309905251341" lon="11.60096492138521"><ele>1066.0</ele><time>2026-04-18T14:00:45.999Z</time></trkpt><trkpt lat="43.783026607208306" lon="11.601018528115546"><ele>1066.0</ele><time>2026-04-18T14:00:47.999Z</time></trkpt><trkpt lat="43.7829645055617" lon="11.601060523179012"><ele>1066.0</ele><time>2026-04-18T14:00:50.999Z</time></trkpt><trkpt lat="43.78286756187371" lon="11.601053074011903"><ele>1066.0</ele><time>2026-04-18T14:00:52.999Z</time></trkpt><trkpt lat="43.78279911751539" lon="11.60105936978953"><ele>1066.0</ele><time>2026-04-18T14:00:55.999Z</time></trkpt><trkpt lat="43.7827051792908" lon="11.600976692547434"><ele>1066.0</ele><time>2026-04-18T14:00:57.999Z</time></trkpt><trkpt lat="43.78271250999668" lon="11.60108121444664"><ele>1066.0</ele><time>2026-04-18T14:01:39Z</time></trkpt><trkpt lat="43.78279637574327" lon="11.60111358916174"><ele>1066.0</ele><time>2026-04-18T14:01:41Z</time></trkpt><trkpt lat="43.782839640195526" lon="11.60123651632471"><ele>1066.0</ele><time>2026-04-18T14:01:43Z</time></trkpt><trkpt lat="43.78281347579242" lon="11.601355080178653"><ele>1066.0</ele><time>2026-04-18T14:01:44Z</time></trkpt><trkpt lat="43.78281412246718" lon="11.601493649696211"><ele>1066.0</ele><time>2026-04-18T14:01:45Z</time></trkpt><trkpt lat="43.78283267648564" lon="11.601592066674849"><ele>1066.0</ele><time>2026-04-18T14:01:46Z</time></trkpt><trkpt lat="43.78280380868387" lon="11.601462450332528"><ele>1066.0</ele><time>2026-04-18T14:02:10Z</time></trkpt><trkpt lat="43.78281055793957" lon="11.601331326362725"><ele>1066.0</ele><time>2026-04-18T14:02:12Z</time></trkpt><trkpt lat="43.78281198109418" lon="11.60114570744029"><ele>1066.0</ele><time>2026-04-18T14:02:14Z</time></trkpt><trkpt lat="43.78275902127433" lon="11.601057763224391"><ele>1066.0</ele><time>2026-04-18T14:02:17Z</time></trkpt><trkpt lat="43.7826791081332" lon="11.601054658156212"><ele>1061.0</ele><time>2026-04-18T14:02:23Z</time></trkpt></trkseg></trk></gpx>